<?xml version="1.0" encoding="UTF-8" standalone="no" ?><gpx xmlns="http://www.topografix.com/GPX/1/1" xmlns:gpxx="http://www.garmin.com/xmlschemas/GpxExtensions/v3" xmlns:wptx1="http://www.garmin.com/xmlschemas/WaypointExtension/v1" xmlns:gpxtpx="http://www.garmin.com/xmlschemas/TrackPointExtension/v1" creator="Alpha 100 EMEA/APAC" version="1.1" xmlns:xsi="http://www.w3.org/2001/XMLSchema-instance" xsi:schemaLocation="http://www.topografix.com/GPX/1/1 http://www.topografix.com/GPX/1/1/gpx.xsd http://www.garmin.com/xmlschemas/GpxExtensions/v3 http://www8.garmin.com/xmlschemas/GpxExtensionsv3.xsd http://www.garmin.com/xmlschemas/WaypointExtension/v1 http://www8.garmin.com/xmlschemas/WaypointExtensionv1.xsd http://www.garmin.com/xmlschemas/TrackPointExtension/v1 http://www.garmin.com/xmlschemas/TrackPointExtensionv1.xsd"><metadata><link href="http://www.garmin.com"><text>Garmin International</text></link><time>2026-04-25T19:07:22Z</time></metadata><trk><name>2026-04-25 23:07:21</name><trkseg><trkpt lat="59.2434399761" lon="30.2983967308"><ele>65.03</ele><time>2026-04-11T05:35:17Z</time></trkpt><trkpt lat="59.2434408981" lon="30.2984012570"><ele>65.03</ele><time>2026-04-11T05:35:49Z</time></trkpt><trkpt lat="59.2434355337" lon="30.2984292526"><ele>65.03</ele><time>2026-04-11T05:36:29Z</time></trkpt><trkpt lat="59.2434361205" lon="30.2984431665"><ele>65.99</ele><time>2026-04-11T05:37:10Z</time></trkpt><trkpt lat="59.2434351146" lon="30.2984677255"><ele>65.99</ele><time>2026-04-11T05:37:32Z</time></trkpt><trkpt lat="59.2434270680" lon="30.2984692343"><ele>65.99</ele><time>2026-04-11T05:38:00Z</time></trkpt><trkpt lat="59.2446305417" lon="30.2916016895"><ele>69.35</ele><time>2026-04-11T06:11:42Z</time></trkpt><trkpt lat="59.2446273565" lon="30.2915959060"><ele>69.35</ele><time>2026-04-11T06:11:43Z</time></trkpt><trkpt lat="59.2446736246" lon="30.2915254980"><ele>68.87</ele><time>2026-04-11T06:11:59Z</time></trkpt><trkpt lat="59.2447518278" lon="30.2913316246"><ele>68.87</ele><time>2026-04-11T06:12:05Z</time></trkpt><trkpt lat="59.2447703518" lon="30.2912813332"><ele>68.87</ele><time>2026-04-11T06:12:06Z</time></trkpt><trkpt lat="59.2449766304" lon="30.2901089564"><ele>69.83</ele><time>2026-04-11T06:12:24Z</time></trkpt><trkpt lat="59.2452335358" lon="30.2885434683"><ele>70.79</ele><time>2026-04-11T06:12:40Z</time></trkpt><trkpt lat="59.2455590051" lon="30.2866820153"><ele>70.79</ele><time>2026-04-11T06:12:57Z</time></trkpt><trkpt lat="59.2458015773" lon="30.2850116696"><ele>70.79</ele><time>2026-04-11T06:13:11Z</time></trkpt><trkpt lat="59.2460827902" lon="30.2832808904"><ele>70.79</ele><time>2026-04-11T06:13:27Z</time></trkpt><trkpt lat="59.2464329861" lon="30.2809283417"><ele>71.76</ele><time>2026-04-11T06:13:43Z</time></trkpt><trkpt lat="59.2466775700" lon="30.2791593410"><ele>71.76</ele><time>2026-04-11T06:13:53Z</time></trkpt><trkpt lat="59.2504569702" lon="30.2541099396"><ele>75.12</ele><time>2026-04-11T06:17:32Z</time></trkpt><trkpt lat="59.2504683696" lon="30.2540692035"><ele>75.12</ele><time>2026-04-11T06:17:33Z</time></trkpt><trkpt lat="59.2505747359" lon="30.2531461883"><ele>76.08</ele><time>2026-04-11T06:17:47Z</time></trkpt></trkseg><trkseg><trkpt lat="60.1054936554" lon="30.1098830346"><ele>-92.63</ele><time>2026-04-14T17:08:03Z</time></trkpt><trkpt lat="60.1057096571" lon="30.1095276419"><ele>-92.63</ele><time>2026-04-14T17:08:33Z</time></trkpt><trkpt lat="60.1051989477" lon="30.1095768437"><ele>-85.42</ele><time>2026-04-14T17:08:53Z</time></trkpt><trkpt lat="60.1051799208" lon="30.1095995586"><ele>-79.65</ele><time>2026-04-14T17:08:54Z</time></trkpt><trkpt lat="60.1051751431" lon="30.1096194237"><ele>-73.88</ele><time>2026-04-14T17:08:55Z</time></trkpt><trkpt lat="60.1051710360" lon="30.1096341759"><ele>-68.12</ele><time>2026-04-14T17:08:56Z</time></trkpt><trkpt lat="60.1051618159" lon="30.1096475869"><ele>-62.83</ele><time>2026-04-14T17:08:57Z</time></trkpt><trkpt lat="60.1051557809" lon="30.1096699666"><ele>-57.54</ele><time>2026-04-14T17:08:58Z</time></trkpt><trkpt lat="60.1051556971" lon="30.1097137202"><ele>-52.74</ele><time>2026-04-14T17:08:59Z</time></trkpt><trkpt lat="60.1051480696" lon="30.1097469125"><ele>-47.93</ele><time>2026-04-14T17:09:00Z</time></trkpt><trkpt lat="60.1051484048" lon="30.1097837090"><ele>-43.60</ele><time>2026-04-14T17:09:01Z</time></trkpt><trkpt lat="60.1051401906" lon="30.1098049153"><ele>-39.76</ele><time>2026-04-14T17:09:02Z</time></trkpt><trkpt lat="60.1051321439" lon="30.1098220982"><ele>-35.91</ele><time>2026-04-14T17:09:03Z</time></trkpt><trkpt lat="60.1051219180" lon="30.1098345872"><ele>-32.07</ele><time>2026-04-14T17:09:04Z</time></trkpt><trkpt lat="60.1051060762" lon="30.1098470762"><ele>-28.70</ele><time>2026-04-14T17:09:05Z</time></trkpt><trkpt lat="60.1050898153" lon="30.1098604873"><ele>-25.34</ele><time>2026-04-14T17:09:06Z</time></trkpt><trkpt lat="60.1050773263" lon="30.1098785922"><ele>-22.45</ele><time>2026-04-14T17:09:07Z</time></trkpt><trkpt lat="60.1050623227" lon="30.1099164784"><ele>-16.69</ele><time>2026-04-14T17:09:09Z</time></trkpt><trkpt lat="60.1050474867" lon="30.1099515986"><ele>-11.40</ele><time>2026-04-14T17:09:11Z</time></trkpt><trkpt lat="60.1050434634" lon="30.1099873055"><ele>-6.59</ele><time>2026-04-14T17:09:13Z</time></trkpt><trkpt lat="60.1050431281" lon="30.1100099366"><ele>-1.79</ele><time>2026-04-14T17:09:15Z</time></trkpt><trkpt lat="60.1050479896" lon="30.1100008842"><ele>2.06</ele><time>2026-04-14T17:09:17Z</time></trkpt><trkpt lat="60.1050476544" lon="30.1100001298"><ele>5.42</ele><time>2026-04-14T17:09:19Z</time></trkpt><trkpt lat="60.1050389372" lon="30.1100112777"><ele>9.75</ele><time>2026-04-14T17:09:22Z</time></trkpt><trkpt lat="60.1050311420" lon="30.1100190729"><ele>13.60</ele><time>2026-04-14T17:09:24Z</time></trkpt><trkpt lat="60.1050289627" lon="30.1100242697"><ele>13.60</ele><time>2026-04-14T17:09:25Z</time></trkpt><trkpt lat="60.1050306391" lon="30.1100323163"><ele>16.48</ele><time>2026-04-14T17:09:28Z</time></trkpt><trkpt lat="60.1050392725" lon="30.1100346632"><ele>20.32</ele><time>2026-04-14T17:09:32Z</time></trkpt><trkpt lat="60.1050261967" lon="30.1100798417"><ele>23.21</ele><time>2026-04-14T17:09:36Z</time></trkpt><trkpt lat="60.1049826108" lon="30.1101589669"><ele>25.13</ele><time>2026-04-14T17:09:40Z</time></trkpt><trkpt lat="60.1049816050" lon="30.1101655886"><ele>27.53</ele><time>2026-04-14T17:09:43Z</time></trkpt><trkpt lat="60.1050178986" lon="30.1100343280"><ele>29.46</ele><time>2026-04-14T17:09:56Z</time></trkpt><trkpt lat="60.1050105225" lon="30.1100162230"><ele>29.94</ele><time>2026-04-14T17:10:10Z</time></trkpt><trkpt lat="60.1050025597" lon="30.1100426260"><ele>28.98</ele><time>2026-04-14T17:10:24Z</time></trkpt><trkpt lat="60.1050009672" lon="30.1100417878"><ele>28.98</ele><time>2026-04-14T17:10:35Z</time></trkpt><trkpt lat="60.1050021406" lon="30.1100175641"><ele>30.42</ele><time>2026-04-14T17:10:41Z</time></trkpt><trkpt lat="60.1049766596" lon="30.1100502536"><ele>30.42</ele><time>2026-04-14T17:10:51Z</time></trkpt><trkpt lat="60.1049865503" lon="30.1100251917"><ele>30.42</ele><time>2026-04-14T17:10:58Z</time></trkpt><trkpt lat="60.1049902383" lon="30.1099418756"><ele>30.42</ele><time>2026-04-14T17:11:10Z</time></trkpt><trkpt lat="60.1049748156" lon="30.1099226810"><ele>30.42</ele><time>2026-04-14T17:11:25Z</time></trkpt><trkpt lat="60.1049546152" lon="30.1100064162"><ele>30.42</ele><time>2026-04-14T17:11:35Z</time></trkpt><trkpt lat="60.1049600635" lon="30.1100050751"><ele>30.42</ele><time>2026-04-14T17:11:49Z</time></trkpt><trkpt lat="60.1049720496" lon="30.1100349147"><ele>30.42</ele><time>2026-04-14T17:12:01Z</time></trkpt><trkpt lat="60.1049781684" lon="30.1100297179"><ele>30.42</ele><time>2026-04-14T17:12:13Z</time></trkpt><trkpt lat="60.1049860474" lon="30.1099547837"><ele>30.42</ele><time>2026-04-14T17:12:21Z</time></trkpt><trkpt lat="60.1049781684" lon="30.1100445539"><ele>28.98</ele><time>2026-04-14T17:12:31Z</time></trkpt><trkpt lat="60.1049766596" lon="30.1101462264"><ele>28.98</ele><time>2026-04-14T17:12:38Z</time></trkpt><trkpt lat="60.1049789228" lon="30.1100971922"><ele>28.98</ele><time>2026-04-14T17:12:40Z</time></trkpt><trkpt lat="60.1049795095" lon="30.1100949291"><ele>28.98</ele><time>2026-04-14T17:12:56Z</time></trkpt><trkpt lat="60.1049982850" lon="30.1100662630"><ele>28.50</ele><time>2026-04-14T17:13:09Z</time></trkpt><trkpt lat="60.1050021406" lon="30.1098817773"><ele>28.50</ele><time>2026-04-14T17:13:25Z</time></trkpt><trkpt lat="60.1050174795" lon="30.1098446455"><ele>28.50</ele><time>2026-04-14T17:13:43Z</time></trkpt><trkpt lat="60.1050277893" lon="30.1098368503"><ele>28.50</ele><time>2026-04-14T17:14:11Z</time></trkpt><trkpt lat="60.1050340757" lon="30.1098166499"><ele>28.50</ele><time>2026-04-14T17:14:31Z</time></trkpt><trkpt lat="60.1050551981" lon="30.1097873133"><ele>28.50</ele><time>2026-04-14T17:14:52Z</time></trkpt><trkpt lat="60.1050326508" lon="30.1097503491"><ele>28.50</ele><time>2026-04-14T17:15:08Z</time></trkpt><trkpt lat="60.1050269511" lon="30.1097058412"><ele>27.05</ele><time>2026-04-14T17:15:24Z</time></trkpt><trkpt lat="60.1050100196" lon="30.1096791029"><ele>27.05</ele><time>2026-04-14T17:15:30Z</time></trkpt><trkpt lat="60.1049522683" lon="30.1096169930"><ele>27.05</ele><time>2026-04-14T17:15:47Z</time></trkpt><trkpt lat="60.1048697904" lon="30.1096301526"><ele>26.57</ele><time>2026-04-14T17:16:04Z</time></trkpt><trkpt lat="60.1048129611" lon="30.1096535381"><ele>26.57</ele><time>2026-04-14T17:16:09Z</time></trkpt><trkpt lat="60.1046567224" lon="30.1097034942"><ele>28.02</ele><time>2026-04-14T17:16:22Z</time></trkpt><trkpt lat="60.1045424771" lon="30.1097837929"><ele>28.98</ele><time>2026-04-14T17:16:37Z</time></trkpt><trkpt lat="60.1045354363" lon="30.1097914204"><ele>28.98</ele><time>2026-04-14T17:16:39Z</time></trkpt><trkpt lat="60.1043970510" lon="30.1098988764"><ele>29.46</ele><time>2026-04-14T17:16:49Z</time></trkpt><trkpt lat="60.1041591726" lon="30.1100521814"><ele>30.42</ele><time>2026-04-14T17:17:07Z</time></trkpt><trkpt lat="60.1040660497" lon="30.1101392694"><ele>30.42</ele><time>2026-04-14T17:17:19Z</time></trkpt><trkpt lat="60.1038616151" lon="30.1103007048"><ele>30.42</ele><time>2026-04-14T17:17:37Z</time></trkpt><trkpt lat="60.1037789695" lon="30.1104573626"><ele>30.90</ele><time>2026-04-14T17:17:52Z</time></trkpt><trkpt lat="60.1037201285" lon="30.1104537584"><ele>30.90</ele><time>2026-04-14T17:18:06Z</time></trkpt><trkpt lat="60.1036473736" lon="30.1104177162"><ele>29.94</ele><time>2026-04-14T17:18:26Z</time></trkpt><trkpt lat="60.1036430150" lon="30.1104167104"><ele>29.94</ele><time>2026-04-14T17:18:28Z</time></trkpt><trkpt lat="60.1035627164" lon="30.1105555147"><ele>29.94</ele><time>2026-04-14T17:18:42Z</time></trkpt><trkpt lat="60.1035015285" lon="30.1106453687"><ele>29.94</ele><time>2026-04-14T17:18:57Z</time></trkpt><trkpt lat="60.1034818310" lon="30.1107041258"><ele>28.50</ele><time>2026-04-14T17:19:13Z</time></trkpt><trkpt lat="60.1034601219" lon="30.1106831711"><ele>28.50</ele><time>2026-04-14T17:19:29Z</time></trkpt><trkpt lat="60.1034322940" lon="30.1106673293"><ele>28.50</ele><time>2026-04-14T17:19:43Z</time></trkpt><trkpt lat="60.1033867802" lon="30.1106300298"><ele>28.50</ele><time>2026-04-14T17:19:59Z</time></trkpt><trkpt lat="60.1033799909" lon="30.1106277667"><ele>28.50</ele><time>2026-04-14T17:20:24Z</time></trkpt><trkpt lat="60.1033663284" lon="30.1106258389"><ele>28.02</ele><time>2026-04-14T17:20:57Z</time></trkpt><trkpt lat="60.1033591200" lon="30.1106193848"><ele>28.02</ele><time>2026-04-14T17:21:18Z</time></trkpt><trkpt lat="60.1033512410" lon="30.1106153615"><ele>28.02</ele><time>2026-04-14T17:21:40Z</time></trkpt><trkpt lat="60.1033322979" lon="30.1106065605"><ele>28.02</ele><time>2026-04-14T17:21:57Z</time></trkpt><trkpt lat="60.1032913104" lon="30.1105193887"><ele>27.05</ele><time>2026-04-14T17:22:13Z</time></trkpt><trkpt lat="60.1032550167" lon="30.1103855297"><ele>27.05</ele><time>2026-04-14T17:22:32Z</time></trkpt><trkpt lat="60.1032382529" lon="30.1103152893"><ele>27.05</ele><time>2026-04-14T17:22:59Z</time></trkpt><trkpt lat="60.1032126043" lon="30.1102924906"><ele>27.05</ele><time>2026-04-14T17:23:19Z</time></trkpt><trkpt lat="60.1032167114" lon="30.1102769841"><ele>27.05</ele><time>2026-04-14T17:23:39Z</time></trkpt><trkpt lat="60.1032053959" lon="30.1102705300"><ele>27.05</ele><time>2026-04-14T17:23:56Z</time></trkpt><trkpt lat="60.1032326370" lon="30.1103464700"><ele>27.05</ele><time>2026-04-14T17:24:09Z</time></trkpt><trkpt lat="60.1032290328" lon="30.1103635691"><ele>27.05</ele><time>2026-04-14T17:24:30Z</time></trkpt><trkpt lat="60.1032261830" lon="30.1103748847"><ele>27.05</ele><time>2026-04-14T17:24:53Z</time></trkpt><trkpt lat="60.1032249257" lon="30.1104396768"><ele>27.05</ele><time>2026-04-14T17:25:17Z</time></trkpt><trkpt lat="60.1032242551" lon="30.1104457118"><ele>27.05</ele><time>2026-04-14T17:25:44Z</time></trkpt><trkpt lat="60.1032401808" lon="30.1104947459"><ele>27.05</ele><time>2026-04-14T17:26:01Z</time></trkpt><trkpt lat="60.1032538433" lon="30.1105278544"><ele>27.05</ele><time>2026-04-14T17:26:03Z</time></trkpt><trkpt lat="60.1032803301" lon="30.1105795708"><ele>27.05</ele><time>2026-04-14T17:26:06Z</time></trkpt><trkpt lat="60.1033079904" lon="30.1107192133"><ele>27.05</ele><time>2026-04-14T17:26:21Z</time></trkpt><trkpt lat="60.1033053081" lon="30.1107346360"><ele>27.05</ele><time>2026-04-14T17:26:29Z</time></trkpt><trkpt lat="60.1031761430" lon="30.1109015197"><ele>27.05</ele><time>2026-04-14T17:26:44Z</time></trkpt><trkpt lat="60.1031157933" lon="30.1109828241"><ele>27.05</ele><time>2026-04-14T17:27:02Z</time></trkpt><trkpt lat="60.1030449662" lon="30.1111395657"><ele>27.05</ele><time>2026-04-14T17:27:16Z</time></trkpt><trkpt lat="60.1030437090" lon="30.1112255640"><ele>28.02</ele><time>2026-04-14T17:27:21Z</time></trkpt><trkpt lat="60.1030499954" lon="30.1115068607"><ele>28.50</ele><time>2026-04-14T17:27:35Z</time></trkpt><trkpt lat="60.1030579582" lon="30.1115608402"><ele>28.98</ele><time>2026-04-14T17:27:54Z</time></trkpt><trkpt lat="60.1030574553" lon="30.1115698088"><ele>27.53</ele><time>2026-04-14T17:27:57Z</time></trkpt><trkpt lat="60.1030577905" lon="30.1115745865"><ele>28.98</ele><time>2026-04-14T17:27:58Z</time></trkpt><trkpt lat="60.1030514203" lon="30.1116128080"><ele>29.46</ele><time>2026-04-14T17:28:14Z</time></trkpt><trkpt lat="60.1030473132" lon="30.1116120536"><ele>28.02</ele><time>2026-04-14T17:28:16Z</time></trkpt><trkpt lat="60.1030294597" lon="30.1116155740"><ele>28.02</ele><time>2026-04-14T17:28:33Z</time></trkpt><trkpt lat="60.1030252688" lon="30.1116064377"><ele>28.02</ele><time>2026-04-14T17:28:49Z</time></trkpt><trkpt lat="60.1030216645" lon="30.1116063539"><ele>28.02</ele><time>2026-04-14T17:29:10Z</time></trkpt><trkpt lat="60.1030231733" lon="30.1116000675"><ele>27.53</ele><time>2026-04-14T17:29:25Z</time></trkpt><trkpt lat="60.1030228380" lon="30.1115978044"><ele>27.53</ele><time>2026-04-14T17:29:49Z</time></trkpt><trkpt lat="60.1030106004" lon="30.1115891710"><ele>27.53</ele><time>2026-04-14T17:30:01Z</time></trkpt><trkpt lat="60.1030133665" lon="30.1115683001"><ele>27.53</ele><time>2026-04-14T17:30:22Z</time></trkpt><trkpt lat="60.1030317228" lon="30.1116131432"><ele>28.98</ele><time>2026-04-14T17:30:32Z</time></trkpt><trkpt lat="60.1030394342" lon="30.1116029173"><ele>28.98</ele><time>2026-04-14T17:30:46Z</time></trkpt><trkpt lat="60.1030352432" lon="30.1115938649"><ele>28.98</ele><time>2026-04-14T17:30:59Z</time></trkpt><trkpt lat="60.1030133665" lon="30.1115906797"><ele>28.98</ele><time>2026-04-14T17:31:29Z</time></trkpt><trkpt lat="60.1030065771" lon="30.1115680486"><ele>28.98</ele><time>2026-04-14T17:31:45Z</time></trkpt><trkpt lat="60.1029958483" lon="30.1112637017"><ele>27.53</ele><time>2026-04-14T17:32:02Z</time></trkpt><trkpt lat="60.1031366643" lon="30.1109741908"><ele>27.05</ele><time>2026-04-14T17:32:19Z</time></trkpt><trkpt lat="60.1032739598" lon="30.1108247414"><ele>26.57</ele><time>2026-04-14T17:32:34Z</time></trkpt><trkpt lat="60.1034825854" lon="30.1107214764"><ele>26.09</ele><time>2026-04-14T17:32:49Z</time></trkpt><trkpt lat="60.1036731899" lon="30.1105081569"><ele>24.65</ele><time>2026-04-14T17:33:10Z</time></trkpt><trkpt lat="60.1038268302" lon="30.1103898883"><ele>24.65</ele><time>2026-04-14T17:33:20Z</time></trkpt><trkpt lat="60.1040476933" lon="30.1102580409"><ele>24.17</ele><time>2026-04-14T17:33:37Z</time></trkpt><trkpt lat="60.1042352803" lon="30.1100013033"><ele>22.73</ele><time>2026-04-14T17:34:04Z</time></trkpt><trkpt lat="60.1043258887" lon="30.1099397801"><ele>21.29</ele><time>2026-04-14T17:34:11Z</time></trkpt><trkpt lat="60.1043685526" lon="30.1099036541"><ele>22.73</ele><time>2026-04-14T17:34:13Z</time></trkpt><trkpt lat="60.1044764277" lon="30.1098125428"><ele>21.29</ele><time>2026-04-14T17:34:21Z</time></trkpt><trkpt lat="60.1046713907" lon="30.1096697990"><ele>20.81</ele><time>2026-04-14T17:34:39Z</time></trkpt><trkpt lat="60.1047288906" lon="30.1096230280"><ele>20.32</ele><time>2026-04-14T17:34:43Z</time></trkpt><trkpt lat="60.1048738137" lon="30.1096652728"><ele>19.84</ele><time>2026-04-14T17:34:50Z</time></trkpt><trkpt lat="60.1049810182" lon="30.1098198351"><ele>20.81</ele><time>2026-04-14T17:35:05Z</time></trkpt><trkpt lat="60.1050010510" lon="30.1098186616"><ele>20.81</ele><time>2026-04-14T17:35:25Z</time></trkpt><trkpt lat="60.1050011348" lon="30.1098171528"><ele>19.36</ele><time>2026-04-14T17:35:56Z</time></trkpt><trkpt lat="60.1050028112" lon="30.1098037418"><ele>20.32</ele><time>2026-04-14T17:36:23Z</time></trkpt><trkpt lat="60.1050050743" lon="30.1097986288"><ele>18.88</ele><time>2026-04-14T17:36:47Z</time></trkpt><trkpt lat="60.1050124504" lon="30.1095380355"><ele>18.88</ele><time>2026-04-14T17:37:03Z</time></trkpt><trkpt lat="60.1049719658" lon="30.1095343474"><ele>18.88</ele><time>2026-04-14T17:37:06Z</time></trkpt><trkpt lat="60.1048743166" lon="30.1095256303"><ele>18.88</ele><time>2026-04-14T17:37:21Z</time></trkpt><trkpt lat="60.1047169045" lon="30.1096167415"><ele>18.88</ele><time>2026-04-14T17:37:39Z</time></trkpt><trkpt lat="60.1045162417" lon="30.1097765006"><ele>20.32</ele><time>2026-04-14T17:37:58Z</time></trkpt><trkpt lat="60.1043445803" lon="30.1099335775"><ele>21.29</ele><time>2026-04-14T17:38:16Z</time></trkpt><trkpt lat="60.1042040996" lon="30.1100456435"><ele>21.29</ele><time>2026-04-14T17:38:31Z</time></trkpt><trkpt lat="60.1040551532" lon="30.1101420354"><ele>22.25</ele><time>2026-04-14T17:38:48Z</time></trkpt><trkpt lat="60.1038947236" lon="30.1102962624"><ele>22.25</ele><time>2026-04-14T17:39:05Z</time></trkpt><trkpt lat="60.1037483755" lon="30.1104224101"><ele>22.25</ele><time>2026-04-14T17:39:22Z</time></trkpt><trkpt lat="60.1036179531" lon="30.1105475519"><ele>22.73</ele><time>2026-04-14T17:39:38Z</time></trkpt><trkpt lat="60.1034697611" lon="30.1106541697"><ele>22.73</ele><time>2026-04-14T17:39:54Z</time></trkpt><trkpt lat="60.1033177972" lon="30.1107518189"><ele>22.73</ele><time>2026-04-14T17:40:10Z</time></trkpt><trkpt lat="60.1031864528" lon="30.1108606998"><ele>23.21</ele><time>2026-04-14T17:40:25Z</time></trkpt><trkpt lat="60.1030613109" lon="30.1109852549"><ele>23.69</ele><time>2026-04-14T17:40:41Z</time></trkpt><trkpt lat="60.1030419488" lon="30.1110651344"><ele>23.69</ele><time>2026-04-14T17:41:01Z</time></trkpt><trkpt lat="60.1031164639" lon="30.1110262424"><ele>23.69</ele><time>2026-04-14T17:41:16Z</time></trkpt><trkpt lat="60.1031773165" lon="30.1110021863"><ele>23.69</ele><time>2026-04-14T17:41:33Z</time></trkpt><trkpt lat="60.1032426115" lon="30.1109772082"><ele>23.69</ele><time>2026-04-14T17:41:50Z</time></trkpt><trkpt lat="60.1032907236" lon="30.1108712610"><ele>23.69</ele><time>2026-04-14T17:42:03Z</time></trkpt><trkpt lat="60.1032825932" lon="30.1108293515"><ele>23.69</ele><time>2026-04-14T17:42:20Z</time></trkpt><trkpt lat="60.1032740436" lon="30.1107925549"><ele>23.69</ele><time>2026-04-14T17:42:39Z</time></trkpt><trkpt lat="60.1032781508" lon="30.1107581891"><ele>23.69</ele><time>2026-04-14T17:42:53Z</time></trkpt><trkpt lat="60.1032913942" lon="30.1107477117"><ele>23.69</ele><time>2026-04-14T17:43:08Z</time></trkpt><trkpt lat="60.1032918971" lon="30.1107495558"><ele>22.25</ele><time>2026-04-14T17:43:10Z</time></trkpt><trkpt lat="60.1032947470" lon="30.1107493043"><ele>24.17</ele><time>2026-04-14T17:43:26Z</time></trkpt><trkpt lat="60.1032949984" lon="30.1107484661"><ele>22.73</ele><time>2026-04-14T17:43:28Z</time></trkpt><trkpt lat="60.1032949146" lon="30.1107468735"><ele>21.29</ele><time>2026-04-14T17:43:33Z</time></trkpt><trkpt lat="60.1032949146" lon="30.1107462030"><ele>22.73</ele><time>2026-04-14T17:43:35Z</time></trkpt><trkpt lat="60.1032955851" lon="30.1107458677"><ele>24.65</ele><time>2026-04-14T17:43:37Z</time></trkpt><trkpt lat="60.1032957528" lon="30.1107412577"><ele>22.73</ele><time>2026-04-14T17:43:39Z</time></trkpt><trkpt lat="60.1033066493" lon="30.1106907986"><ele>22.73</ele><time>2026-04-14T17:43:53Z</time></trkpt><trkpt lat="60.1033088285" lon="30.1106470451"><ele>22.73</ele><time>2026-04-14T17:44:06Z</time></trkpt><trkpt lat="60.1032918971" lon="30.1106067281"><ele>21.77</ele><time>2026-04-14T17:44:24Z</time></trkpt><trkpt lat="60.1032375824" lon="30.1105704345"><ele>21.77</ele><time>2026-04-14T17:44:38Z</time></trkpt><trkpt lat="60.1032349840" lon="30.1105626393"><ele>21.77</ele><time>2026-04-14T17:44:53Z</time></trkpt><trkpt lat="60.1032165438" lon="30.1106872782"><ele>21.77</ele><time>2026-04-14T17:45:07Z</time></trkpt><trkpt lat="60.1032169629" lon="30.1107163634"><ele>22.73</ele><time>2026-04-14T17:45:11Z</time></trkpt><trkpt lat="60.1032193098" lon="30.1107361447"><ele>22.73</ele><time>2026-04-14T17:45:13Z</time></trkpt><trkpt lat="60.1032485627" lon="30.1107779704"><ele>23.21</ele><time>2026-04-14T17:45:28Z</time></trkpt><trkpt lat="60.1032250095" lon="30.1107998472"><ele>23.21</ele><time>2026-04-14T17:45:49Z</time></trkpt><trkpt lat="60.1032189745" lon="30.1107695885"><ele>23.21</ele><time>2026-04-14T17:46:09Z</time></trkpt><trkpt lat="60.1032286976" lon="30.1108051278"><ele>23.21</ele><time>2026-04-14T17:46:23Z</time></trkpt><trkpt lat="60.1032624766" lon="30.1108227298"><ele>23.21</ele><time>2026-04-14T17:46:36Z</time></trkpt><trkpt lat="60.1032167953" lon="30.1106661558"><ele>22.25</ele><time>2026-04-14T17:46:51Z</time></trkpt><trkpt lat="60.1032093354" lon="30.1104560215"><ele>21.77</ele><time>2026-04-14T17:47:06Z</time></trkpt><trkpt lat="60.1032022107" lon="30.1104043890"><ele>21.29</ele><time>2026-04-14T17:47:29Z</time></trkpt><trkpt lat="60.1031703595" lon="30.1102872100"><ele>20.81</ele><time>2026-04-14T17:47:44Z</time></trkpt><trkpt lat="60.1031693537" lon="30.1102199871"><ele>21.29</ele><time>2026-04-14T17:47:57Z</time></trkpt><trkpt lat="60.1031695213" lon="30.1102401875"><ele>21.29</ele><time>2026-04-14T17:48:12Z</time></trkpt><trkpt lat="60.1031944156" lon="30.1103393454"><ele>21.29</ele><time>2026-04-14T17:48:17Z</time></trkpt><trkpt lat="60.1032105926" lon="30.1103864517"><ele>21.29</ele><time>2026-04-14T17:48:20Z</time></trkpt><trkpt lat="60.1032566931" lon="30.1106020343"><ele>21.29</ele><time>2026-04-14T17:48:30Z</time></trkpt><trkpt lat="60.1033010334" lon="30.1106974203"><ele>21.77</ele><time>2026-04-14T17:48:37Z</time></trkpt><trkpt lat="60.1033471338" lon="30.1107554231"><ele>21.77</ele><time>2026-04-14T17:48:44Z</time></trkpt><trkpt lat="60.1034887880" lon="30.1107309479"><ele>21.77</ele><time>2026-04-14T17:48:59Z</time></trkpt><trkpt lat="60.1035997644" lon="30.1106685866"><ele>20.81</ele><time>2026-04-14T17:49:11Z</time></trkpt><trkpt lat="60.1036734413" lon="30.1106156129"><ele>20.81</ele><time>2026-04-14T17:49:16Z</time></trkpt><trkpt lat="60.1038005110" lon="30.1105509046"><ele>20.32</ele><time>2026-04-14T17:49:27Z</time></trkpt><trkpt lat="60.1038461924" lon="30.1105015352"><ele>19.84</ele><time>2026-04-14T17:49:30Z</time></trkpt><trkpt lat="60.1039981563" lon="30.1103459671"><ele>19.84</ele><time>2026-04-14T17:49:43Z</time></trkpt><trkpt lat="60.1040720847" lon="30.1102718711"><ele>19.36</ele><time>2026-04-14T17:49:49Z</time></trkpt><trkpt lat="60.1041179337" lon="30.1102312189"><ele>18.88</ele><time>2026-04-14T17:49:52Z</time></trkpt><trkpt lat="60.1042803749" lon="30.1101403590"><ele>17.92</ele><time>2026-04-14T17:50:09Z</time></trkpt><trkpt lat="60.1042984799" lon="30.1101246849"><ele>17.44</ele><time>2026-04-14T17:50:12Z</time></trkpt><trkpt lat="60.1044057682" lon="30.1100109424"><ele>16.48</ele><time>2026-04-14T17:50:25Z</time></trkpt><trkpt lat="60.1045406330" lon="30.1098876446"><ele>15.52</ele><time>2026-04-14T17:50:36Z</time></trkpt><trkpt lat="60.1046016533" lon="30.1098209247"><ele>15.52</ele><time>2026-04-14T17:50:39Z</time></trkpt><trkpt lat="60.1046372764" lon="30.1097968686"><ele>15.04</ele><time>2026-04-14T17:50:41Z</time></trkpt><trkpt lat="60.1048412919" lon="30.1097389497"><ele>14.56</ele><time>2026-04-14T17:50:53Z</time></trkpt><trkpt lat="60.1049452275" lon="30.1098878961"><ele>14.56</ele><time>2026-04-14T17:51:08Z</time></trkpt><trkpt lat="60.1049534418" lon="30.1099108625"><ele>14.56</ele><time>2026-04-14T17:51:24Z</time></trkpt><trkpt lat="60.1049870532" lon="30.1099539455"><ele>14.56</ele><time>2026-04-14T17:51:39Z</time></trkpt><trkpt lat="60.1049888134" lon="30.1099430490"><ele>15.52</ele><time>2026-04-14T17:51:49Z</time></trkpt><trkpt lat="60.1050064992" lon="30.1099164784"><ele>15.52</ele><time>2026-04-14T17:52:14Z</time></trkpt><trkpt lat="60.1050208323" lon="30.1099060848"><ele>14.56</ele><time>2026-04-14T17:52:35Z</time></trkpt><trkpt lat="60.1050171442" lon="30.1098922547"><ele>14.56</ele><time>2026-04-14T17:52:58Z</time></trkpt><trkpt lat="60.1050133724" lon="30.1098789275"><ele>14.56</ele><time>2026-04-14T17:53:23Z</time></trkpt><trkpt lat="60.1050010510" lon="30.1098712161"><ele>14.56</ele><time>2026-04-14T17:53:39Z</time></trkpt><trkpt lat="60.1049958542" lon="30.1098228525"><ele>14.56</ele><time>2026-04-14T17:54:09Z</time></trkpt><trkpt lat="60.1049940940" lon="30.1097958628"><ele>14.56</ele><time>2026-04-14T17:54:32Z</time></trkpt><trkpt lat="60.1049940940" lon="30.1097745728"><ele>14.56</ele><time>2026-04-14T17:55:02Z</time></trkpt><trkpt lat="60.1049877238" lon="30.1097679511"><ele>14.56</ele><time>2026-04-14T17:55:32Z</time></trkpt><trkpt lat="60.1049837843" lon="30.1097558811"><ele>14.56</ele><time>2026-04-14T17:55:59Z</time></trkpt><trkpt lat="60.1049917471" lon="30.1097416319"><ele>14.56</ele><time>2026-04-14T17:56:28Z</time></trkpt><trkpt lat="60.1049913280" lon="30.1097414643"><ele>15.04</ele><time>2026-04-14T17:56:38Z</time></trkpt><trkpt lat="60.1049912442" lon="30.1097413804"><ele>15.04</ele><time>2026-04-14T17:57:01Z</time></trkpt><trkpt lat="60.1049891487" lon="30.1097473316"><ele>15.04</ele><time>2026-04-14T17:57:31Z</time></trkpt><trkpt lat="60.1049917471" lon="30.1097894926"><ele>15.04</ele><time>2026-04-14T17:58:05Z</time></trkpt><trkpt lat="60.1050021406" lon="30.1097885706"><ele>15.04</ele><time>2026-04-14T17:58:27Z</time></trkpt><trkpt lat="60.1050168928" lon="30.1097392850"><ele>15.04</ele><time>2026-04-14T17:58:53Z</time></trkpt><trkpt lat="60.1050178148" lon="30.1097504329"><ele>15.04</ele><time>2026-04-14T17:59:11Z</time></trkpt><trkpt lat="60.1050214190" lon="30.1097511034"><ele>15.04</ele><time>2026-04-14T17:59:29Z</time></trkpt><trkpt lat="60.1050206646" lon="30.1097619161"><ele>15.04</ele><time>2026-04-14T17:59:57Z</time></trkpt><trkpt lat="60.1050121151" lon="30.1098848786"><ele>15.04</ele><time>2026-04-14T18:00:13Z</time></trkpt><trkpt lat="60.1050162222" lon="30.1098818611"><ele>15.04</ele><time>2026-04-14T18:00:24Z</time></trkpt><trkpt lat="60.1050108578" lon="30.1099184901"><ele>15.04</ele><time>2026-04-14T18:00:26Z</time></trkpt><trkpt lat="60.1049987879" lon="30.1100857928"><ele>15.04</ele><time>2026-04-14T18:00:41Z</time></trkpt><trkpt lat="60.1049997099" lon="30.1100877207"><ele>15.04</ele><time>2026-04-14T18:00:43Z</time></trkpt><trkpt lat="60.1050271187" lon="30.1098492555"><ele>15.04</ele><time>2026-04-14T18:01:00Z</time></trkpt><trkpt lat="60.1050233468" lon="30.1098084357"><ele>15.04</ele><time>2026-04-14T18:01:18Z</time></trkpt><trkpt lat="60.1050286274" lon="30.1098055858"><ele>15.04</ele><time>2026-04-14T18:01:31Z</time></trkpt><trkpt lat="60.1050216705" lon="30.1098931767"><ele>15.04</ele><time>2026-04-14T18:01:45Z</time></trkpt><trkpt lat="60.1050072536" lon="30.1100544445"><ele>15.04</ele><time>2026-04-14T18:01:59Z</time></trkpt><trkpt lat="60.1049991231" lon="30.1101060770"><ele>15.04</ele><time>2026-04-14T18:02:11Z</time></trkpt><trkpt lat="60.1050027274" lon="30.1100623235"><ele>15.04</ele><time>2026-04-14T18:02:23Z</time></trkpt><trkpt lat="60.1050312258" lon="30.1098473277"><ele>15.04</ele><time>2026-04-14T18:02:40Z</time></trkpt><trkpt lat="60.1050254423" lon="30.1098244451"><ele>13.12</ele><time>2026-04-14T18:02:48Z</time></trkpt><trkpt lat="60.1050422899" lon="30.1098138001"><ele>13.12</ele><time>2026-04-14T18:03:20Z</time></trkpt><trkpt lat="60.1050489116" lon="30.1097857207"><ele>13.12</ele><time>2026-04-14T18:03:45Z</time></trkpt><trkpt lat="60.1050429605" lon="30.1097831223"><ele>14.56</ele><time>2026-04-14T18:04:04Z</time></trkpt><trkpt lat="60.1050375123" lon="30.1097882353"><ele>14.56</ele><time>2026-04-14T18:04:19Z</time></trkpt><trkpt lat="60.1050450560" lon="30.1097884867"><ele>14.56</ele><time>2026-04-14T18:04:40Z</time></trkpt><trkpt lat="60.1050415356" lon="30.1098850463"><ele>14.56</ele><time>2026-04-14T18:04:53Z</time></trkpt><trkpt lat="60.1050414518" lon="30.1099163946"><ele>14.56</ele><time>2026-04-14T18:05:15Z</time></trkpt><trkpt lat="60.1050485764" lon="30.1098700427"><ele>14.56</ele><time>2026-04-14T18:05:31Z</time></trkpt><trkpt lat="60.1050466485" lon="30.1098418795"><ele>14.56</ele><time>2026-04-14T18:05:50Z</time></trkpt><trkpt lat="60.1050516777" lon="30.1098402869"><ele>14.56</ele><time>2026-04-14T18:06:11Z</time></trkpt><trkpt lat="60.1050546113" lon="30.1098257862"><ele>14.56</ele><time>2026-04-14T18:06:33Z</time></trkpt><trkpt lat="60.1050608978" lon="30.1098228525"><ele>13.12</ele><time>2026-04-14T18:06:47Z</time></trkpt><trkpt lat="60.1050582156" lon="30.1098221820"><ele>14.56</ele><time>2026-04-14T18:07:17Z</time></trkpt><trkpt lat="60.1050614007" lon="30.1098243613"><ele>14.08</ele><time>2026-04-14T18:07:52Z</time></trkpt><trkpt lat="60.1050586347" lon="30.1098060049"><ele>14.08</ele><time>2026-04-14T18:08:18Z</time></trkpt><trkpt lat="60.1050603949" lon="30.1098071784"><ele>14.08</ele><time>2026-04-14T18:08:44Z</time></trkpt><trkpt lat="60.1050629932" lon="30.1098164823"><ele>14.08</ele><time>2026-04-14T18:09:16Z</time></trkpt><trkpt lat="60.1050640829" lon="30.1098096929"><ele>14.08</ele><time>2026-04-14T18:09:39Z</time></trkpt><trkpt lat="60.1050591376" lon="30.1098084357"><ele>14.56</ele><time>2026-04-14T18:10:03Z</time></trkpt><trkpt lat="60.1050394401" lon="30.1099071745"><ele>15.04</ele><time>2026-04-14T18:10:19Z</time></trkpt><trkpt lat="60.1050102711" lon="30.1100883912"><ele>15.52</ele><time>2026-04-14T18:10:34Z</time></trkpt><trkpt lat="60.1050185692" lon="30.1100939233"><ele>15.52</ele><time>2026-04-14T18:10:55Z</time></trkpt><trkpt lat="60.1050299685" lon="30.1100525167"><ele>15.52</ele><time>2026-04-14T18:11:07Z</time></trkpt><trkpt lat="60.1050180662" lon="30.1097394526"><ele>15.52</ele><time>2026-04-14T18:11:21Z</time></trkpt><trkpt lat="60.1049467362" lon="30.1094906777"><ele>14.56</ele><time>2026-04-14T18:11:36Z</time></trkpt><trkpt lat="60.1049445570" lon="30.1094869059"><ele>14.56</ele><time>2026-04-14T18:11:56Z</time></trkpt><trkpt lat="60.1049310621" lon="30.1094454993"><ele>14.56</ele><time>2026-04-14T18:12:25Z</time></trkpt><trkpt lat="60.1049394440" lon="30.1094840560"><ele>14.56</ele><time>2026-04-14T18:12:47Z</time></trkpt><trkpt lat="60.1049253624" lon="30.1095076092"><ele>14.08</ele><time>2026-04-14T18:13:08Z</time></trkpt><trkpt lat="60.1049149688" lon="30.1095307432"><ele>14.08</ele><time>2026-04-14T18:13:22Z</time></trkpt><trkpt lat="60.1049047429" lon="30.1095461659"><ele>14.08</ele><time>2026-04-14T18:13:40Z</time></trkpt><trkpt lat="60.1048795134" lon="30.1095475908"><ele>15.04</ele><time>2026-04-14T18:13:55Z</time></trkpt><trkpt lat="60.1047935989" lon="30.1096203458"><ele>16.00</ele><time>2026-04-14T18:14:15Z</time></trkpt><trkpt lat="60.1047588140" lon="30.1096646860"><ele>16.00</ele><time>2026-04-14T18:14:31Z</time></trkpt><trkpt lat="60.1046603266" lon="30.1097177435"><ele>16.48</ele><time>2026-04-14T18:14:47Z</time></trkpt><trkpt lat="60.1045501884" lon="30.1098199189"><ele>16.96</ele><time>2026-04-14T18:15:01Z</time></trkpt><trkpt lat="60.1045281440" lon="30.1098468248"><ele>16.96</ele><time>2026-04-14T18:15:03Z</time></trkpt><trkpt lat="60.1042906847" lon="30.1100533549"><ele>18.40</ele><time>2026-04-14T18:15:19Z</time></trkpt><trkpt lat="60.1041436661" lon="30.1101844478"><ele>19.36</ele><time>2026-04-14T18:15:34Z</time></trkpt><trkpt lat="60.1040124893" lon="30.1102859527"><ele>19.84</ele><time>2026-04-14T18:15:47Z</time></trkpt><trkpt lat="60.1039062906" lon="30.1103711128"><ele>19.84</ele><time>2026-04-14T18:15:57Z</time></trkpt><trkpt lat="60.1037529018" lon="30.1104992721"><ele>20.32</ele><time>2026-04-14T18:16:11Z</time></trkpt><trkpt lat="60.1037378982" lon="30.1105139405"><ele>20.32</ele><time>2026-04-14T18:16:12Z</time></trkpt><trkpt lat="60.1035621297" lon="30.1106652338"><ele>20.32</ele><time>2026-04-14T18:16:29Z</time></trkpt><trkpt lat="60.1033840142" lon="30.1107772160"><ele>20.32</ele><time>2026-04-14T18:16:45Z</time></trkpt><trkpt lat="60.1033211499" lon="30.1108425111"><ele>21.29</ele><time>2026-04-14T18:17:04Z</time></trkpt><trkpt lat="60.1033211499" lon="30.1108365599"><ele>21.77</ele><time>2026-04-14T18:17:12Z</time></trkpt><trkpt lat="60.1033131871" lon="30.1108526532"><ele>20.32</ele><time>2026-04-14T18:17:18Z</time></trkpt><trkpt lat="60.1033072360" lon="30.1108617894"><ele>21.77</ele><time>2026-04-14T18:17:22Z</time></trkpt><trkpt lat="60.1032539271" lon="30.1108829957"><ele>20.81</ele><time>2026-04-14T18:17:51Z</time></trkpt><trkpt lat="60.1032642368" lon="30.1108709257"><ele>20.81</ele><time>2026-04-14T18:18:14Z</time></trkpt><trkpt lat="60.1033399254" lon="30.1107822452"><ele>20.81</ele><time>2026-04-14T18:18:32Z</time></trkpt><trkpt lat="60.1035279315" lon="30.1106298622"><ele>20.32</ele><time>2026-04-14T18:18:48Z</time></trkpt><trkpt lat="60.1036901213" lon="30.1104762219"><ele>19.84</ele><time>2026-04-14T18:19:06Z</time></trkpt><trkpt lat="60.1039325260" lon="30.1102843601"><ele>19.84</ele><time>2026-04-14T18:19:26Z</time></trkpt><trkpt lat="60.1040751021" lon="30.1101511717"><ele>18.88</ele><time>2026-04-14T18:19:42Z</time></trkpt><trkpt lat="60.1042958815" lon="30.1099712122"><ele>18.40</ele><time>2026-04-14T18:19:59Z</time></trkpt><trkpt lat="60.1044930238" lon="30.1097742375"><ele>17.44</ele><time>2026-04-14T18:20:17Z</time></trkpt><trkpt lat="60.1046395395" lon="30.1096429769"><ele>16.48</ele><time>2026-04-14T18:20:32Z</time></trkpt><trkpt lat="60.1048603188" lon="30.1095036697"><ele>15.52</ele><time>2026-04-14T18:20:51Z</time></trkpt><trkpt lat="60.1049593091" lon="30.1095013227"><ele>15.52</ele><time>2026-04-14T18:21:02Z</time></trkpt><trkpt lat="60.1049714629" lon="30.1095284801"><ele>15.04</ele><time>2026-04-14T18:21:15Z</time></trkpt><trkpt lat="60.1049905736" lon="30.1095621753"><ele>15.04</ele><time>2026-04-14T18:21:32Z</time></trkpt><trkpt lat="60.1049931720" lon="30.1095894165"><ele>15.04</ele><time>2026-04-14T18:21:47Z</time></trkpt><trkpt lat="60.1050003804" lon="30.1096982136"><ele>16.00</ele><time>2026-04-14T18:22:02Z</time></trkpt><trkpt lat="60.1050183177" lon="30.1098326594"><ele>16.00</ele><time>2026-04-14T18:22:16Z</time></trkpt><trkpt lat="60.1050197426" lon="30.1099148858"><ele>16.48</ele><time>2026-04-14T18:22:36Z</time></trkpt><trkpt lat="60.1050132886" lon="30.1098194160"><ele>16.48</ele><time>2026-04-14T18:22:51Z</time></trkpt><trkpt lat="60.1050323155" lon="30.1097433921"><ele>16.48</ele><time>2026-04-14T18:23:06Z</time></trkpt><trkpt lat="60.1050294656" lon="30.1097463258"><ele>16.48</ele><time>2026-04-14T18:23:22Z</time></trkpt><trkpt lat="60.1050220896" lon="30.1097444817"><ele>16.48</ele><time>2026-04-14T18:23:46Z</time></trkpt><trkpt lat="60.1050127856" lon="30.1097798534"><ele>15.04</ele><time>2026-04-14T18:24:13Z</time></trkpt><trkpt lat="60.1050140429" lon="30.1097964495"><ele>15.04</ele><time>2026-04-14T18:24:34Z</time></trkpt><trkpt lat="60.1050190721" lon="30.1098003890"><ele>15.04</ele><time>2026-04-14T18:24:51Z</time></trkpt><trkpt lat="60.1050229277" lon="30.1097958628"><ele>15.04</ele><time>2026-04-14T18:25:09Z</time></trkpt><trkpt lat="60.1050272025" lon="30.1097904984"><ele>15.04</ele><time>2026-04-14T18:25:25Z</time></trkpt><trkpt lat="60.1050360035" lon="30.1098008081"><ele>15.04</ele><time>2026-04-14T18:25:47Z</time></trkpt><trkpt lat="60.1050406136" lon="30.1098166499"><ele>15.04</ele><time>2026-04-14T18:26:23Z</time></trkpt><trkpt lat="60.1050335728" lon="30.1098303962"><ele>15.04</ele><time>2026-04-14T18:26:48Z</time></trkpt><trkpt lat="60.1050251909" lon="30.1098258700"><ele>15.04</ele><time>2026-04-14T18:27:07Z</time></trkpt><trkpt lat="60.1050290465" lon="30.1098086871"><ele>16.48</ele><time>2026-04-14T18:27:25Z</time></trkpt><trkpt lat="60.1050247718" lon="30.1098187454"><ele>16.48</ele><time>2026-04-14T18:27:54Z</time></trkpt><trkpt lat="60.1050246041" lon="30.1098272111"><ele>16.96</ele><time>2026-04-14T18:28:19Z</time></trkpt><trkpt lat="60.1050259452" lon="30.1098401193"><ele>16.96</ele><time>2026-04-14T18:28:45Z</time></trkpt><trkpt lat="60.1050214190" lon="30.1098185778"><ele>16.96</ele><time>2026-04-14T18:29:11Z</time></trkpt><trkpt lat="60.1050184853" lon="30.1098131295"><ele>16.48</ele><time>2026-04-14T18:29:25Z</time></trkpt><trkpt lat="60.1050181501" lon="30.1098123752"><ele>18.40</ele><time>2026-04-14T18:29:39Z</time></trkpt><trkpt lat="60.1050175633" lon="30.1098112017"><ele>16.96</ele><time>2026-04-14T18:29:41Z</time></trkpt><trkpt lat="60.1050045714" lon="30.1098245289"><ele>16.96</ele><time>2026-04-14T18:30:06Z</time></trkpt><trkpt lat="60.1049948484" lon="30.1098365989"><ele>16.96</ele><time>2026-04-14T18:30:29Z</time></trkpt><trkpt lat="60.1049899030" lon="30.1098475792"><ele>16.96</ele><time>2026-04-14T18:30:56Z</time></trkpt><trkpt lat="60.1049956027" lon="30.1098350063"><ele>16.96</ele><time>2026-04-14T18:31:21Z</time></trkpt><trkpt lat="60.1049971115" lon="30.1098413765"><ele>16.96</ele><time>2026-04-14T18:31:40Z</time></trkpt><trkpt lat="60.1050023083" lon="30.1098578889"><ele>16.96</ele><time>2026-04-14T18:32:00Z</time></trkpt><trkpt lat="60.1050032303" lon="30.1098741498"><ele>16.96</ele><time>2026-04-14T18:32:30Z</time></trkpt><trkpt lat="60.1050021406" lon="30.1098583918"><ele>16.96</ele><time>2026-04-14T18:32:47Z</time></trkpt><trkpt lat="60.1050054096" lon="30.1098417118"><ele>16.96</ele><time>2026-04-14T18:33:10Z</time></trkpt><trkpt lat="60.1050085109" lon="30.1098466571"><ele>16.96</ele><time>2026-04-14T18:33:37Z</time></trkpt><trkpt lat="60.1050122827" lon="30.1098461542"><ele>18.40</ele><time>2026-04-14T18:34:04Z</time></trkpt><trkpt lat="60.1050137077" lon="30.1098546200"><ele>16.96</ele><time>2026-04-14T18:34:20Z</time></trkpt><trkpt lat="60.1050139591" lon="30.1098543685"><ele>18.40</ele><time>2026-04-14T18:34:22Z</time></trkpt><trkpt lat="60.1050149649" lon="30.1098536979"><ele>20.32</ele><time>2026-04-14T18:34:28Z</time></trkpt><trkpt lat="60.1050153840" lon="30.1098528598"><ele>16.96</ele><time>2026-04-14T18:34:31Z</time></trkpt><trkpt lat="60.1050167251" lon="30.1098516863"><ele>16.96</ele><time>2026-04-14T18:34:35Z</time></trkpt><trkpt lat="60.1050160546" lon="30.1098511834"><ele>19.84</ele><time>2026-04-14T18:34:38Z</time></trkpt><trkpt lat="60.1050136238" lon="30.1098524407"><ele>18.88</ele><time>2026-04-14T18:34:41Z</time></trkpt><trkpt lat="60.1049997099" lon="30.1098614093"><ele>18.40</ele><time>2026-04-14T18:35:09Z</time></trkpt><trkpt lat="60.1050002966" lon="30.1098661032"><ele>18.40</ele><time>2026-04-14T18:35:27Z</time></trkpt><trkpt lat="60.1049939264" lon="30.1098601520"><ele>19.84</ele><time>2026-04-14T18:35:51Z</time></trkpt><trkpt lat="60.1049977820" lon="30.1099182386"><ele>19.84</ele><time>2026-04-14T18:36:04Z</time></trkpt><trkpt lat="60.1050350815" lon="30.1097765006"><ele>19.84</ele><time>2026-04-14T18:36:19Z</time></trkpt><trkpt lat="60.1050255261" lon="30.1096750796"><ele>19.84</ele><time>2026-04-14T18:36:31Z</time></trkpt><trkpt lat="60.1050353330" lon="30.1096482575"><ele>18.88</ele><time>2026-04-14T18:36:48Z</time></trkpt><trkpt lat="60.1050250232" lon="30.1096834615"><ele>18.88</ele><time>2026-04-14T18:37:05Z</time></trkpt><trkpt lat="60.1050266996" lon="30.1097057573"><ele>18.88</ele><time>2026-04-14T18:37:17Z</time></trkpt><trkpt lat="60.1050165575" lon="30.1096897479"><ele>18.88</ele><time>2026-04-14T18:37:31Z</time></trkpt><trkpt lat="60.1050008833" lon="30.1095728204"><ele>18.88</ele><time>2026-04-14T18:37:49Z</time></trkpt><trkpt lat="60.1049116999" lon="30.1095625944"><ele>18.88</ele><time>2026-04-14T18:38:03Z</time></trkpt><trkpt lat="60.1048808545" lon="30.1095838007"><ele>18.88</ele><time>2026-04-14T18:38:19Z</time></trkpt><trkpt lat="60.1048705447" lon="30.1095986366"><ele>18.88</ele><time>2026-04-14T18:38:21Z</time></trkpt><trkpt lat="60.1047716383" lon="30.1096485928"><ele>18.88</ele><time>2026-04-14T18:38:33Z</time></trkpt><trkpt lat="60.1046451554" lon="30.1097320765"><ele>20.32</ele><time>2026-04-14T18:38:48Z</time></trkpt><trkpt lat="60.1045871526" lon="30.1098135486"><ele>20.32</ele><time>2026-04-14T18:39:20Z</time></trkpt><trkpt lat="60.1045362744" lon="30.1098505128"><ele>21.29</ele><time>2026-04-14T18:39:35Z</time></trkpt><trkpt lat="60.1044120546" lon="30.1099498384"><ele>22.25</ele><time>2026-04-14T18:39:48Z</time></trkpt><trkpt lat="60.1042559836" lon="30.1100937556"><ele>22.73</ele><time>2026-04-14T18:40:01Z</time></trkpt><trkpt lat="60.1041947957" lon="30.1101335697"><ele>22.73</ele><time>2026-04-14T18:40:05Z</time></trkpt><trkpt lat="60.1039810572" lon="30.1103083324"><ele>22.73</ele><time>2026-04-14T18:40:20Z</time></trkpt><trkpt lat="60.1038000919" lon="30.1104664151"><ele>23.21</ele><time>2026-04-14T18:40:35Z</time></trkpt><trkpt lat="60.1036513131" lon="30.1106025372"><ele>23.69</ele><time>2026-04-14T18:40:50Z</time></trkpt><trkpt lat="60.1035348047" lon="30.1107424311"><ele>23.69</ele><time>2026-04-14T18:41:02Z</time></trkpt><trkpt lat="60.1033959165" lon="30.1108458638"><ele>24.17</ele><time>2026-04-14T18:41:14Z</time></trkpt><trkpt lat="60.1033430267" lon="30.1108651422"><ele>24.17</ele><time>2026-04-14T18:41:27Z</time></trkpt><trkpt lat="60.1032830961" lon="30.1108943112"><ele>24.65</ele><time>2026-04-14T18:41:46Z</time></trkpt><trkpt lat="60.1032599621" lon="30.1109140087"><ele>24.65</ele><time>2026-04-14T18:42:18Z</time></trkpt><trkpt lat="60.1032581180" lon="30.1109049562"><ele>24.65</ele><time>2026-04-14T18:42:47Z</time></trkpt><trkpt lat="60.1032540947" lon="30.1109020226"><ele>25.61</ele><time>2026-04-14T18:43:09Z</time></trkpt><trkpt lat="60.1032467186" lon="30.1108971611"><ele>25.61</ele><time>2026-04-14T18:43:31Z</time></trkpt><trkpt lat="60.1032317989" lon="30.1108924672"><ele>25.61</ele><time>2026-04-14T18:43:59Z</time></trkpt><trkpt lat="60.1032070722" lon="30.1108845044"><ele>25.61</ele><time>2026-04-14T18:44:35Z</time></trkpt><trkpt lat="60.1031730417" lon="30.1109198760"><ele>25.61</ele><time>2026-04-14T18:44:47Z</time></trkpt><trkpt lat="60.1031136140" lon="30.1109867636"><ele>25.61</ele><time>2026-04-14T18:44:54Z</time></trkpt><trkpt lat="60.1030639093" lon="30.1112667192"><ele>25.61</ele><time>2026-04-14T18:45:08Z</time></trkpt><trkpt lat="60.1030843612" lon="30.1115553081"><ele>26.09</ele><time>2026-04-14T18:45:20Z</time></trkpt><trkpt lat="60.1030965988" lon="30.1116420608"><ele>26.57</ele><time>2026-04-14T18:45:43Z</time></trkpt><trkpt lat="60.1031014603" lon="30.1116568130"><ele>22.25</ele><time>2026-04-14T18:45:57Z</time></trkpt><trkpt lat="60.1031011250" lon="30.1116592437"><ele>27.05</ele><time>2026-04-14T18:45:58Z</time></trkpt><trkpt lat="60.1031019632" lon="30.1116600819"><ele>28.02</ele><time>2026-04-14T18:46:00Z</time></trkpt><trkpt lat="60.1030976884" lon="30.1116498560"><ele>26.57</ele><time>2026-04-14T18:46:03Z</time></trkpt><trkpt lat="60.1030886360" lon="30.1116118859"><ele>26.57</ele><time>2026-04-14T18:46:13Z</time></trkpt><trkpt lat="60.1030615624" lon="30.1112860814"><ele>25.61</ele><time>2026-04-14T18:46:26Z</time></trkpt><trkpt lat="60.1030596346" lon="30.1111076307"><ele>25.13</ele><time>2026-04-14T18:46:42Z</time></trkpt><trkpt lat="60.1030754764" lon="30.1110640448"><ele>25.61</ele><time>2026-04-14T18:46:59Z</time></trkpt><trkpt lat="60.1031964272" lon="30.1108971611"><ele>24.65</ele><time>2026-04-14T18:47:13Z</time></trkpt><trkpt lat="60.1032163762" lon="30.1108068880"><ele>24.65</ele><time>2026-04-14T18:47:34Z</time></trkpt><trkpt lat="60.1032697689" lon="30.1107586082"><ele>25.13</ele><time>2026-04-14T18:47:59Z</time></trkpt><trkpt lat="60.1033729501" lon="30.1107001863"><ele>25.13</ele><time>2026-04-14T18:48:08Z</time></trkpt><trkpt lat="60.1035337988" lon="30.1105774753"><ele>25.13</ele><time>2026-04-14T18:48:24Z</time></trkpt><trkpt lat="60.1035608724" lon="30.1105445344"><ele>23.69</ele><time>2026-04-14T18:48:27Z</time></trkpt><trkpt lat="60.1037453581" lon="30.1103895530"><ele>23.69</ele><time>2026-04-14T18:48:45Z</time></trkpt><trkpt lat="60.1038402412" lon="30.1103390940"><ele>23.69</ele><time>2026-04-14T18:48:54Z</time></trkpt><trkpt lat="60.1039150078" lon="30.1102587115"><ele>23.69</ele><time>2026-04-14T18:49:02Z</time></trkpt><trkpt lat="60.1040756889" lon="30.1101204939"><ele>23.69</ele><time>2026-04-14T18:49:17Z</time></trkpt><trkpt lat="60.1042264793" lon="30.1099757385"><ele>22.25</ele><time>2026-04-14T18:49:32Z</time></trkpt><trkpt lat="60.1043905132" lon="30.1098267082"><ele>21.77</ele><time>2026-04-14T18:49:49Z</time></trkpt><trkpt lat="60.1044584066" lon="30.1097781770"><ele>21.77</ele><time>2026-04-14T18:49:55Z</time></trkpt><trkpt lat="60.1046281401" lon="30.1096301526"><ele>20.81</ele><time>2026-04-14T18:50:10Z</time></trkpt><trkpt lat="60.1047858875" lon="30.1094954554"><ele>19.84</ele><time>2026-04-14T18:50:23Z</time></trkpt><trkpt lat="60.1049636677" lon="30.1094408054"><ele>19.36</ele><time>2026-04-14T18:50:37Z</time></trkpt><trkpt lat="60.1049707085" lon="30.1094522048"><ele>19.36</ele><time>2026-04-14T18:50:38Z</time></trkpt><trkpt lat="60.1049918309" lon="30.1097347587"><ele>19.36</ele><time>2026-04-14T18:50:55Z</time></trkpt><trkpt lat="60.1049982011" lon="30.1097723097"><ele>19.36</ele><time>2026-04-14T18:51:11Z</time></trkpt><trkpt lat="60.1050072536" lon="30.1098370180"><ele>19.36</ele><time>2026-04-14T18:51:26Z</time></trkpt><trkpt lat="60.1050449722" lon="30.1098938473"><ele>19.36</ele><time>2026-04-14T18:51:41Z</time></trkpt><trkpt lat="60.1050329022" lon="30.1099335775"><ele>19.36</ele><time>2026-04-14T18:51:53Z</time></trkpt><trkpt lat="60.1050501689" lon="30.1098590624"><ele>19.36</ele><time>2026-04-14T18:52:05Z</time></trkpt><trkpt lat="60.1050609816" lon="30.1098209247"><ele>19.36</ele><time>2026-04-14T18:52:19Z</time></trkpt><trkpt lat="60.1050324831" lon="30.1098475792"><ele>20.32</ele><time>2026-04-14T18:52:37Z</time></trkpt><trkpt lat="60.1049983688" lon="30.1099626627"><ele>18.88</ele><time>2026-04-14T18:52:44Z</time></trkpt></trkseg><trkseg><trkpt lat="59.9725228082" lon="30.5457268283"><ele>200.09</ele><time>2026-04-25T11:31:34Z</time></trkpt><trkpt lat="59.9723499734" lon="30.5460702349"><ele>194.32</ele><time>2026-04-25T11:31:35Z</time></trkpt><trkpt lat="59.9721737858" lon="30.5464138929"><ele>188.56</ele><time>2026-04-25T11:31:36Z</time></trkpt><trkpt lat="59.9719947483" lon="30.5467567965"><ele>182.79</ele><time>2026-04-25T11:31:37Z</time></trkpt><trkpt lat="59.9718145374" lon="30.5470874626"><ele>177.98</ele><time>2026-04-25T11:31:38Z</time></trkpt><trkpt lat="59.9716291297" lon="30.5474151112"><ele>173.66</ele><time>2026-04-25T11:31:39Z</time></trkpt><trkpt lat="59.9714417942" lon="30.5477280077"><ele>168.85</ele><time>2026-04-25T11:31:40Z</time></trkpt><trkpt lat="59.9712503515" lon="30.5480364617"><ele>163.56</ele><time>2026-04-25T11:31:41Z</time></trkpt><trkpt lat="59.9710566457" lon="30.5483368691"><ele>158.27</ele><time>2026-04-25T11:31:42Z</time></trkpt><trkpt lat="59.9708621018" lon="30.5486278888"><ele>152.99</ele><time>2026-04-25T11:31:43Z</time></trkpt><trkpt lat="59.9706647918" lon="30.5489129573"><ele>148.18</ele><time>2026-04-25T11:31:44Z</time></trkpt><trkpt lat="59.9704660568" lon="30.5491924938"><ele>143.85</ele><time>2026-04-25T11:31:45Z</time></trkpt><trkpt lat="59.9702651426" lon="30.5494620558"><ele>139.53</ele><time>2026-04-25T11:31:46Z</time></trkpt><trkpt lat="59.9700619653" lon="30.5497238226"><ele>135.68</ele><time>2026-04-25T11:31:47Z</time></trkpt><trkpt lat="59.9698558543" lon="30.5499790516"><ele>131.84</ele><time>2026-04-25T11:31:48Z</time></trkpt><trkpt lat="59.9696468934" lon="30.5502273235"><ele>127.51</ele><time>2026-04-25T11:31:49Z</time></trkpt><trkpt lat="59.9694342446" lon="30.5504684709"><ele>123.67</ele><time>2026-04-25T11:31:50Z</time></trkpt><trkpt lat="59.9692200869" lon="30.5507014878"><ele>120.30</ele><time>2026-04-25T11:31:51Z</time></trkpt><trkpt lat="59.9687864911" lon="30.5511450581"><ele>114.05</ele><time>2026-04-25T11:31:53Z</time></trkpt><trkpt lat="59.9685671367" lon="30.5513546895"><ele>110.69</ele><time>2026-04-25T11:31:54Z</time></trkpt><trkpt lat="59.9683470279" lon="30.5515590403"><ele>107.32</ele><time>2026-04-25T11:31:55Z</time></trkpt><trkpt lat="59.9681266677" lon="30.5517562665"><ele>103.48</ele><time>2026-04-25T11:31:56Z</time></trkpt><trkpt lat="59.9676839355" lon="30.5521259923"><ele>99.15</ele><time>2026-04-25T11:31:58Z</time></trkpt><trkpt lat="59.9672453105" lon="30.5524516292"><ele>94.35</ele><time>2026-04-25T11:32:00Z</time></trkpt><trkpt lat="59.9667955376" lon="30.5527397152"><ele>89.54</ele><time>2026-04-25T11:32:02Z</time></trkpt><trkpt lat="59.9663313478" lon="30.5530077685"><ele>86.18</ele><time>2026-04-25T11:32:04Z</time></trkpt><trkpt lat="59.9658545014" lon="30.5532454792"><ele>81.85</ele><time>2026-04-25T11:32:06Z</time></trkpt><trkpt lat="59.9653673451" lon="30.5534377601"><ele>78.00</ele><time>2026-04-25T11:32:08Z</time></trkpt><trkpt lat="59.9648780935" lon="30.5535965133"><ele>73.68</ele><time>2026-04-25T11:32:10Z</time></trkpt><trkpt lat="59.9643870816" lon="30.5537334736"><ele>69.35</ele><time>2026-04-25T11:32:12Z</time></trkpt><trkpt lat="59.9636365660" lon="30.5538581964"><ele>65.51</ele><time>2026-04-25T11:32:15Z</time></trkpt><trkpt lat="59.9631319754" lon="30.5538954120"><ele>61.66</ele><time>2026-04-25T11:32:17Z</time></trkpt><trkpt lat="59.9626282230" lon="30.5538916402"><ele>58.30</ele><time>2026-04-25T11:32:19Z</time></trkpt><trkpt lat="59.9618654698" lon="30.5538172927"><ele>53.49</ele><time>2026-04-25T11:32:22Z</time></trkpt><trkpt lat="59.9613574427" lon="30.5537159555"><ele>50.13</ele><time>2026-04-25T11:32:24Z</time></trkpt><trkpt lat="59.9605956953" lon="30.5535011273"><ele>45.80</ele><time>2026-04-25T11:32:27Z</time></trkpt><trkpt lat="59.9598420784" lon="30.5531859677"><ele>42.44</ele><time>2026-04-25T11:32:30Z</time></trkpt><trkpt lat="59.9591042195" lon="30.5527866539"><ele>39.07</ele><time>2026-04-25T11:32:33Z</time></trkpt><trkpt lat="59.9581399653" lon="30.5521404091"><ele>35.23</ele><time>2026-04-25T11:32:37Z</time></trkpt><trkpt lat="59.9574327841" lon="30.5515628960"><ele>33.30</ele><time>2026-04-25T11:32:40Z</time></trkpt><trkpt lat="59.9567555264" lon="30.5509281345"><ele>31.86</ele><time>2026-04-25T11:32:43Z</time></trkpt><trkpt lat="59.9558884185" lon="30.5500251520"><ele>28.50</ele><time>2026-04-25T11:32:47Z</time></trkpt><trkpt lat="59.9554597680" lon="30.5495767202"><ele>27.05</ele><time>2026-04-25T11:32:49Z</time></trkpt><trkpt lat="59.9543999601" lon="30.5484760925"><ele>24.17</ele><time>2026-04-25T11:32:54Z</time></trkpt><trkpt lat="59.9533675611" lon="30.5474009458"><ele>22.73</ele><time>2026-04-25T11:32:59Z</time></trkpt><trkpt lat="59.9512696546" lon="30.5451867823"><ele>19.36</ele><time>2026-04-25T11:33:09Z</time></trkpt><trkpt lat="59.9510541558" lon="30.5449623987"><ele>19.36</ele><time>2026-04-25T11:33:10Z</time></trkpt><trkpt lat="59.9482422788" lon="30.5423044972"><ele>18.40</ele><time>2026-04-25T11:33:23Z</time></trkpt><trkpt lat="59.9466863461" lon="30.5411924701"><ele>17.44</ele><time>2026-04-25T11:33:32Z</time></trkpt><trkpt lat="59.9454493448" lon="30.5404878873"><ele>16.48</ele><time>2026-04-25T11:33:42Z</time></trkpt><trkpt lat="59.9441785645" lon="30.5400022399"><ele>15.52</ele><time>2026-04-25T11:33:54Z</time></trkpt><trkpt lat="59.9426512141" lon="30.5395311769"><ele>16.48</ele><time>2026-04-25T11:34:07Z</time></trkpt><trkpt lat="59.9415836949" lon="30.5393203720"><ele>17.44</ele><time>2026-04-25T11:34:17Z</time></trkpt><trkpt lat="59.9409477599" lon="30.5392008461"><ele>16.48</ele><time>2026-04-25T11:34:26Z</time></trkpt></trkseg><trkseg><trkpt lat="59.4308277313" lon="29.9810585473"><ele>100.11</ele><time>2026-04-25T12:29:42Z</time></trkpt><trkpt lat="59.4297932368" lon="29.9808132928"><ele>96.75</ele><time>2026-04-25T12:29:47Z</time></trkpt><trkpt lat="59.4287605863" lon="29.9805594049"><ele>93.39</ele><time>2026-04-25T12:29:52Z</time></trkpt><trkpt lat="59.4270795956" lon="29.9801543914"><ele>90.50</ele><time>2026-04-25T12:30:00Z</time></trkpt><trkpt lat="59.4251833577" lon="29.9796900339"><ele>89.54</ele><time>2026-04-25T12:30:10Z</time></trkpt><trkpt lat="59.4244854804" lon="29.9795243237"><ele>90.98</ele><time>2026-04-25T12:30:14Z</time></trkpt><trkpt lat="59.4233614672" lon="29.9792425241"><ele>89.54</ele><time>2026-04-25T12:30:20Z</time></trkpt><trkpt lat="59.4211276062" lon="29.9786746502"><ele>86.18</ele><time>2026-04-25T12:30:32Z</time></trkpt><trkpt lat="59.4197536446" lon="29.9783429783"><ele>83.77</ele><time>2026-04-25T12:30:41Z</time></trkpt><trkpt lat="59.4177589193" lon="29.9778073747"><ele>81.85</ele><time>2026-04-25T12:30:57Z</time></trkpt><trkpt lat="59.4161006436" lon="29.9773588590"><ele>81.37</ele><time>2026-04-25T12:31:11Z</time></trkpt><trkpt lat="59.4159862306" lon="29.9773058854"><ele>81.37</ele><time>2026-04-25T12:31:12Z</time></trkpt><trkpt lat="59.4158770144" lon="29.9772276822"><ele>81.37</ele><time>2026-04-25T12:31:13Z</time></trkpt><trkpt lat="59.4157697260" lon="29.9771239143"><ele>81.37</ele><time>2026-04-25T12:31:14Z</time></trkpt><trkpt lat="59.4154335279" lon="29.9768274464"><ele>81.37</ele><time>2026-04-25T12:31:17Z</time></trkpt><trkpt lat="59.4153109845" lon="29.9767721258"><ele>81.37</ele><time>2026-04-25T12:31:18Z</time></trkpt><trkpt lat="59.4136528764" lon="29.9763044156"><ele>81.37</ele><time>2026-04-25T12:31:30Z</time></trkpt><trkpt lat="59.4118915871" lon="29.9758251384"><ele>81.37</ele><time>2026-04-25T12:31:43Z</time></trkpt><trkpt lat="59.4110042788" lon="29.9755695742"><ele>82.81</ele><time>2026-04-25T12:31:50Z</time></trkpt><trkpt lat="59.4107394107" lon="29.9756144173"><ele>83.29</ele><time>2026-04-25T12:31:52Z</time></trkpt><trkpt lat="59.4106074795" lon="29.9756695703"><ele>83.29</ele><time>2026-04-25T12:31:53Z</time></trkpt><trkpt lat="59.4102141168" lon="29.9758297484"><ele>83.77</ele><time>2026-04-25T12:31:56Z</time></trkpt><trkpt lat="59.4100764021" lon="29.9758406449"><ele>83.77</ele><time>2026-04-25T12:31:57Z</time></trkpt><trkpt lat="59.4099354185" lon="29.9758272339"><ele>83.77</ele><time>2026-04-25T12:31:58Z</time></trkpt><trkpt lat="59.4081130251" lon="29.9753820710"><ele>84.25</ele><time>2026-04-25T12:32:09Z</time></trkpt><trkpt lat="59.4052550476" lon="29.9746649992"><ele>84.25</ele><time>2026-04-25T12:32:24Z</time></trkpt><trkpt lat="59.4035882223" lon="29.9741779268"><ele>83.29</ele><time>2026-04-25T12:32:34Z</time></trkpt><trkpt lat="59.4019384962" lon="29.9735519662"><ele>84.73</ele><time>2026-04-25T12:32:46Z</time></trkpt><trkpt lat="59.4003485329" lon="29.9729192164"><ele>83.29</ele><time>2026-04-25T12:32:58Z</time></trkpt><trkpt lat="59.3985766824" lon="29.9725619797"><ele>83.29</ele><time>2026-04-25T12:33:14Z</time></trkpt><trkpt lat="59.3976049684" lon="29.9726576172"><ele>85.21</ele><time>2026-04-25T12:33:22Z</time></trkpt><trkpt lat="59.3963403068" lon="29.9723669328"><ele>88.58</ele><time>2026-04-25T12:33:30Z</time></trkpt><trkpt lat="59.3940418214" lon="29.9717493542"><ele>90.98</ele><time>2026-04-25T12:33:42Z</time></trkpt><trkpt lat="59.3932296988" lon="29.9715369567"><ele>93.39</ele><time>2026-04-25T12:33:46Z</time></trkpt><trkpt lat="59.3903668597" lon="29.9708120897"><ele>94.83</ele><time>2026-04-25T12:33:59Z</time></trkpt><trkpt lat="59.3883762415" lon="29.9702954292"><ele>98.19</ele><time>2026-04-25T12:34:08Z</time></trkpt><trkpt lat="59.3879429810" lon="29.9701843690"><ele>99.15</ele><time>2026-04-25T12:34:10Z</time></trkpt><trkpt lat="59.3849315308" lon="29.9694120605"><ele>101.08</ele><time>2026-04-25T12:34:23Z</time></trkpt><trkpt lat="59.3831890170" lon="29.9689689931"><ele>100.11</ele><time>2026-04-25T12:34:31Z</time></trkpt><trkpt lat="59.3810717482" lon="29.9684161227"><ele>99.63</ele><time>2026-04-25T12:34:42Z</time></trkpt><trkpt lat="59.3784028664" lon="29.9677190837"><ele>99.63</ele><time>2026-04-25T12:34:55Z</time></trkpt><trkpt lat="59.3755187374" lon="29.9669700768"><ele>102.52</ele><time>2026-04-25T12:35:09Z</time></trkpt><trkpt lat="59.3728485145" lon="29.9662784021"><ele>103.00</ele><time>2026-04-25T12:35:22Z</time></trkpt><trkpt lat="59.3709149770" lon="29.9657785054"><ele>103.48</ele><time>2026-04-25T12:35:32Z</time></trkpt><trkpt lat="59.3687459920" lon="29.9652065244"><ele>106.36</ele><time>2026-04-25T12:35:42Z</time></trkpt><trkpt lat="59.3683020864" lon="29.9650928658"><ele>104.92</ele><time>2026-04-25T12:35:44Z</time></trkpt><trkpt lat="59.3644143082" lon="29.9640786555"><ele>107.32</ele><time>2026-04-25T12:36:01Z</time></trkpt><trkpt lat="59.3607727904" lon="29.9631176703"><ele>105.88</ele><time>2026-04-25T12:36:16Z</time></trkpt><trkpt lat="59.3581428844" lon="29.9624140095"><ele>104.92</ele><time>2026-04-25T12:36:29Z</time></trkpt><trkpt lat="59.3563491572" lon="29.9619331397"><ele>104.44</ele><time>2026-04-25T12:36:40Z</time></trkpt><trkpt lat="59.3540726323" lon="29.9613220990"><ele>103.00</ele><time>2026-04-25T12:36:55Z</time></trkpt><trkpt lat="59.3531446718" lon="29.9610568956"><ele>101.08</ele><time>2026-04-25T12:37:03Z</time></trkpt><trkpt lat="59.3524515722" lon="29.9608565681"><ele>100.60</ele><time>2026-04-25T12:37:12Z</time></trkpt><trkpt lat="59.3513553031" lon="29.9605637882"><ele>100.11</ele><time>2026-04-25T12:37:23Z</time></trkpt><trkpt lat="59.3508699909" lon="29.9604321085"><ele>98.67</ele><time>2026-04-25T12:37:30Z</time></trkpt><trkpt lat="59.3502618838" lon="29.9602868501"><ele>98.19</ele><time>2026-04-25T12:37:41Z</time></trkpt><trkpt lat="59.3495606538" lon="29.9600995984"><ele>98.19</ele><time>2026-04-25T12:37:49Z</time></trkpt><trkpt lat="59.3482052162" lon="29.9597205687"><ele>95.79</ele><time>2026-04-25T12:38:01Z</time></trkpt><trkpt lat="59.3478485662" lon="29.9596309662"><ele>94.83</ele><time>2026-04-25T12:38:08Z</time></trkpt><trkpt lat="59.3473147228" lon="29.9594938383"><ele>96.27</ele><time>2026-04-25T12:38:14Z</time></trkpt><trkpt lat="59.3463592697" lon="29.9591920059"><ele>93.87</ele><time>2026-04-25T12:38:23Z</time></trkpt><trkpt lat="59.3452638388" lon="29.9588802829"><ele>91.46</ele><time>2026-04-25T12:38:32Z</time></trkpt><trkpt lat="59.3444942124" lon="29.9586596712"><ele>88.10</ele><time>2026-04-25T12:38:37Z</time></trkpt><trkpt lat="59.3434956763" lon="29.9584004190"><ele>84.73</ele><time>2026-04-25T12:38:43Z</time></trkpt><trkpt lat="59.3416025396" lon="29.9579176214"><ele>82.33</ele><time>2026-04-25T12:38:54Z</time></trkpt><trkpt lat="59.3394192215" lon="29.9573471490"><ele>83.29</ele><time>2026-04-25T12:39:06Z</time></trkpt><trkpt lat="59.3383693881" lon="29.9570692051"><ele>86.66</ele><time>2026-04-25T12:39:11Z</time></trkpt><trkpt lat="59.3381490279" lon="29.9570050836"><ele>86.66</ele><time>2026-04-25T12:39:12Z</time></trkpt><trkpt lat="59.3365318235" lon="29.9564213678"><ele>90.02</ele><time>2026-04-25T12:39:20Z</time></trkpt><trkpt lat="59.3354363926" lon="29.9558893684"><ele>93.39</ele><time>2026-04-25T12:39:26Z</time></trkpt><trkpt lat="59.3345454801" lon="29.9554145336"><ele>97.23</ele><time>2026-04-25T12:39:31Z</time></trkpt><trkpt lat="59.3343705498" lon="29.9553154595"><ele>97.23</ele><time>2026-04-25T12:39:32Z</time></trkpt><trkpt lat="59.3330856040" lon="29.9545682129"><ele>96.27</ele><time>2026-04-25T12:39:40Z</time></trkpt><trkpt lat="59.3310865201" lon="29.9532779027"><ele>97.71</ele><time>2026-04-25T12:39:54Z</time></trkpt><trkpt lat="59.3308276869" lon="29.9531126954"><ele>97.71</ele><time>2026-04-25T12:39:56Z</time></trkpt></trkseg><trkseg><trkpt lat="59.0560886823" lon="29.9816315342"><ele>79.93</ele><time>2026-04-25T13:24:31Z</time></trkpt><trkpt lat="59.0560573339" lon="29.9817205500"><ele>82.33</ele><time>2026-04-25T13:24:52Z</time></trkpt><trkpt lat="59.0560595971" lon="29.9816791434"><ele>83.77</ele><time>2026-04-25T13:25:03Z</time></trkpt><trkpt lat="59.0560080484" lon="29.9814903829"><ele>84.25</ele><time>2026-04-25T13:28:01Z</time></trkpt><trkpt lat="59.0560434200" lon="29.9815328792"><ele>84.25</ele><time>2026-04-25T13:28:02Z</time></trkpt><trkpt lat="59.0560655482" lon="29.9816689175"><ele>83.77</ele><time>2026-04-25T13:28:23Z</time></trkpt><trkpt lat="59.0560656320" lon="29.9816479627"><ele>81.85</ele><time>2026-04-25T13:28:44Z</time></trkpt><trkpt lat="59.0560633689" lon="29.9817038700"><ele>80.89</ele><time>2026-04-25T13:29:10Z</time></trkpt><trkpt lat="59.0560427494" lon="29.9816715997"><ele>80.89</ele><time>2026-04-25T13:29:34Z</time></trkpt><trkpt lat="59.0560495388" lon="29.9816593621"><ele>81.85</ele><time>2026-04-25T13:29:58Z</time></trkpt><trkpt lat="59.0560391452" lon="29.9816710968"><ele>81.85</ele><time>2026-04-25T13:30:26Z</time></trkpt><trkpt lat="59.0560427494" lon="29.9816600326"><ele>81.85</ele><time>2026-04-25T13:31:02Z</time></trkpt><trkpt lat="59.0560379717" lon="29.9816532433"><ele>82.81</ele><time>2026-04-25T13:31:42Z</time></trkpt><trkpt lat="59.0560339484" lon="29.9816482142"><ele>82.81</ele><time>2026-04-25T13:32:11Z</time></trkpt><trkpt lat="59.0560301766" lon="29.9816425145"><ele>82.81</ele><time>2026-04-25T13:32:46Z</time></trkpt><trkpt lat="59.0560341161" lon="29.9816453643"><ele>82.81</ele><time>2026-04-25T13:33:07Z</time></trkpt><trkpt lat="59.0560471080" lon="29.9816742819"><ele>83.29</ele><time>2026-04-25T13:33:44Z</time></trkpt><trkpt lat="59.0560544841" lon="29.9816664867"><ele>83.29</ele><time>2026-04-25T13:34:19Z</time></trkpt><trkpt lat="59.0560482815" lon="29.9816711806"><ele>81.85</ele><time>2026-04-25T13:34:51Z</time></trkpt><trkpt lat="59.0560542326" lon="29.9816933088"><ele>84.73</ele><time>2026-04-25T13:35:00Z</time></trkpt><trkpt lat="59.0560745168" lon="29.9817382358"><ele>84.73</ele><time>2026-04-25T13:35:09Z</time></trkpt><trkpt lat="59.0560470242" lon="29.9817232322"><ele>83.29</ele><time>2026-04-25T13:35:13Z</time></trkpt><trkpt lat="59.0560404863" lon="29.9817754515"><ele>83.29</ele><time>2026-04-25T13:35:16Z</time></trkpt><trkpt lat="59.0560265724" lon="29.9818420038"><ele>83.29</ele><time>2026-04-25T13:35:20Z</time></trkpt><trkpt lat="59.0560020972" lon="29.9818415008"><ele>82.81</ele><time>2026-04-25T13:35:29Z</time></trkpt><trkpt lat="59.0560385585" lon="29.9818428420"><ele>82.81</ele><time>2026-04-25T13:35:33Z</time></trkpt><trkpt lat="59.0561147500" lon="29.9819767009"><ele>82.81</ele><time>2026-04-25T13:35:48Z</time></trkpt><trkpt lat="59.0561121516" lon="29.9819988292"><ele>83.77</ele><time>2026-04-25T13:36:12Z</time></trkpt><trkpt lat="59.0561440028" lon="29.9819905311"><ele>82.81</ele><time>2026-04-25T13:36:21Z</time></trkpt><trkpt lat="59.0561978146" lon="29.9820141681"><ele>82.81</ele><time>2026-04-25T13:36:27Z</time></trkpt><trkpt lat="59.0562339406" lon="29.9820818100"><ele>82.81</ele><time>2026-04-25T13:36:34Z</time></trkpt><trkpt lat="59.0562757663" lon="29.9820353743"><ele>82.81</ele><time>2026-04-25T13:36:40Z</time></trkpt><trkpt lat="59.0563202742" lon="29.9820506293"><ele>82.81</ele><time>2026-04-25T13:36:44Z</time></trkpt><trkpt lat="59.0564053506" lon="29.9820544850"><ele>82.33</ele><time>2026-04-25T13:36:51Z</time></trkpt><trkpt lat="59.0565128066" lon="29.9820751045"><ele>82.33</ele><time>2026-04-25T13:37:01Z</time></trkpt><trkpt lat="59.0565484297" lon="29.9820694048"><ele>82.33</ele><time>2026-04-25T13:37:14Z</time></trkpt><trkpt lat="59.0565481782" lon="29.9820736796"><ele>81.85</ele><time>2026-04-25T13:37:26Z</time></trkpt><trkpt lat="59.0565724857" lon="29.9820798822"><ele>81.85</ele><time>2026-04-25T13:37:29Z</time></trkpt><trkpt lat="59.0566335898" lon="29.9820646271"><ele>81.85</ele><time>2026-04-25T13:37:34Z</time></trkpt><trkpt lat="59.0566847194" lon="29.9820222985"><ele>81.37</ele><time>2026-04-25T13:37:38Z</time></trkpt><trkpt lat="59.0567381121" lon="29.9820241425"><ele>81.37</ele><time>2026-04-25T13:37:44Z</time></trkpt><trkpt lat="59.0567653533" lon="29.9820192810"><ele>81.37</ele><time>2026-04-25T13:37:47Z</time></trkpt><trkpt lat="59.0567885712" lon="29.9820383918"><ele>81.37</ele><time>2026-04-25T13:37:51Z</time></trkpt><trkpt lat="59.0567950252" lon="29.9820751045"><ele>81.37</ele><time>2026-04-25T13:37:53Z</time></trkpt><trkpt lat="59.0568857174" lon="29.9821234681"><ele>81.37</ele><time>2026-04-25T13:38:05Z</time></trkpt><trkpt lat="59.0569069237" lon="29.9821321853"><ele>81.37</ele><time>2026-04-25T13:38:08Z</time></trkpt><trkpt lat="59.0569685306" lon="29.9821621086"><ele>81.37</ele><time>2026-04-25T13:38:13Z</time></trkpt><trkpt lat="59.0570512600" lon="29.9821747653"><ele>81.37</ele><time>2026-04-25T13:38:24Z</time></trkpt><trkpt lat="59.0570573788" lon="29.9821930379"><ele>81.85</ele><time>2026-04-25T13:38:32Z</time></trkpt><trkpt lat="59.0570712090" lon="29.9822403956"><ele>81.85</ele><time>2026-04-25T13:38:42Z</time></trkpt><trkpt lat="59.0570768248" lon="29.9822871666"><ele>81.37</ele><time>2026-04-25T13:38:46Z</time></trkpt><trkpt lat="59.0570807643" lon="29.9823243823"><ele>82.33</ele><time>2026-04-25T13:38:48Z</time></trkpt><trkpt lat="59.0570874698" lon="29.9823576584"><ele>82.33</ele><time>2026-04-25T13:38:52Z</time></trkpt><trkpt lat="59.0570817702" lon="29.9823967181"><ele>82.33</ele><time>2026-04-25T13:38:54Z</time></trkpt><trkpt lat="59.0570704546" lon="29.9824527930"><ele>82.33</ele><time>2026-04-25T13:38:57Z</time></trkpt><trkpt lat="59.0570488293" lon="29.9825351033"><ele>82.33</ele><time>2026-04-25T13:39:05Z</time></trkpt><trkpt lat="59.0570749808" lon="29.9826081097"><ele>82.33</ele><time>2026-04-25T13:39:14Z</time></trkpt><trkpt lat="59.0570990369" lon="29.9826729018"><ele>82.33</ele><time>2026-04-25T13:39:23Z</time></trkpt><trkpt lat="59.0571036469" lon="29.9826982152"><ele>82.33</ele><time>2026-04-25T13:39:25Z</time></trkpt><trkpt lat="59.0570930019" lon="29.9827653542"><ele>82.33</ele><time>2026-04-25T13:39:41Z</time></trkpt><trkpt lat="59.0570919961" lon="29.9827931821"><ele>82.33</ele><time>2026-04-25T13:40:14Z</time></trkpt><trkpt lat="59.0571142919" lon="29.9827723112"><ele>80.89</ele><time>2026-04-25T13:40:37Z</time></trkpt><trkpt lat="59.0571037307" lon="29.9827975407"><ele>80.89</ele><time>2026-04-25T13:40:43Z</time></trkpt><trkpt lat="59.0571095143" lon="29.9828615785"><ele>80.89</ele><time>2026-04-25T13:40:49Z</time></trkpt><trkpt lat="59.0571513399" lon="29.9828696251"><ele>80.89</ele><time>2026-04-25T13:40:56Z</time></trkpt><trkpt lat="59.0571890585" lon="29.9828568008"><ele>80.89</ele><time>2026-04-25T13:41:00Z</time></trkpt><trkpt lat="59.0572394338" lon="29.9828422163"><ele>80.89</ele><time>2026-04-25T13:41:11Z</time></trkpt><trkpt lat="59.0572803374" lon="29.9828669429"><ele>80.89</ele><time>2026-04-25T13:41:17Z</time></trkpt><trkpt lat="59.0573214088" lon="29.9828907475"><ele>80.89</ele><time>2026-04-25T13:41:21Z</time></trkpt><trkpt lat="59.0573510807" lon="29.9829140492"><ele>80.89</ele><time>2026-04-25T13:41:24Z</time></trkpt><trkpt lat="59.0574250929" lon="29.9830402806"><ele>80.89</ele><time>2026-04-25T13:41:36Z</time></trkpt><trkpt lat="59.0575053077" lon="29.9830661807"><ele>80.89</ele><time>2026-04-25T13:41:48Z</time></trkpt><trkpt lat="59.0575736202" lon="29.9830714613"><ele>80.89</ele><time>2026-04-25T13:42:01Z</time></trkpt><trkpt lat="59.0576187149" lon="29.9831208307"><ele>80.89</ele><time>2026-04-25T13:42:13Z</time></trkpt><trkpt lat="59.0576384123" lon="29.9831437971"><ele>80.89</ele><time>2026-04-25T13:42:40Z</time></trkpt><trkpt lat="59.0576509014" lon="29.9831696972"><ele>80.89</ele><time>2026-04-25T13:43:09Z</time></trkpt><trkpt lat="59.0576485544" lon="29.9831846170"><ele>80.41</ele><time>2026-04-25T13:43:25Z</time></trkpt><trkpt lat="59.0576595347" lon="29.9831816833"><ele>80.41</ele><time>2026-04-25T13:43:43Z</time></trkpt><trkpt lat="59.0576614626" lon="29.9831967708"><ele>80.41</ele><time>2026-04-25T13:44:00Z</time></trkpt><trkpt lat="59.0576860216" lon="29.9832065776"><ele>80.41</ele><time>2026-04-25T13:44:11Z</time></trkpt><trkpt lat="59.0577629674" lon="29.9831883889"><ele>80.41</ele><time>2026-04-25T13:44:24Z</time></trkpt><trkpt lat="59.0578262508" lon="29.9832541868"><ele>80.41</ele><time>2026-04-25T13:44:35Z</time></trkpt><trkpt lat="59.0578802302" lon="29.9832723755"><ele>80.41</ele><time>2026-04-25T13:44:45Z</time></trkpt><trkpt lat="59.0579341259" lon="29.9833257683"><ele>80.41</ele><time>2026-04-25T13:44:57Z</time></trkpt><trkpt lat="59.0580453537" lon="29.9833980203"><ele>80.41</ele><time>2026-04-25T13:45:11Z</time></trkpt><trkpt lat="59.0581254009" lon="29.9834330566"><ele>80.41</ele><time>2026-04-25T13:45:21Z</time></trkpt><trkpt lat="59.0582112316" lon="29.9835012015"><ele>80.41</ele><time>2026-04-25T13:45:31Z</time></trkpt><trkpt lat="59.0583258960" lon="29.9835780635"><ele>80.41</ele><time>2026-04-25T13:45:43Z</time></trkpt><trkpt lat="59.0583305899" lon="29.9835842662"><ele>81.85</ele><time>2026-04-25T13:45:45Z</time></trkpt><trkpt lat="59.0583678894" lon="29.9835960008"><ele>81.85</ele><time>2026-04-25T13:45:59Z</time></trkpt><trkpt lat="59.0584839787" lon="29.9836492259"><ele>81.85</ele><time>2026-04-25T13:46:13Z</time></trkpt><trkpt lat="59.0585892554" lon="29.9836608768"><ele>81.85</ele><time>2026-04-25T13:46:20Z</time></trkpt><trkpt lat="59.0586217772" lon="29.9836674146"><ele>81.85</ele><time>2026-04-25T13:46:22Z</time></trkpt><trkpt lat="59.0586929396" lon="29.9837268423"><ele>80.89</ele><time>2026-04-25T13:46:31Z</time></trkpt><trkpt lat="59.0587642696" lon="29.9837622978"><ele>80.89</ele><time>2026-04-25T13:46:36Z</time></trkpt><trkpt lat="59.0588117111" lon="29.9837631360"><ele>80.89</ele><time>2026-04-25T13:46:39Z</time></trkpt><trkpt lat="59.0589427203" lon="29.9837752897"><ele>80.89</ele><time>2026-04-25T13:46:52Z</time></trkpt><trkpt lat="59.0590454824" lon="29.9837697577"><ele>80.89</ele><time>2026-04-25T13:47:03Z</time></trkpt><trkpt lat="59.0591443051" lon="29.9837975856"><ele>80.89</ele><time>2026-04-25T13:47:15Z</time></trkpt><trkpt lat="59.0592524316" lon="29.9838488828"><ele>80.89</ele><time>2026-04-25T13:47:28Z</time></trkpt><trkpt lat="59.0593429562" lon="29.9838237371"><ele>80.89</ele><time>2026-04-25T13:47:38Z</time></trkpt><trkpt lat="59.0593988635" lon="29.9839780480"><ele>80.89</ele><time>2026-04-25T13:47:48Z</time></trkpt><trkpt lat="59.0594603866" lon="29.9839910399"><ele>80.89</ele><time>2026-04-25T13:47:54Z</time></trkpt><trkpt lat="59.0596099198" lon="29.9839694984"><ele>80.89</ele><time>2026-04-25T13:48:08Z</time></trkpt><trkpt lat="59.0597022884" lon="29.9840528145"><ele>80.89</ele><time>2026-04-25T13:48:20Z</time></trkpt><trkpt lat="59.0598140191" lon="29.9841768667"><ele>80.89</ele><time>2026-04-25T13:48:31Z</time></trkpt><trkpt lat="59.0598633047" lon="29.9841868412"><ele>80.89</ele><time>2026-04-25T13:48:35Z</time></trkpt><trkpt lat="59.0598839242" lon="29.9841983244"><ele>80.89</ele><time>2026-04-25T13:48:37Z</time></trkpt><trkpt lat="59.0600361396" lon="29.9842199497"><ele>80.89</ele><time>2026-04-25T13:48:52Z</time></trkpt><trkpt lat="59.0601727646" lon="29.9842428323"><ele>80.89</ele><time>2026-04-25T13:49:04Z</time></trkpt><trkpt lat="59.0602373891" lon="29.9841865897"><ele>80.89</ele><time>2026-04-25T13:49:15Z</time></trkpt><trkpt lat="59.0603077970" lon="29.9840699974"><ele>80.89</ele><time>2026-04-25T13:49:27Z</time></trkpt><trkpt lat="59.0603103954" lon="29.9840803072"><ele>80.89</ele><time>2026-04-25T13:49:31Z</time></trkpt><trkpt lat="59.0603050310" lon="29.9842248950"><ele>80.89</ele><time>2026-04-25T13:49:42Z</time></trkpt><trkpt lat="59.0603372175" lon="29.9842771981"><ele>80.89</ele><time>2026-04-25T13:49:54Z</time></trkpt><trkpt lat="59.0603824798" lon="29.9842512142"><ele>80.41</ele><time>2026-04-25T13:50:06Z</time></trkpt><trkpt lat="59.0604116488" lon="29.9842460174"><ele>80.41</ele><time>2026-04-25T13:50:11Z</time></trkpt><trkpt lat="59.0604662150" lon="29.9842745997"><ele>80.41</ele><time>2026-04-25T13:50:21Z</time></trkpt><trkpt lat="59.0605436638" lon="29.9843761045"><ele>80.41</ele><time>2026-04-25T13:50:32Z</time></trkpt><trkpt lat="59.0605750121" lon="29.9844118953"><ele>80.41</ele><time>2026-04-25T13:50:44Z</time></trkpt><trkpt lat="59.0606022533" lon="29.9844445009"><ele>80.41</ele><time>2026-04-25T13:50:56Z</time></trkpt><trkpt lat="59.0606530476" lon="29.9844757654"><ele>79.93</ele><time>2026-04-25T13:51:20Z</time></trkpt><trkpt lat="59.0606632736" lon="29.9845158309"><ele>79.93</ele><time>2026-04-25T13:51:35Z</time></trkpt><trkpt lat="59.0606894251" lon="29.9845599197"><ele>79.93</ele><time>2026-04-25T13:51:46Z</time></trkpt><trkpt lat="59.0607423987" lon="29.9845632724"><ele>79.93</ele><time>2026-04-25T13:52:03Z</time></trkpt><trkpt lat="59.0607903432" lon="29.9845836405"><ele>79.93</ele><time>2026-04-25T13:52:16Z</time></trkpt><trkpt lat="59.0608729050" lon="29.9846279807"><ele>79.93</ele><time>2026-04-25T13:52:28Z</time></trkpt><trkpt lat="59.0609335899" lon="29.9846771825"><ele>79.93</ele><time>2026-04-25T13:52:39Z</time></trkpt><trkpt lat="59.0609752480" lon="29.9846797809"><ele>79.93</ele><time>2026-04-25T13:52:51Z</time></trkpt><trkpt lat="59.0610890742" lon="29.9847269710"><ele>79.93</ele><time>2026-04-25T13:53:04Z</time></trkpt><trkpt lat="59.0611728095" lon="29.9848589022"><ele>79.93</ele><time>2026-04-25T13:53:11Z</time></trkpt><trkpt lat="59.0612647589" lon="29.9849251192"><ele>79.93</ele><time>2026-04-25T13:53:22Z</time></trkpt><trkpt lat="59.0613309760" lon="29.9849451520"><ele>79.45</ele><time>2026-04-25T13:53:31Z</time></trkpt><trkpt lat="59.0613796748" lon="29.9849684536"><ele>79.45</ele><time>2026-04-25T13:53:46Z</time></trkpt><trkpt lat="59.0614483226" lon="29.9850468244"><ele>79.45</ele><time>2026-04-25T13:53:56Z</time></trkpt><trkpt lat="59.0615274478" lon="29.9849961977"><ele>79.45</ele><time>2026-04-25T13:54:05Z</time></trkpt><trkpt lat="59.0615577903" lon="29.9849839602"><ele>79.45</ele><time>2026-04-25T13:54:32Z</time></trkpt><trkpt lat="59.0615750570" lon="29.9849824514"><ele>79.45</ele><time>2026-04-25T13:54:35Z</time></trkpt><trkpt lat="59.0617031325" lon="29.9849230237"><ele>79.45</ele><time>2026-04-25T13:54:47Z</time></trkpt><trkpt lat="59.0617590398" lon="29.9849538691"><ele>78.97</ele><time>2026-04-25T13:54:58Z</time></trkpt><trkpt lat="59.0618175454" lon="29.9849684536"><ele>78.97</ele><time>2026-04-25T13:55:11Z</time></trkpt><trkpt lat="59.0618597064" lon="29.9850969482"><ele>78.97</ele><time>2026-04-25T13:55:20Z</time></trkpt><trkpt lat="59.0618869476" lon="29.9851723015"><ele>78.97</ele><time>2026-04-25T13:55:32Z</time></trkpt><trkpt lat="59.0619484708" lon="29.9851531908"><ele>78.97</ele><time>2026-04-25T13:55:46Z</time></trkpt><trkpt lat="59.0620001033" lon="29.9851056654"><ele>78.97</ele><time>2026-04-25T13:55:57Z</time></trkpt><trkpt lat="59.0620851796" lon="29.9851543643"><ele>78.48</ele><time>2026-04-25T13:56:09Z</time></trkpt><trkpt lat="59.0621391591" lon="29.9851378519"><ele>78.48</ele><time>2026-04-25T13:56:21Z</time></trkpt><trkpt lat="59.0621612035" lon="29.9851025641"><ele>78.00</ele><time>2026-04-25T13:56:34Z</time></trkpt><trkpt lat="59.0622511413" lon="29.9851150531"><ele>78.00</ele><time>2026-04-25T13:56:43Z</time></trkpt><trkpt lat="59.0623098146" lon="29.9851621594"><ele>77.52</ele><time>2026-04-25T13:56:53Z</time></trkpt><trkpt lat="59.0624157619" lon="29.9851860479"><ele>77.52</ele><time>2026-04-25T13:57:04Z</time></trkpt><trkpt lat="59.0624451824" lon="29.9851981178"><ele>77.52</ele><time>2026-04-25T13:57:16Z</time></trkpt><trkpt lat="59.0624804702" lon="29.9852300528"><ele>77.52</ele><time>2026-04-25T13:57:29Z</time></trkpt><trkpt lat="59.0624808054" lon="29.9852691963"><ele>77.52</ele><time>2026-04-25T13:57:43Z</time></trkpt><trkpt lat="59.0625026822" lon="29.9852691125"><ele>77.52</ele><time>2026-04-25T13:58:02Z</time></trkpt><trkpt lat="59.0625445917" lon="29.9853012152"><ele>77.04</ele><time>2026-04-25T13:58:13Z</time></trkpt><trkpt lat="59.0625947993" lon="29.9853252713"><ele>77.04</ele><time>2026-04-25T13:58:24Z</time></trkpt><trkpt lat="59.0626424085" lon="29.9853556138"><ele>77.04</ele><time>2026-04-25T13:58:39Z</time></trkpt><trkpt lat="59.0626772773" lon="29.9853698630"><ele>77.04</ele><time>2026-04-25T13:58:46Z</time></trkpt><trkpt lat="59.0626927838" lon="29.9854435399"><ele>77.04</ele><time>2026-04-25T13:58:55Z</time></trkpt><trkpt lat="59.0627228748" lon="29.9854755588"><ele>77.04</ele><time>2026-04-25T13:59:05Z</time></trkpt><trkpt lat="59.0627885051" lon="29.9855758902"><ele>77.04</ele><time>2026-04-25T13:59:17Z</time></trkpt><trkpt lat="59.0628527105" lon="29.9856234994"><ele>77.04</ele><time>2026-04-25T13:59:29Z</time></trkpt><trkpt lat="59.0629089531" lon="29.9856077414"><ele>76.56</ele><time>2026-04-25T13:59:41Z</time></trkpt><trkpt lat="59.0629458334" lon="29.9856157042"><ele>76.56</ele><time>2026-04-25T13:59:52Z</time></trkpt><trkpt lat="59.0630306583" lon="29.9855934083"><ele>76.56</ele><time>2026-04-25T14:00:03Z</time></trkpt><trkpt lat="59.0631235298" lon="29.9855276104"><ele>76.56</ele><time>2026-04-25T14:00:17Z</time></trkpt><trkpt lat="59.0631637629" lon="29.9854503293"><ele>76.08</ele><time>2026-04-25T14:00:29Z</time></trkpt><trkpt lat="59.0631918423" lon="29.9853609782"><ele>76.08</ele><time>2026-04-25T14:00:43Z</time></trkpt><trkpt lat="59.0632520244" lon="29.9853691086"><ele>76.08</ele><time>2026-04-25T14:00:55Z</time></trkpt><trkpt lat="59.0632895753" lon="29.9853100162"><ele>76.08</ele><time>2026-04-25T14:01:06Z</time></trkpt><trkpt lat="59.0633487515" lon="29.9852906540"><ele>76.08</ele><time>2026-04-25T14:01:16Z</time></trkpt><trkpt lat="59.0634044074" lon="29.9853304680"><ele>76.08</ele><time>2026-04-25T14:01:26Z</time></trkpt><trkpt lat="59.0634655114" lon="29.9853328988"><ele>76.08</ele><time>2026-04-25T14:01:36Z</time></trkpt><trkpt lat="59.0635261126" lon="29.9853608105"><ele>76.08</ele><time>2026-04-25T14:01:46Z</time></trkpt><trkpt lat="59.0635322314" lon="29.9853658397"><ele>76.08</ele><time>2026-04-25T14:01:47Z</time></trkpt><trkpt lat="59.0635929164" lon="29.9853806756"><ele>75.60</ele><time>2026-04-25T14:01:59Z</time></trkpt><trkpt lat="59.0636345744" lon="29.9854048993"><ele>75.60</ele><time>2026-04-25T14:02:09Z</time></trkpt><trkpt lat="59.0636773221" lon="29.9854592979"><ele>75.60</ele><time>2026-04-25T14:02:21Z</time></trkpt><trkpt lat="59.0637033060" lon="29.9855867866"><ele>75.60</ele><time>2026-04-25T14:02:33Z</time></trkpt><trkpt lat="59.0637406055" lon="29.9856355693"><ele>75.12</ele><time>2026-04-25T14:02:44Z</time></trkpt><trkpt lat="59.0638354048" lon="29.9857409298"><ele>75.12</ele><time>2026-04-25T14:02:58Z</time></trkpt><trkpt lat="59.0639302041" lon="29.9858098291"><ele>74.64</ele><time>2026-04-25T14:03:09Z</time></trkpt><trkpt lat="59.0639729518" lon="29.9858692568"><ele>74.16</ele><time>2026-04-25T14:03:22Z</time></trkpt><trkpt lat="59.0640025400" lon="29.9858830869"><ele>74.16</ele><time>2026-04-25T14:03:34Z</time></trkpt><trkpt lat="59.0640511550" lon="29.9858767167"><ele>74.16</ele><time>2026-04-25T14:03:44Z</time></trkpt><trkpt lat="59.0641045477" lon="29.9858773872"><ele>74.16</ele><time>2026-04-25T14:03:58Z</time></trkpt><trkpt lat="59.0641798172" lon="29.9858890381"><ele>74.16</ele><time>2026-04-25T14:04:14Z</time></trkpt><trkpt lat="59.0642246604" lon="29.9858432729"><ele>74.16</ele><time>2026-04-25T14:04:18Z</time></trkpt><trkpt lat="59.0642577689" lon="29.9856913090"><ele>73.68</ele><time>2026-04-25T14:04:28Z</time></trkpt><trkpt lat="59.0642549191" lon="29.9856632296"><ele>73.68</ele><time>2026-04-25T14:04:29Z</time></trkpt><trkpt lat="59.0642424300" lon="29.9855721183"><ele>73.68</ele><time>2026-04-25T14:04:34Z</time></trkpt><trkpt lat="59.0642837528" lon="29.9855116010"><ele>73.68</ele><time>2026-04-25T14:04:45Z</time></trkpt><trkpt lat="59.0643032826" lon="29.9855468888"><ele>73.68</ele><time>2026-04-25T14:04:54Z</time></trkpt><trkpt lat="59.0643309429" lon="29.9855604675"><ele>73.68</ele><time>2026-04-25T14:05:03Z</time></trkpt><trkpt lat="59.0643554181" lon="29.9856097531"><ele>73.68</ele><time>2026-04-25T14:05:12Z</time></trkpt><trkpt lat="59.0643834136" lon="29.9856657442"><ele>73.68</ele><time>2026-04-25T14:05:29Z</time></trkpt><trkpt lat="59.0644007642" lon="29.9856855255"><ele>73.68</ele><time>2026-04-25T14:05:40Z</time></trkpt><trkpt lat="59.0644168574" lon="29.9857613817"><ele>73.20</ele><time>2026-04-25T14:05:54Z</time></trkpt><trkpt lat="59.0644238982" lon="29.9857842643"><ele>73.20</ele><time>2026-04-25T14:06:15Z</time></trkpt><trkpt lat="59.0644279215" lon="29.9857944064"><ele>72.72</ele><time>2026-04-25T14:06:36Z</time></trkpt><trkpt lat="59.0644713398" lon="29.9857807439"><ele>72.72</ele><time>2026-04-25T14:06:48Z</time></trkpt><trkpt lat="59.0645001736" lon="29.9857874494"><ele>72.72</ele><time>2026-04-25T14:06:59Z</time></trkpt><trkpt lat="59.0645280015" lon="29.9858094938"><ele>72.72</ele><time>2026-04-25T14:07:09Z</time></trkpt><trkpt lat="59.0645457711" lon="29.9859068077"><ele>72.72</ele><time>2026-04-25T14:07:19Z</time></trkpt><trkpt lat="59.0645462740" lon="29.9859480467"><ele>72.72</ele><time>2026-04-25T14:07:29Z</time></trkpt><trkpt lat="59.0646644589" lon="29.9860016908"><ele>72.72</ele><time>2026-04-25T14:07:43Z</time></trkpt><trkpt lat="59.0646852460" lon="29.9860521499"><ele>72.72</ele><time>2026-04-25T14:07:54Z</time></trkpt><trkpt lat="59.0646869224" lon="29.9860530719"><ele>72.72</ele><time>2026-04-25T14:07:55Z</time></trkpt><trkpt lat="59.0646994114" lon="29.9860591907"><ele>72.72</ele><time>2026-04-25T14:07:57Z</time></trkpt><trkpt lat="59.0647529718" lon="29.9860493839"><ele>72.72</ele><time>2026-04-25T14:08:04Z</time></trkpt><trkpt lat="59.0648245532" lon="29.9860293511"><ele>72.72</ele><time>2026-04-25T14:08:10Z</time></trkpt><trkpt lat="59.0648674686" lon="29.9860617053"><ele>72.72</ele><time>2026-04-25T14:08:17Z</time></trkpt><trkpt lat="59.0648999903" lon="29.9860757869"><ele>72.72</ele><time>2026-04-25T14:08:21Z</time></trkpt><trkpt lat="59.0649749245" lon="29.9860767927"><ele>72.72</ele><time>2026-04-25T14:08:31Z</time></trkpt><trkpt lat="59.0649890061" lon="29.9861033633"><ele>72.72</ele><time>2026-04-25T14:08:40Z</time></trkpt><trkpt lat="59.0650432371" lon="29.9861285090"><ele>72.72</ele><time>2026-04-25T14:08:51Z</time></trkpt><trkpt lat="59.0650944505" lon="29.9861057941"><ele>72.72</ele><time>2026-04-25T14:09:01Z</time></trkpt><trkpt lat="59.0651342645" lon="29.9861208815"><ele>72.72</ele><time>2026-04-25T14:09:16Z</time></trkpt><trkpt lat="59.0651104599" lon="29.9861077219"><ele>72.24</ele><time>2026-04-25T14:09:27Z</time></trkpt><trkpt lat="59.0651110467" lon="29.9861106556"><ele>72.24</ele><time>2026-04-25T14:09:29Z</time></trkpt><trkpt lat="59.0651134774" lon="29.9861373100"><ele>72.24</ele><time>2026-04-25T14:09:39Z</time></trkpt><trkpt lat="59.0651256312" lon="29.9861632101"><ele>72.24</ele><time>2026-04-25T14:09:53Z</time></trkpt><trkpt lat="59.0651493520" lon="29.9861721788"><ele>72.24</ele><time>2026-04-25T14:10:04Z</time></trkpt><trkpt lat="59.0651809517" lon="29.9861489609"><ele>72.24</ele><time>2026-04-25T14:10:12Z</time></trkpt><trkpt lat="59.0652178321" lon="29.9862859212"><ele>72.24</ele><time>2026-04-25T14:10:25Z</time></trkpt><trkpt lat="59.0652533714" lon="29.9863054510"><ele>72.24</ele><time>2026-04-25T14:10:36Z</time></trkpt><trkpt lat="59.0652603284" lon="29.9863133300"><ele>72.24</ele><time>2026-04-25T14:10:42Z</time></trkpt><trkpt lat="59.0652966220" lon="29.9862753600"><ele>72.24</ele><time>2026-04-25T14:10:51Z</time></trkpt><trkpt lat="59.0653487574" lon="29.9862792995"><ele>72.24</ele><time>2026-04-25T14:10:57Z</time></trkpt><trkpt lat="59.0654695407" lon="29.9862632062"><ele>72.24</ele><time>2026-04-25T14:11:09Z</time></trkpt><trkpt lat="59.0655104443" lon="29.9862216320"><ele>72.24</ele><time>2026-04-25T14:11:20Z</time></trkpt><trkpt lat="59.0655345842" lon="29.9862035271"><ele>71.76</ele><time>2026-04-25T14:11:29Z</time></trkpt><trkpt lat="59.0655912459" lon="29.9861964863"><ele>71.76</ele><time>2026-04-25T14:11:40Z</time></trkpt><trkpt lat="59.0657243505" lon="29.9862362165"><ele>71.76</ele><time>2026-04-25T14:11:55Z</time></trkpt><trkpt lat="59.0657919087" lon="29.9862275831"><ele>71.76</ele><time>2026-04-25T14:12:05Z</time></trkpt><trkpt lat="59.0658387635" lon="29.9862609431"><ele>71.76</ele><time>2026-04-25T14:12:16Z</time></trkpt><trkpt lat="59.0658709500" lon="29.9863070436"><ele>71.27</ele><time>2026-04-25T14:12:28Z</time></trkpt><trkpt lat="59.0659012925" lon="29.9863556586"><ele>71.27</ele><time>2026-04-25T14:12:38Z</time></trkpt><trkpt lat="59.0659585409" lon="29.9864677247"><ele>70.79</ele><time>2026-04-25T14:12:54Z</time></trkpt><trkpt lat="59.0661823377" lon="29.9866754282"><ele>70.79</ele><time>2026-04-25T14:13:09Z</time></trkpt><trkpt lat="59.0662879497" lon="29.9867523741"><ele>70.31</ele><time>2026-04-25T14:13:21Z</time></trkpt><trkpt lat="59.0663554240" lon="29.9867303297"><ele>70.31</ele><time>2026-04-25T14:13:34Z</time></trkpt><trkpt lat="59.0664441884" lon="29.9867921043"><ele>70.31</ele><time>2026-04-25T14:13:48Z</time></trkpt><trkpt lat="59.0665355511" lon="29.9867674615"><ele>70.31</ele><time>2026-04-25T14:13:59Z</time></trkpt><trkpt lat="59.0666073840" lon="29.9867790285"><ele>70.31</ele><time>2026-04-25T14:14:12Z</time></trkpt><trkpt lat="59.0668559913" lon="29.9867600016"><ele>70.31</ele><time>2026-04-25T14:14:24Z</time></trkpt><trkpt lat="59.0668753535" lon="29.9867924396"><ele>70.31</ele><time>2026-04-25T14:14:28Z</time></trkpt><trkpt lat="59.0668971464" lon="29.9868348520"><ele>70.31</ele><time>2026-04-25T14:14:46Z</time></trkpt><trkpt lat="59.0669354517" lon="29.9868375342"><ele>70.31</ele><time>2026-04-25T14:15:00Z</time></trkpt><trkpt lat="59.0669994894" lon="29.9868817907"><ele>70.31</ele><time>2026-04-25T14:15:12Z</time></trkpt><trkpt lat="59.0670321789" lon="29.9870083574"><ele>70.31</ele><time>2026-04-25T14:15:24Z</time></trkpt><trkpt lat="59.0670347773" lon="29.9870495964"><ele>70.31</ele><time>2026-04-25T14:15:28Z</time></trkpt><trkpt lat="59.0670695622" lon="29.9870776758"><ele>70.31</ele><time>2026-04-25T14:15:38Z</time></trkpt><trkpt lat="59.0670808777" lon="29.9871612433"><ele>70.31</ele><time>2026-04-25T14:15:50Z</time></trkpt><trkpt lat="59.0670998208" lon="29.9872330762"><ele>70.31</ele><time>2026-04-25T14:16:02Z</time></trkpt><trkpt lat="59.0671506990" lon="29.9872584734"><ele>70.31</ele><time>2026-04-25T14:16:11Z</time></trkpt><trkpt lat="59.0671724081" lon="29.9872432183"><ele>67.43</ele><time>2026-04-25T14:16:25Z</time></trkpt><trkpt lat="59.0671733301" lon="29.9872440565"><ele>73.68</ele><time>2026-04-25T14:16:26Z</time></trkpt><trkpt lat="59.0671787784" lon="29.9872403685"><ele>70.31</ele><time>2026-04-25T14:16:30Z</time></trkpt><trkpt lat="59.0671807062" lon="29.9872387759"><ele>71.76</ele><time>2026-04-25T14:16:32Z</time></trkpt><trkpt lat="59.0671866573" lon="29.9872366805"><ele>70.79</ele><time>2026-04-25T14:16:37Z</time></trkpt><trkpt lat="59.0671916865" lon="29.9872336630"><ele>67.43</ele><time>2026-04-25T14:16:43Z</time></trkpt><trkpt lat="59.0671940334" lon="29.9872342497"><ele>72.24</ele><time>2026-04-25T14:16:44Z</time></trkpt><trkpt lat="59.0671976376" lon="29.9872319028"><ele>72.24</ele><time>2026-04-25T14:16:45Z</time></trkpt><trkpt lat="59.0672076121" lon="29.9872122053"><ele>70.79</ele><time>2026-04-25T14:16:49Z</time></trkpt><trkpt lat="59.0672202688" lon="29.9872168992"><ele>70.31</ele><time>2026-04-25T14:17:03Z</time></trkpt><trkpt lat="59.0672537964" lon="29.9871940166"><ele>69.83</ele><time>2026-04-25T14:17:29Z</time></trkpt><trkpt lat="59.0673009865" lon="29.9871682841"><ele>69.83</ele><time>2026-04-25T14:17:45Z</time></trkpt><trkpt lat="59.0673581511" lon="29.9871195015"><ele>69.83</ele><time>2026-04-25T14:17:57Z</time></trkpt><trkpt lat="59.0674101189" lon="29.9871370196"><ele>69.83</ele><time>2026-04-25T14:18:09Z</time></trkpt><trkpt lat="59.0674257092" lon="29.9871356785"><ele>68.87</ele><time>2026-04-25T14:18:18Z</time></trkpt><trkpt lat="59.0674257092" lon="29.9871355109"><ele>71.76</ele><time>2026-04-25T14:18:20Z</time></trkpt><trkpt lat="59.0674264636" lon="29.9871342536"><ele>68.39</ele><time>2026-04-25T14:18:21Z</time></trkpt><trkpt lat="59.0674266312" lon="29.9871343374"><ele>71.76</ele><time>2026-04-25T14:18:22Z</time></trkpt><trkpt lat="59.0674280562" lon="29.9871385284"><ele>71.76</ele><time>2026-04-25T14:18:24Z</time></trkpt><trkpt lat="59.0674777608" lon="29.9871601537"><ele>71.76</ele><time>2026-04-25T14:18:35Z</time></trkpt><trkpt lat="59.0675056726" lon="29.9871884007"><ele>70.79</ele><time>2026-04-25T14:18:45Z</time></trkpt><trkpt lat="59.0675666090" lon="29.9871935137"><ele>70.79</ele><time>2026-04-25T14:18:56Z</time></trkpt><trkpt lat="59.0676083509" lon="29.9872108642"><ele>70.79</ele><time>2026-04-25T14:19:08Z</time></trkpt><trkpt lat="59.0676246118" lon="29.9871941004"><ele>70.79</ele><time>2026-04-25T14:19:16Z</time></trkpt><trkpt lat="59.0676697064" lon="29.9871823657"><ele>70.79</ele><time>2026-04-25T14:19:28Z</time></trkpt><trkpt lat="59.0676894877" lon="29.9872258678"><ele>70.79</ele><time>2026-04-25T14:19:39Z</time></trkpt><trkpt lat="59.0677086823" lon="29.9872736447"><ele>70.79</ele><time>2026-04-25T14:19:50Z</time></trkpt><trkpt lat="59.0677370969" lon="29.9873179011"><ele>70.79</ele><time>2026-04-25T14:19:59Z</time></trkpt><trkpt lat="59.0677697863" lon="29.9873390235"><ele>70.79</ele><time>2026-04-25T14:20:08Z</time></trkpt><trkpt lat="59.0678067505" lon="29.9873317312"><ele>70.79</ele><time>2026-04-25T14:20:25Z</time></trkpt><trkpt lat="59.0678135399" lon="29.9873308092"><ele>69.83</ele><time>2026-04-25T14:20:28Z</time></trkpt><trkpt lat="59.0678334050" lon="29.9873124529"><ele>69.83</ele><time>2026-04-25T14:20:38Z</time></trkpt><trkpt lat="59.0678547788" lon="29.9872936774"><ele>69.83</ele><time>2026-04-25T14:20:50Z</time></trkpt><trkpt lat="59.0678697824" lon="29.9873205833"><ele>69.83</ele><time>2026-04-25T14:21:05Z</time></trkpt><trkpt lat="59.0678878035" lon="29.9872456491"><ele>70.79</ele><time>2026-04-25T14:21:15Z</time></trkpt><trkpt lat="59.0678940900" lon="29.9871261232"><ele>71.27</ele><time>2026-04-25T14:21:28Z</time></trkpt><trkpt lat="59.0678762365" lon="29.9869901687"><ele>71.27</ele><time>2026-04-25T14:21:41Z</time></trkpt><trkpt lat="59.0678486601" lon="29.9868387077"><ele>71.27</ele><time>2026-04-25T14:21:53Z</time></trkpt><trkpt lat="59.0678429604" lon="29.9868304934"><ele>71.27</ele><time>2026-04-25T14:22:04Z</time></trkpt><trkpt lat="59.0678393561" lon="29.9868465867"><ele>71.27</ele><time>2026-04-25T14:22:17Z</time></trkpt><trkpt lat="59.0678428765" lon="29.9868611712"><ele>71.27</ele><time>2026-04-25T14:22:29Z</time></trkpt><trkpt lat="59.0678484924" lon="29.9869277235"><ele>71.27</ele><time>2026-04-25T14:22:46Z</time></trkpt><trkpt lat="59.0678322315" lon="29.9869680405"><ele>71.27</ele><time>2026-04-25T14:22:56Z</time></trkpt><trkpt lat="59.0678338241" lon="29.9869906716"><ele>71.27</ele><time>2026-04-25T14:23:07Z</time></trkpt><trkpt lat="59.0678438824" lon="29.9869096186"><ele>71.76</ele><time>2026-04-25T14:23:18Z</time></trkpt><trkpt lat="59.0678422060" lon="29.9868848920"><ele>70.31</ele><time>2026-04-25T14:23:20Z</time></trkpt><trkpt lat="59.0678372607" lon="29.9868693016"><ele>71.76</ele><time>2026-04-25T14:23:22Z</time></trkpt><trkpt lat="59.0678196587" lon="29.9867632706"><ele>71.27</ele><time>2026-04-25T14:23:34Z</time></trkpt><trkpt lat="59.0678085946" lon="29.9867432378"><ele>72.24</ele><time>2026-04-25T14:23:39Z</time></trkpt><trkpt lat="59.0678031463" lon="29.9866740033"><ele>71.76</ele><time>2026-04-25T14:24:06Z</time></trkpt><trkpt lat="59.0678009670" lon="29.9866029248"><ele>71.76</ele><time>2026-04-25T14:24:25Z</time></trkpt><trkpt lat="59.0678002965" lon="29.9865847360"><ele>71.76</ele><time>2026-04-25T14:24:29Z</time></trkpt><trkpt lat="59.0677763242" lon="29.9865257274"><ele>71.76</ele><time>2026-04-25T14:24:42Z</time></trkpt><trkpt lat="59.0677780006" lon="29.9864941277"><ele>71.76</ele><time>2026-04-25T14:24:51Z</time></trkpt><trkpt lat="59.0677735582" lon="29.9864870030"><ele>71.76</ele><time>2026-04-25T14:25:06Z</time></trkpt><trkpt lat="59.0677615721" lon="29.9864568282"><ele>71.76</ele><time>2026-04-25T14:25:20Z</time></trkpt><trkpt lat="59.0676829498" lon="29.9863370508"><ele>71.76</ele><time>2026-04-25T14:25:33Z</time></trkpt><trkpt lat="59.0676517691" lon="29.9862490408"><ele>71.76</ele><time>2026-04-25T14:25:43Z</time></trkpt><trkpt lat="59.0675899945" lon="29.9862565007"><ele>71.76</ele><time>2026-04-25T14:25:54Z</time></trkpt><trkpt lat="59.0675637592" lon="29.9862378929"><ele>71.76</ele><time>2026-04-25T14:26:09Z</time></trkpt><trkpt lat="59.0675127972" lon="29.9862045329"><ele>71.76</ele><time>2026-04-25T14:26:19Z</time></trkpt><trkpt lat="59.0674903337" lon="29.9862101488"><ele>71.76</ele><time>2026-04-25T14:26:35Z</time></trkpt><trkpt lat="59.0674391203" lon="29.9862100650"><ele>71.76</ele><time>2026-04-25T14:26:43Z</time></trkpt><trkpt lat="59.0674010664" lon="29.9862007610"><ele>71.76</ele><time>2026-04-25T14:26:53Z</time></trkpt><trkpt lat="59.0673667844" lon="29.9862282537"><ele>71.76</ele><time>2026-04-25T14:27:04Z</time></trkpt><trkpt lat="59.0673470031" lon="29.9861943070"><ele>71.76</ele><time>2026-04-25T14:27:17Z</time></trkpt><trkpt lat="59.0673843026" lon="29.9862406589"><ele>72.24</ele><time>2026-04-25T14:27:29Z</time></trkpt><trkpt lat="59.0674225241" lon="29.9862227216"><ele>72.24</ele><time>2026-04-25T14:27:39Z</time></trkpt><trkpt lat="59.0674299840" lon="29.9862394016"><ele>72.24</ele><time>2026-04-25T14:27:41Z</time></trkpt><trkpt lat="59.0674705524" lon="29.9862616975"><ele>72.24</ele><time>2026-04-25T14:27:52Z</time></trkpt><trkpt lat="59.0675495937" lon="29.9862719234"><ele>72.24</ele><time>2026-04-25T14:28:03Z</time></trkpt><trkpt lat="59.0676132962" lon="29.9862797186"><ele>72.24</ele><time>2026-04-25T14:28:16Z</time></trkpt><trkpt lat="59.0676588099" lon="29.9863279983"><ele>72.72</ele><time>2026-04-25T14:28:26Z</time></trkpt><trkpt lat="59.0677133761" lon="29.9863906112"><ele>72.72</ele><time>2026-04-25T14:28:36Z</time></trkpt><trkpt lat="59.0677766595" lon="29.9864605162"><ele>72.72</ele><time>2026-04-25T14:28:47Z</time></trkpt><trkpt lat="59.0678128693" lon="29.9865413178"><ele>72.72</ele><time>2026-04-25T14:29:01Z</time></trkpt><trkpt lat="59.0678266995" lon="29.9866555631"><ele>72.72</ele><time>2026-04-25T14:29:14Z</time></trkpt><trkpt lat="59.0678334050" lon="29.9867278151"><ele>72.72</ele><time>2026-04-25T14:29:27Z</time></trkpt><trkpt lat="59.0678368416" lon="29.9868089519"><ele>72.72</ele><time>2026-04-25T14:29:37Z</time></trkpt><trkpt lat="59.0678651724" lon="29.9867926911"><ele>72.72</ele><time>2026-04-25T14:29:50Z</time></trkpt><trkpt lat="59.0678914916" lon="29.9867901765"><ele>72.72</ele><time>2026-04-25T14:30:01Z</time></trkpt><trkpt lat="59.0679085068" lon="29.9867861532"><ele>72.72</ele><time>2026-04-25T14:30:14Z</time></trkpt><trkpt lat="59.0679469798" lon="29.9868076947"><ele>72.72</ele><time>2026-04-25T14:30:28Z</time></trkpt><trkpt lat="59.0679640789" lon="29.9868551362"><ele>73.20</ele><time>2026-04-25T14:30:39Z</time></trkpt><trkpt lat="59.0679957625" lon="29.9869623408"><ele>73.20</ele><time>2026-04-25T14:30:52Z</time></trkpt><trkpt lat="59.0680382587" lon="29.9870341737"><ele>73.20</ele><time>2026-04-25T14:31:08Z</time></trkpt><trkpt lat="59.0680452157" lon="29.9870723952"><ele>72.24</ele><time>2026-04-25T14:31:19Z</time></trkpt><trkpt lat="59.0680506639" lon="29.9871390313"><ele>72.24</ele><time>2026-04-25T14:31:31Z</time></trkpt><trkpt lat="59.0680382587" lon="29.9871959444"><ele>72.24</ele><time>2026-04-25T14:31:43Z</time></trkpt><trkpt lat="59.0680359956" lon="29.9872423802"><ele>72.24</ele><time>2026-04-25T14:32:02Z</time></trkpt><trkpt lat="59.0680374205" lon="29.9872443918"><ele>73.20</ele><time>2026-04-25T14:32:10Z</time></trkpt><trkpt lat="59.0680409409" lon="29.9872869719"><ele>73.20</ele><time>2026-04-25T14:32:26Z</time></trkpt><trkpt lat="59.0680467244" lon="29.9873260316"><ele>73.68</ele><time>2026-04-25T14:32:36Z</time></trkpt><trkpt lat="59.0680611413" lon="29.9873853754"><ele>73.68</ele><time>2026-04-25T14:32:46Z</time></trkpt><trkpt lat="59.0680664219" lon="29.9874025583"><ele>73.68</ele><time>2026-04-25T14:33:01Z</time></trkpt><trkpt lat="59.0680768993" lon="29.9874378461"><ele>73.68</ele><time>2026-04-25T14:33:14Z</time></trkpt><trkpt lat="59.0680796653" lon="29.9875443801"><ele>73.68</ele><time>2026-04-25T14:33:25Z</time></trkpt><trkpt lat="59.0681131091" lon="29.9876598828"><ele>73.68</ele><time>2026-04-25T14:33:39Z</time></trkpt><trkpt lat="59.0681080800" lon="29.9878068175"><ele>73.68</ele><time>2026-04-25T14:33:53Z</time></trkpt><trkpt lat="59.0681266040" lon="29.9879262596"><ele>73.68</ele><time>2026-04-25T14:34:05Z</time></trkpt><trkpt lat="59.0681344829" lon="29.9879945721"><ele>73.68</ele><time>2026-04-25T14:34:15Z</time></trkpt><trkpt lat="59.0681330580" lon="29.9880333804"><ele>73.68</ele><time>2026-04-25T14:34:28Z</time></trkpt><trkpt lat="59.0681642387" lon="29.9880582746"><ele>73.68</ele><time>2026-04-25T14:34:39Z</time></trkpt><trkpt lat="59.0681901388" lon="29.9880879465"><ele>73.68</ele><time>2026-04-25T14:34:49Z</time></trkpt><trkpt lat="59.0682272706" lon="29.9881441891"><ele>74.16</ele><time>2026-04-25T14:35:02Z</time></trkpt><trkpt lat="59.0682501532" lon="29.9882491305"><ele>74.16</ele><time>2026-04-25T14:35:14Z</time></trkpt><trkpt lat="59.0682625584" lon="29.9882860109"><ele>74.16</ele><time>2026-04-25T14:35:27Z</time></trkpt><trkpt lat="59.0682942420" lon="29.9883687403"><ele>74.16</ele><time>2026-04-25T14:35:37Z</time></trkpt><trkpt lat="59.0683102515" lon="29.9884492066"><ele>74.16</ele><time>2026-04-25T14:35:50Z</time></trkpt><trkpt lat="59.0683512390" lon="29.9885169324"><ele>74.16</ele><time>2026-04-25T14:35:59Z</time></trkpt><trkpt lat="59.0684235748" lon="29.9886450917"><ele>74.16</ele><time>2026-04-25T14:36:11Z</time></trkpt><trkpt lat="59.0684565157" lon="29.9887820520"><ele>74.16</ele><time>2026-04-25T14:36:25Z</time></trkpt><trkpt lat="59.0684262570" lon="29.9889993947"><ele>74.16</ele><time>2026-04-25T14:36:37Z</time></trkpt><trkpt lat="59.0684272628" lon="29.9890080281"><ele>74.16</ele><time>2026-04-25T14:36:38Z</time></trkpt><trkpt lat="59.0684608743" lon="29.9891796056"><ele>74.16</ele><time>2026-04-25T14:36:50Z</time></trkpt><trkpt lat="59.0684432723" lon="29.9893984571"><ele>74.64</ele><time>2026-04-25T14:37:02Z</time></trkpt><trkpt lat="59.0684139356" lon="29.9896119442"><ele>74.64</ele><time>2026-04-25T14:37:15Z</time></trkpt><trkpt lat="59.0684016980" lon="29.9897149578"><ele>74.64</ele><time>2026-04-25T14:37:26Z</time></trkpt><trkpt lat="59.0683968365" lon="29.9898439553"><ele>74.64</ele><time>2026-04-25T14:37:38Z</time></trkpt><trkpt lat="59.0683579445" lon="29.9901183788"><ele>74.64</ele><time>2026-04-25T14:37:52Z</time></trkpt><trkpt lat="59.0683313739" lon="29.9901696760"><ele>74.64</ele><time>2026-04-25T14:38:04Z</time></trkpt><trkpt lat="59.0683009475" lon="29.9902212247"><ele>74.64</ele><time>2026-04-25T14:38:18Z</time></trkpt><trkpt lat="59.0682532545" lon="29.9902365636"><ele>75.60</ele><time>2026-04-25T14:38:32Z</time></trkpt><trkpt lat="59.0681864507" lon="29.9902868550"><ele>75.60</ele><time>2026-04-25T14:38:46Z</time></trkpt><trkpt lat="59.0681473073" lon="29.9902778864"><ele>74.64</ele><time>2026-04-25T14:38:55Z</time></trkpt><trkpt lat="59.0681126062" lon="29.9903586041"><ele>75.12</ele><time>2026-04-25T14:39:18Z</time></trkpt><trkpt lat="59.0680908132" lon="29.9905013479"><ele>75.12</ele><time>2026-04-25T14:39:29Z</time></trkpt><trkpt lat="59.0680600516" lon="29.9907361250"><ele>75.12</ele><time>2026-04-25T14:39:40Z</time></trkpt><trkpt lat="59.0680354089" lon="29.9909249693"><ele>75.12</ele><time>2026-04-25T14:39:53Z</time></trkpt><trkpt lat="59.0680514183" lon="29.9910779390"><ele>75.12</ele><time>2026-04-25T14:40:01Z</time></trkpt><trkpt lat="59.0680770669" lon="29.9912037514"><ele>75.12</ele><time>2026-04-25T14:40:17Z</time></trkpt><trkpt lat="59.0681359079" lon="29.9913096149"><ele>75.60</ele><time>2026-04-25T14:40:29Z</time></trkpt><trkpt lat="59.0681516659" lon="29.9913808610"><ele>75.60</ele><time>2026-04-25T14:40:40Z</time></trkpt><trkpt lat="59.0681577846" lon="29.9913865607"><ele>75.60</ele><time>2026-04-25T14:40:42Z</time></trkpt><trkpt lat="59.0682566911" lon="29.9914734811"><ele>75.60</ele><time>2026-04-25T14:40:56Z</time></trkpt><trkpt lat="59.0683395043" lon="29.9916050769"><ele>76.08</ele><time>2026-04-25T14:41:08Z</time></trkpt><trkpt lat="59.0683977585" lon="29.9917194899"><ele>76.08</ele><time>2026-04-25T14:41:20Z</time></trkpt><trkpt lat="59.0684219822" lon="29.9918916542"><ele>76.08</ele><time>2026-04-25T14:41:32Z</time></trkpt><trkpt lat="59.0684498101" lon="29.9919148721"><ele>76.56</ele><time>2026-04-25T14:41:38Z</time></trkpt><trkpt lat="59.0684958268" lon="29.9921269342"><ele>76.56</ele><time>2026-04-25T14:41:51Z</time></trkpt><trkpt lat="59.0685539134" lon="29.9922395032"><ele>76.56</ele><time>2026-04-25T14:42:03Z</time></trkpt><trkpt lat="59.0685578529" lon="29.9924549181"><ele>76.56</ele><time>2026-04-25T14:42:15Z</time></trkpt><trkpt lat="59.0685508959" lon="29.9926730990"><ele>76.56</ele><time>2026-04-25T14:42:27Z</time></trkpt><trkpt lat="59.0685205534" lon="29.9929193594"><ele>76.56</ele><time>2026-04-25T14:42:41Z</time></trkpt><trkpt lat="59.0685107466" lon="29.9931302480"><ele>76.56</ele><time>2026-04-25T14:42:54Z</time></trkpt><trkpt lat="59.0685381554" lon="29.9933800288"><ele>76.56</ele><time>2026-04-25T14:43:10Z</time></trkpt><trkpt lat="59.0685823280" lon="29.9935402069"><ele>76.56</ele><time>2026-04-25T14:43:22Z</time></trkpt><trkpt lat="59.0686414205" lon="29.9936584756"><ele>76.56</ele><time>2026-04-25T14:43:36Z</time></trkpt><trkpt lat="59.0687072184" lon="29.9938524328"><ele>77.04</ele><time>2026-04-25T14:43:51Z</time></trkpt><trkpt lat="59.0687786322" lon="29.9939336535"><ele>77.04</ele><time>2026-04-25T14:44:01Z</time></trkpt><trkpt lat="59.0688207932" lon="29.9939291272"><ele>77.04</ele><time>2026-04-25T14:44:14Z</time></trkpt><trkpt lat="59.0688380599" lon="29.9939536024"><ele>77.04</ele><time>2026-04-25T14:44:34Z</time></trkpt><trkpt lat="59.0688386466" lon="29.9939610623"><ele>77.04</ele><time>2026-04-25T14:44:57Z</time></trkpt><trkpt lat="59.0688502975" lon="29.9939717073"><ele>77.52</ele><time>2026-04-25T14:45:20Z</time></trkpt><trkpt lat="59.0688753594" lon="29.9940137006"><ele>77.52</ele><time>2026-04-25T14:45:37Z</time></trkpt><trkpt lat="59.0688770358" lon="29.9940173887"><ele>77.52</ele><time>2026-04-25T14:45:53Z</time></trkpt><trkpt lat="59.0688941348" lon="29.9940299615"><ele>77.52</ele><time>2026-04-25T14:46:22Z</time></trkpt><trkpt lat="59.0689259861" lon="29.9940183945"><ele>77.52</ele><time>2026-04-25T14:46:43Z</time></trkpt><trkpt lat="59.0689362958" lon="29.9940033071"><ele>77.52</ele><time>2026-04-25T14:47:13Z</time></trkpt><trkpt lat="59.0689289197" lon="29.9939827714"><ele>77.52</ele><time>2026-04-25T14:47:39Z</time></trkpt><trkpt lat="59.0689107310" lon="29.9939544406"><ele>77.52</ele><time>2026-04-25T14:48:06Z</time></trkpt><trkpt lat="59.0688954759" lon="29.9939595535"><ele>77.52</ele><time>2026-04-25T14:48:36Z</time></trkpt><trkpt lat="59.0688698273" lon="29.9939286243"><ele>78.00</ele><time>2026-04-25T14:49:09Z</time></trkpt><trkpt lat="59.0688602719" lon="29.9939168058"><ele>78.48</ele><time>2026-04-25T14:49:45Z</time></trkpt><trkpt lat="59.0688684862" lon="29.9938768242"><ele>78.48</ele><time>2026-04-25T14:50:17Z</time></trkpt><trkpt lat="59.0688689891" lon="29.9938172288"><ele>78.97</ele><time>2026-04-25T14:50:50Z</time></trkpt><trkpt lat="59.0688694082" lon="29.9937984534"><ele>79.45</ele><time>2026-04-25T14:51:24Z</time></trkpt><trkpt lat="59.0688680671" lon="29.9939261097"><ele>79.93</ele><time>2026-04-25T14:51:50Z</time></trkpt><trkpt lat="59.0688689891" lon="29.9940020498"><ele>80.41</ele><time>2026-04-25T14:52:30Z</time></trkpt><trkpt lat="59.0688812267" lon="29.9940101802"><ele>80.89</ele><time>2026-04-25T14:53:06Z</time></trkpt><trkpt lat="59.0688855015" lon="29.9940037262"><ele>80.89</ele><time>2026-04-25T14:53:36Z</time></trkpt><trkpt lat="59.0688958112" lon="29.9940122757"><ele>81.37</ele><time>2026-04-25T14:54:11Z</time></trkpt><trkpt lat="59.0688940510" lon="29.9940090906"><ele>82.81</ele><time>2026-04-25T14:54:28Z</time></trkpt><trkpt lat="59.0688947216" lon="29.9940087553"><ele>84.73</ele><time>2026-04-25T14:54:32Z</time></trkpt><trkpt lat="59.0688948054" lon="29.9940086715"><ele>83.29</ele><time>2026-04-25T14:54:33Z</time></trkpt><trkpt lat="59.0688984096" lon="29.9940072466"><ele>82.81</ele><time>2026-04-25T14:54:52Z</time></trkpt><trkpt lat="59.0689190291" lon="29.9940413609"><ele>83.77</ele><time>2026-04-25T14:55:22Z</time></trkpt><trkpt lat="59.0689207055" lon="29.9940499105"><ele>83.77</ele><time>2026-04-25T14:55:43Z</time></trkpt><trkpt lat="59.0689414088" lon="29.9940427858"><ele>83.77</ele><time>2026-04-25T14:56:06Z</time></trkpt><trkpt lat="59.0689501259" lon="29.9940059893"><ele>83.77</ele><time>2026-04-25T14:56:18Z</time></trkpt><trkpt lat="59.0689475276" lon="29.9939668458"><ele>83.77</ele><time>2026-04-25T14:56:27Z</time></trkpt><trkpt lat="59.0690554027" lon="29.9938852899"><ele>84.25</ele><time>2026-04-25T14:56:41Z</time></trkpt><trkpt lat="59.0691897646" lon="29.9938045722"><ele>84.25</ele><time>2026-04-25T14:56:53Z</time></trkpt><trkpt lat="59.0692509525" lon="29.9937735591"><ele>84.73</ele><time>2026-04-25T14:57:04Z</time></trkpt><trkpt lat="59.0693429019" lon="29.9938255269"><ele>84.73</ele><time>2026-04-25T14:57:17Z</time></trkpt><trkpt lat="59.0694844723" lon="29.9937686138"><ele>84.73</ele><time>2026-04-25T14:57:29Z</time></trkpt><trkpt lat="59.0695944428" lon="29.9937344994"><ele>84.73</ele><time>2026-04-25T14:57:45Z</time></trkpt><trkpt lat="59.0697120409" lon="29.9936718028"><ele>85.21</ele><time>2026-04-25T14:57:56Z</time></trkpt><trkpt lat="59.0698311478" lon="29.9935762491"><ele>85.21</ele><time>2026-04-25T14:58:09Z</time></trkpt><trkpt lat="59.0699491650" lon="29.9935125466"><ele>85.21</ele><time>2026-04-25T14:58:21Z</time></trkpt><trkpt lat="59.0700707026" lon="29.9934859760"><ele>85.21</ele><time>2026-04-25T14:58:34Z</time></trkpt><trkpt lat="59.0701555274" lon="29.9934154004"><ele>85.21</ele><time>2026-04-25T14:58:48Z</time></trkpt><trkpt lat="59.0702369157" lon="29.9933431484"><ele>83.77</ele><time>2026-04-25T14:59:01Z</time></trkpt><trkpt lat="59.0702821780" lon="29.9933149014"><ele>83.77</ele><time>2026-04-25T14:59:07Z</time></trkpt><trkpt lat="59.0704098344" lon="29.9932403024"><ele>83.77</ele><time>2026-04-25T14:59:20Z</time></trkpt><trkpt lat="59.0704640653" lon="29.9932138156"><ele>83.77</ele><time>2026-04-25T14:59:36Z</time></trkpt><trkpt lat="59.0705415141" lon="29.9931439105"><ele>83.77</ele><time>2026-04-25T14:59:46Z</time></trkpt><trkpt lat="59.0705736168" lon="29.9931258895"><ele>83.77</ele><time>2026-04-25T14:59:49Z</time></trkpt><trkpt lat="59.0706246626" lon="29.9931428209"><ele>83.29</ele><time>2026-04-25T14:59:54Z</time></trkpt><trkpt lat="59.0706744511" lon="29.9931676313"><ele>83.29</ele><time>2026-04-25T15:00:05Z</time></trkpt><trkpt lat="59.0707430150" lon="29.9931559805"><ele>83.29</ele><time>2026-04-25T15:00:19Z</time></trkpt><trkpt lat="59.0707725193" lon="29.9931531306"><ele>83.29</ele><time>2026-04-25T15:00:23Z</time></trkpt><trkpt lat="59.0708180331" lon="29.9931393843"><ele>83.29</ele><time>2026-04-25T15:00:27Z</time></trkpt><trkpt lat="59.0709707513" lon="29.9931165017"><ele>83.29</ele><time>2026-04-25T15:00:41Z</time></trkpt><trkpt lat="59.0710576717" lon="29.9929942098"><ele>83.29</ele><time>2026-04-25T15:00:53Z</time></trkpt><trkpt lat="59.0710887685" lon="29.9929117318"><ele>83.29</ele><time>2026-04-25T15:01:05Z</time></trkpt><trkpt lat="59.0711802151" lon="29.9927643780"><ele>82.81</ele><time>2026-04-25T15:01:18Z</time></trkpt><trkpt lat="59.0712676384" lon="29.9926699139"><ele>82.33</ele><time>2026-04-25T15:01:30Z</time></trkpt><trkpt lat="59.0713161696" lon="29.9926336203"><ele>82.33</ele><time>2026-04-25T15:01:44Z</time></trkpt><trkpt lat="59.0713791177" lon="29.9926073011"><ele>81.85</ele><time>2026-04-25T15:01:57Z</time></trkpt><trkpt lat="59.0714377910" lon="29.9925979972"><ele>81.85</ele><time>2026-04-25T15:02:13Z</time></trkpt><trkpt lat="59.0714965481" lon="29.9925430957"><ele>81.85</ele><time>2026-04-25T15:02:24Z</time></trkpt><trkpt lat="59.0715547185" lon="29.9925205484"><ele>81.85</ele><time>2026-04-25T15:02:29Z</time></trkpt><trkpt lat="59.0716466680" lon="29.9923964962"><ele>81.85</ele><time>2026-04-25T15:02:42Z</time></trkpt><trkpt lat="59.0717138071" lon="29.9923141859"><ele>81.85</ele><time>2026-04-25T15:02:56Z</time></trkpt><trkpt lat="59.0717441496" lon="29.9923836719"><ele>81.85</ele><time>2026-04-25T15:03:07Z</time></trkpt><trkpt lat="59.0717700496" lon="29.9924265034"><ele>81.85</ele><time>2026-04-25T15:03:16Z</time></trkpt><trkpt lat="59.0718246996" lon="29.9924835842"><ele>81.85</ele><time>2026-04-25T15:03:29Z</time></trkpt><trkpt lat="59.0718382783" lon="29.9924809020"><ele>81.85</ele><time>2026-04-25T15:03:42Z</time></trkpt><trkpt lat="59.0719068423" lon="29.9924928881"><ele>81.85</ele><time>2026-04-25T15:03:53Z</time></trkpt><trkpt lat="59.0719687007" lon="29.9924435187"><ele>81.85</ele><time>2026-04-25T15:04:04Z</time></trkpt><trkpt lat="59.0720134601" lon="29.9923899584"><ele>81.85</ele><time>2026-04-25T15:04:15Z</time></trkpt><trkpt lat="59.0720936749" lon="29.9923632201"><ele>81.85</ele><time>2026-04-25T15:04:28Z</time></trkpt><trkpt lat="59.0721505042" lon="29.9923564307"><ele>81.85</ele><time>2026-04-25T15:04:40Z</time></trkpt><trkpt lat="59.0722255222" lon="29.9923064746"><ele>81.85</ele><time>2026-04-25T15:04:50Z</time></trkpt><trkpt lat="59.0723032225" lon="29.9922559317"><ele>81.85</ele><time>2026-04-25T15:05:04Z</time></trkpt><trkpt lat="59.0723139513" lon="29.9922503997"><ele>81.37</ele><time>2026-04-25T15:05:22Z</time></trkpt><trkpt lat="59.0723332297" lon="29.9922516569"><ele>81.37</ele><time>2026-04-25T15:05:39Z</time></trkpt><trkpt lat="59.0723511670" lon="29.9922628049"><ele>81.37</ele><time>2026-04-25T15:05:52Z</time></trkpt><trkpt lat="59.0723673441" lon="29.9922719412"><ele>81.37</ele><time>2026-04-25T15:06:11Z</time></trkpt><trkpt lat="59.0723660868" lon="29.9922486395"><ele>81.37</ele><time>2026-04-25T15:06:27Z</time></trkpt><trkpt lat="59.0724215750" lon="29.9922262598"><ele>81.37</ele><time>2026-04-25T15:06:37Z</time></trkpt><trkpt lat="59.0724534262" lon="29.9922591168"><ele>81.37</ele><time>2026-04-25T15:06:40Z</time></trkpt><trkpt lat="59.0725795738" lon="29.9922332168"><ele>81.37</ele><time>2026-04-25T15:06:53Z</time></trkpt><trkpt lat="59.0726596210" lon="29.9921730347"><ele>81.37</ele><time>2026-04-25T15:07:02Z</time></trkpt><trkpt lat="59.0727496427" lon="29.9921650719"><ele>81.37</ele><time>2026-04-25T15:07:16Z</time></trkpt><trkpt lat="59.0728444420" lon="29.9920762237"><ele>81.37</ele><time>2026-04-25T15:07:31Z</time></trkpt><trkpt lat="59.0729787201" lon="29.9919321388"><ele>81.37</ele><time>2026-04-25T15:07:45Z</time></trkpt><trkpt lat="59.0730730165" lon="29.9918905646"><ele>81.37</ele><time>2026-04-25T15:07:57Z</time></trkpt><trkpt lat="59.0731187817" lon="29.9918687716"><ele>81.37</ele><time>2026-04-25T15:08:09Z</time></trkpt><trkpt lat="59.0731904469" lon="29.9918046501"><ele>81.37</ele><time>2026-04-25T15:08:23Z</time></trkpt><trkpt lat="59.0733081289" lon="29.9917266145"><ele>81.37</ele><time>2026-04-25T15:08:38Z</time></trkpt><trkpt lat="59.0733390581" lon="29.9917107727"><ele>81.37</ele><time>2026-04-25T15:08:51Z</time></trkpt><trkpt lat="59.0733953845" lon="29.9916997924"><ele>81.37</ele><time>2026-04-25T15:09:07Z</time></trkpt><trkpt lat="59.0734634455" lon="29.9916733894"><ele>81.37</ele><time>2026-04-25T15:09:19Z</time></trkpt><trkpt lat="59.0735490248" lon="29.9916004669"><ele>81.37</ele><time>2026-04-25T15:09:30Z</time></trkpt><trkpt lat="59.0736254677" lon="29.9915259518"><ele>81.37</ele><time>2026-04-25T15:09:42Z</time></trkpt><trkpt lat="59.0737048443" lon="29.9914843775"><ele>79.93</ele><time>2026-04-25T15:09:55Z</time></trkpt><trkpt lat="59.0737849753" lon="29.9914501794"><ele>81.37</ele><time>2026-04-25T15:10:08Z</time></trkpt><trkpt lat="59.0738387872" lon="29.9914500955"><ele>81.37</ele><time>2026-04-25T15:10:27Z</time></trkpt><trkpt lat="59.0739007294" lon="29.9914223514"><ele>81.37</ele><time>2026-04-25T15:10:38Z</time></trkpt><trkpt lat="59.0739993844" lon="29.9913632590"><ele>81.37</ele><time>2026-04-25T15:10:51Z</time></trkpt><trkpt lat="59.0740775876" lon="29.9913331680"><ele>81.37</ele><time>2026-04-25T15:11:02Z</time></trkpt><trkpt lat="59.0741477441" lon="29.9912686273"><ele>80.41</ele><time>2026-04-25T15:11:16Z</time></trkpt><trkpt lat="59.0742731374" lon="29.9911895022"><ele>79.93</ele><time>2026-04-25T15:11:31Z</time></trkpt><trkpt lat="59.0742889792" lon="29.9911878258"><ele>80.89</ele><time>2026-04-25T15:11:34Z</time></trkpt><trkpt lat="59.0744090080" lon="29.9912480079"><ele>80.89</ele><time>2026-04-25T15:11:45Z</time></trkpt><trkpt lat="59.0744375903" lon="29.9911953695"><ele>79.93</ele><time>2026-04-25T15:12:00Z</time></trkpt><trkpt lat="59.0745048132" lon="29.9910637736"><ele>79.93</ele><time>2026-04-25T15:12:14Z</time></trkpt><trkpt lat="59.0745335631" lon="29.9909731653"><ele>79.93</ele><time>2026-04-25T15:12:27Z</time></trkpt><trkpt lat="59.0746216569" lon="29.9908321816"><ele>79.93</ele><time>2026-04-25T15:12:40Z</time></trkpt><trkpt lat="59.0746980160" lon="29.9907652941"><ele>79.93</ele><time>2026-04-25T15:12:54Z</time></trkpt><trkpt lat="59.0747614671" lon="29.9907589238"><ele>79.93</ele><time>2026-04-25T15:13:07Z</time></trkpt><trkpt lat="59.0748479683" lon="29.9907591753"><ele>79.45</ele><time>2026-04-25T15:13:19Z</time></trkpt><trkpt lat="59.0749681648" lon="29.9908135738"><ele>79.45</ele><time>2026-04-25T15:13:31Z</time></trkpt><trkpt lat="59.0750815719" lon="29.9907869194"><ele>79.45</ele><time>2026-04-25T15:13:44Z</time></trkpt><trkpt lat="59.0751616191" lon="29.9907765258"><ele>79.45</ele><time>2026-04-25T15:13:55Z</time></trkpt><trkpt lat="59.0752582625" lon="29.9907419924"><ele>79.45</ele><time>2026-04-25T15:14:09Z</time></trkpt><trkpt lat="59.0752722602" lon="29.9907465186"><ele>79.45</ele><time>2026-04-25T15:14:10Z</time></trkpt><trkpt lat="59.0753818955" lon="29.9907265697"><ele>79.45</ele><time>2026-04-25T15:14:23Z</time></trkpt><trkpt lat="59.0755250584" lon="29.9906844087"><ele>79.45</ele><time>2026-04-25T15:14:36Z</time></trkpt><trkpt lat="59.0755954664" lon="29.9906237237"><ele>79.45</ele><time>2026-04-25T15:14:49Z</time></trkpt><trkpt lat="59.0756640304" lon="29.9905406591"><ele>78.97</ele><time>2026-04-25T15:14:58Z</time></trkpt><trkpt lat="59.0757323429" lon="29.9905793834"><ele>78.97</ele><time>2026-04-25T15:15:09Z</time></trkpt><trkpt lat="59.0757957939" lon="29.9906099774"><ele>78.97</ele><time>2026-04-25T15:15:20Z</time></trkpt><trkpt lat="59.0758466721" lon="29.9905399885"><ele>78.97</ele><time>2026-04-25T15:15:32Z</time></trkpt><trkpt lat="59.0759578161" lon="29.9905225541"><ele>78.48</ele><time>2026-04-25T15:15:46Z</time></trkpt><trkpt lat="59.0760474186" lon="29.9904403277"><ele>78.48</ele><time>2026-04-25T15:15:58Z</time></trkpt><trkpt lat="59.0761093609" lon="29.9903346319"><ele>78.48</ele><time>2026-04-25T15:16:10Z</time></trkpt><trkpt lat="59.0761804394" lon="29.9902516510"><ele>78.48</ele><time>2026-04-25T15:16:24Z</time></trkpt><trkpt lat="59.0762514342" lon="29.9901999347"><ele>78.48</ele><time>2026-04-25T15:16:38Z</time></trkpt><trkpt lat="59.0763259493" lon="29.9901676644"><ele>78.48</ele><time>2026-04-25T15:16:50Z</time></trkpt><trkpt lat="59.0763868857" lon="29.9901219830"><ele>78.48</ele><time>2026-04-25T15:17:03Z</time></trkpt><trkpt lat="59.0764438827" lon="29.9900210649"><ele>78.48</ele><time>2026-04-25T15:17:18Z</time></trkpt><trkpt lat="59.0765080880" lon="29.9898676760"><ele>78.48</ele><time>2026-04-25T15:17:31Z</time></trkpt><trkpt lat="59.0765473153" lon="29.9898531754"><ele>78.00</ele><time>2026-04-25T15:17:46Z</time></trkpt><trkpt lat="59.0765626542" lon="29.9898675922"><ele>78.00</ele><time>2026-04-25T15:18:00Z</time></trkpt><trkpt lat="59.0766413603" lon="29.9899144471"><ele>78.00</ele><time>2026-04-25T15:18:13Z</time></trkpt><trkpt lat="59.0767175518" lon="29.9899880402"><ele>78.00</ele><time>2026-04-25T15:18:30Z</time></trkpt><trkpt lat="59.0767747164" lon="29.9899968412"><ele>78.00</ele><time>2026-04-25T15:18:43Z</time></trkpt><trkpt lat="59.0768923145" lon="29.9898522533"><ele>78.00</ele><time>2026-04-25T15:18:59Z</time></trkpt><trkpt lat="59.0769421868" lon="29.9898616411"><ele>78.00</ele><time>2026-04-25T15:19:13Z</time></trkpt><trkpt lat="59.0769866947" lon="29.9898865353"><ele>78.00</ele><time>2026-04-25T15:19:23Z</time></trkpt><trkpt lat="59.0771005210" lon="29.9898825120"><ele>78.00</ele><time>2026-04-25T15:19:36Z</time></trkpt><trkpt lat="59.0771166142" lon="29.9899198115"><ele>78.00</ele><time>2026-04-25T15:19:42Z</time></trkpt><trkpt lat="59.0772615373" lon="29.9899344798"><ele>77.04</ele><time>2026-04-25T15:19:57Z</time></trkpt><trkpt lat="59.0772909578" lon="29.9899092503"><ele>77.04</ele><time>2026-04-25T15:20:08Z</time></trkpt><trkpt lat="59.0773470327" lon="29.9898092542"><ele>77.04</ele><time>2026-04-25T15:20:20Z</time></trkpt><trkpt lat="59.0773465298" lon="29.9897447973"><ele>77.04</ele><time>2026-04-25T15:20:45Z</time></trkpt><trkpt lat="59.0773659758" lon="29.9898071587"><ele>77.04</ele><time>2026-04-25T15:21:14Z</time></trkpt><trkpt lat="59.0773763694" lon="29.9900759663"><ele>77.04</ele><time>2026-04-25T15:21:29Z</time></trkpt><trkpt lat="59.0773694124" lon="29.9901764654"><ele>77.04</ele><time>2026-04-25T15:21:39Z</time></trkpt><trkpt lat="59.0773666464" lon="29.9902109150"><ele>77.04</ele><time>2026-04-25T15:21:53Z</time></trkpt><trkpt lat="59.0773730166" lon="29.9902801495"><ele>77.04</ele><time>2026-04-25T15:22:07Z</time></trkpt><trkpt lat="59.0773839131" lon="29.9903414212"><ele>77.04</ele><time>2026-04-25T15:22:21Z</time></trkpt><trkpt lat="59.0773876850" lon="29.9904046208"><ele>77.52</ele><time>2026-04-25T15:22:45Z</time></trkpt><trkpt lat="59.0773780458" lon="29.9905164354"><ele>77.52</ele><time>2026-04-25T15:22:57Z</time></trkpt><trkpt lat="59.0773600247" lon="29.9906503782"><ele>77.52</ele><time>2026-04-25T15:23:11Z</time></trkpt><trkpt lat="59.0773291793" lon="29.9908613507"><ele>77.52</ele><time>2026-04-25T15:23:26Z</time></trkpt><trkpt lat="59.0773424227" lon="29.9910659529"><ele>78.00</ele><time>2026-04-25T15:23:38Z</time></trkpt><trkpt lat="59.0773306880" lon="29.9911908433"><ele>78.00</ele><time>2026-04-25T15:23:52Z</time></trkpt><trkpt lat="59.0773440152" lon="29.9913849682"><ele>78.00</ele><time>2026-04-25T15:24:04Z</time></trkpt><trkpt lat="59.0773044527" lon="29.9916866329"><ele>78.00</ele><time>2026-04-25T15:24:16Z</time></trkpt><trkpt lat="59.0772847552" lon="29.9919096753"><ele>78.00</ele><time>2026-04-25T15:24:27Z</time></trkpt><trkpt lat="59.0772601962" lon="29.9921625573"><ele>78.48</ele><time>2026-04-25T15:24:42Z</time></trkpt><trkpt lat="59.0772429295" lon="29.9922560994"><ele>78.48</ele><time>2026-04-25T15:24:54Z</time></trkpt><trkpt lat="59.0772202983" lon="29.9924798124"><ele>78.48</ele><time>2026-04-25T15:25:10Z</time></trkpt><trkpt lat="59.0771683306" lon="29.9927321915"><ele>78.97</ele><time>2026-04-25T15:25:22Z</time></trkpt><trkpt lat="59.0771596134" lon="29.9929381348"><ele>78.97</ele><time>2026-04-25T15:25:34Z</time></trkpt><trkpt lat="59.0771648940" lon="29.9930963013"><ele>79.45</ele><time>2026-04-25T15:25:46Z</time></trkpt><trkpt lat="59.0771568473" lon="29.9931284040"><ele>79.45</ele><time>2026-04-25T15:26:01Z</time></trkpt><trkpt lat="59.0771457832" lon="29.9931414798"><ele>79.45</ele><time>2026-04-25T15:26:24Z</time></trkpt><trkpt lat="59.0771532431" lon="29.9931505322"><ele>79.45</ele><time>2026-04-25T15:26:39Z</time></trkpt><trkpt lat="59.0772299375" lon="29.9931266438"><ele>79.45</ele><time>2026-04-25T15:26:53Z</time></trkpt><trkpt lat="59.0772390738" lon="29.9931246322"><ele>79.45</ele><time>2026-04-25T15:27:23Z</time></trkpt><trkpt lat="59.0772378165" lon="29.9931151606"><ele>79.45</ele><time>2026-04-25T15:27:47Z</time></trkpt><trkpt lat="59.0772371460" lon="29.9931205250"><ele>79.45</ele><time>2026-04-25T15:28:10Z</time></trkpt><trkpt lat="59.0772345476" lon="29.9931186810"><ele>79.45</ele><time>2026-04-25T15:28:32Z</time></trkpt><trkpt lat="59.0772179514" lon="29.9930973072"><ele>80.41</ele><time>2026-04-25T15:29:04Z</time></trkpt><trkpt lat="59.0772181191" lon="29.9931018334"><ele>80.41</ele><time>2026-04-25T15:29:19Z</time></trkpt><trkpt lat="59.0772208851" lon="29.9931096286"><ele>80.41</ele><time>2026-04-25T15:29:45Z</time></trkpt><trkpt lat="59.0772178676" lon="29.9930997379"><ele>80.41</ele><time>2026-04-25T15:30:14Z</time></trkpt><trkpt lat="59.0772294346" lon="29.9931369536"><ele>80.41</ele><time>2026-04-25T15:30:36Z</time></trkpt><trkpt lat="59.0772382356" lon="29.9932416435"><ele>80.41</ele><time>2026-04-25T15:30:47Z</time></trkpt><trkpt lat="59.0772125870" lon="29.9934866466"><ele>80.41</ele><time>2026-04-25T15:30:59Z</time></trkpt><trkpt lat="59.0771634690" lon="29.9936547875"><ele>80.41</ele><time>2026-04-25T15:31:11Z</time></trkpt><trkpt lat="59.0771129262" lon="29.9938175641"><ele>80.41</ele><time>2026-04-25T15:31:23Z</time></trkpt><trkpt lat="59.0770868585" lon="29.9939934164"><ele>80.89</ele><time>2026-04-25T15:31:36Z</time></trkpt><trkpt lat="59.0770321246" lon="29.9941354059"><ele>81.37</ele><time>2026-04-25T15:31:48Z</time></trkpt><trkpt lat="59.0769621357" lon="29.9942808319"><ele>81.37</ele><time>2026-04-25T15:32:02Z</time></trkpt><trkpt lat="59.0769085754" lon="29.9943986814"><ele>81.37</ele><time>2026-04-25T15:32:13Z</time></trkpt><trkpt lat="59.0768479742" lon="29.9945727736"><ele>81.37</ele><time>2026-04-25T15:32:26Z</time></trkpt><trkpt lat="59.0768212359" lon="29.9947649706"><ele>81.37</ele><time>2026-04-25T15:32:38Z</time></trkpt><trkpt lat="59.0768423583" lon="29.9948983267"><ele>81.37</ele><time>2026-04-25T15:32:49Z</time></trkpt><trkpt lat="59.0768317133" lon="29.9950130749"><ele>81.37</ele><time>2026-04-25T15:32:59Z</time></trkpt><trkpt lat="59.0768006165" lon="29.9951819703"><ele>81.37</ele><time>2026-04-25T15:33:12Z</time></trkpt><trkpt lat="59.0767789911" lon="29.9953051005"><ele>81.37</ele><time>2026-04-25T15:33:23Z</time></trkpt><trkpt lat="59.0767459664" lon="29.9954218604"><ele>81.85</ele><time>2026-04-25T15:33:34Z</time></trkpt><trkpt lat="59.0766991954" lon="29.9955900013"><ele>82.33</ele><time>2026-04-25T15:33:46Z</time></trkpt><trkpt lat="59.0766314697" lon="29.9956864771"><ele>82.33</ele><time>2026-04-25T15:33:58Z</time></trkpt><trkpt lat="59.0765675157" lon="29.9957979564"><ele>82.33</ele><time>2026-04-25T15:34:09Z</time></trkpt><trkpt lat="59.0765106026" lon="29.9958800990"><ele>82.33</ele><time>2026-04-25T15:34:20Z</time></trkpt><trkpt lat="59.0765070822" lon="29.9959275406"><ele>82.33</ele><time>2026-04-25T15:34:30Z</time></trkpt><trkpt lat="59.0765371732" lon="29.9959838670"><ele>80.89</ele><time>2026-04-25T15:34:37Z</time></trkpt><trkpt lat="59.0765880514" lon="29.9961561151"><ele>81.85</ele><time>2026-04-25T15:34:51Z</time></trkpt><trkpt lat="59.0765841119" lon="29.9962515011"><ele>82.33</ele><time>2026-04-25T15:35:02Z</time></trkpt><trkpt lat="59.0765767358" lon="29.9963903893"><ele>82.33</ele><time>2026-04-25T15:35:14Z</time></trkpt><trkpt lat="59.0765767358" lon="29.9965251703"><ele>82.33</ele><time>2026-04-25T15:35:26Z</time></trkpt><trkpt lat="59.0765924100" lon="29.9966106657"><ele>82.33</ele><time>2026-04-25T15:35:40Z</time></trkpt><trkpt lat="59.0765732992" lon="29.9966963287"><ele>82.33</ele><time>2026-04-25T15:35:51Z</time></trkpt><trkpt lat="59.0765509196" lon="29.9967623781"><ele>82.33</ele><time>2026-04-25T15:36:04Z</time></trkpt><trkpt lat="59.0765103512" lon="29.9968058802"><ele>82.33</ele><time>2026-04-25T15:36:14Z</time></trkpt><trkpt lat="59.0765048191" lon="29.9969271664"><ele>82.33</ele><time>2026-04-25T15:36:25Z</time></trkpt><trkpt lat="59.0764715429" lon="29.9970547389"><ele>82.33</ele><time>2026-04-25T15:36:36Z</time></trkpt><trkpt lat="59.0764441341" lon="29.9971720017"><ele>82.33</ele><time>2026-04-25T15:36:47Z</time></trkpt><trkpt lat="59.0764656756" lon="29.9973250553"><ele>82.33</ele><time>2026-04-25T15:37:00Z</time></trkpt><trkpt lat="59.0764344949" lon="29.9973570742"><ele>82.33</ele><time>2026-04-25T15:37:12Z</time></trkpt><trkpt lat="59.0764102712" lon="29.9973623548"><ele>82.33</ele><time>2026-04-25T15:37:24Z</time></trkpt><trkpt lat="59.0764085948" lon="29.9973463453"><ele>82.81</ele><time>2026-04-25T15:37:50Z</time></trkpt><trkpt lat="59.0764028113" lon="29.9973349459"><ele>82.81</ele><time>2026-04-25T15:38:12Z</time></trkpt><trkpt lat="59.0764057450" lon="29.9973299168"><ele>82.81</ele><time>2026-04-25T15:38:32Z</time></trkpt><trkpt lat="59.0764061641" lon="29.9973248038"><ele>79.45</ele><time>2026-04-25T15:38:46Z</time></trkpt><trkpt lat="59.0764057450" lon="29.9973198585"><ele>81.85</ele><time>2026-04-25T15:39:05Z</time></trkpt><trkpt lat="59.0764058288" lon="29.9973061960"><ele>81.85</ele><time>2026-04-25T15:39:19Z</time></trkpt><trkpt lat="59.0764096845" lon="29.9972950481"><ele>81.85</ele><time>2026-04-25T15:39:41Z</time></trkpt><trkpt lat="59.0764101036" lon="29.9973065313"><ele>83.29</ele><time>2026-04-25T15:40:05Z</time></trkpt><trkpt lat="59.0764090139" lon="29.9973247200"><ele>83.29</ele><time>2026-04-25T15:40:29Z</time></trkpt><trkpt lat="59.0764082596" lon="29.9973382149"><ele>83.29</ele><time>2026-04-25T15:40:47Z</time></trkpt><trkpt lat="59.0764143784" lon="29.9973094650"><ele>83.29</ele><time>2026-04-25T15:40:59Z</time></trkpt><trkpt lat="59.0764222573" lon="29.9972139113"><ele>83.29</ele><time>2026-04-25T15:41:08Z</time></trkpt><trkpt lat="59.0764320642" lon="29.9970067106"><ele>83.29</ele><time>2026-04-25T15:41:21Z</time></trkpt><trkpt lat="59.0764313098" lon="29.9968348816"><ele>83.29</ele><time>2026-04-25T15:41:35Z</time></trkpt><trkpt lat="59.0764360875" lon="29.9966487195"><ele>83.29</ele><time>2026-04-25T15:41:49Z</time></trkpt><trkpt lat="59.0764556173" lon="29.9965375755"><ele>83.29</ele><time>2026-04-25T15:42:02Z</time></trkpt><trkpt lat="59.0764581319" lon="29.9964419380"><ele>83.29</ele><time>2026-04-25T15:42:11Z</time></trkpt><trkpt lat="59.0764502529" lon="29.9963598792"><ele>83.29</ele><time>2026-04-25T15:42:20Z</time></trkpt><trkpt lat="59.0764391888" lon="29.9961727113"><ele>83.29</ele><time>2026-04-25T15:42:32Z</time></trkpt><trkpt lat="59.0764408652" lon="29.9961134512"><ele>83.29</ele><time>2026-04-25T15:42:42Z</time></trkpt><trkpt lat="59.0764306393" lon="29.9959885608"><ele>83.29</ele><time>2026-04-25T15:42:53Z</time></trkpt><trkpt lat="59.0764377639" lon="29.9958372675"><ele>83.29</ele><time>2026-04-25T15:43:05Z</time></trkpt><trkpt lat="59.0764524322" lon="29.9956184160"><ele>83.29</ele><time>2026-04-25T15:43:17Z</time></trkpt><trkpt lat="59.0764793381" lon="29.9954096228"><ele>83.29</ele><time>2026-04-25T15:43:29Z</time></trkpt><trkpt lat="59.0764916595" lon="29.9952711537"><ele>83.29</ele><time>2026-04-25T15:43:39Z</time></trkpt><trkpt lat="59.0765040647" lon="29.9952164199"><ele>83.29</ele><time>2026-04-25T15:43:55Z</time></trkpt><trkpt lat="59.0765152965" lon="29.9951513764"><ele>83.29</ele><time>2026-04-25T15:44:05Z</time></trkpt><trkpt lat="59.0765330661" lon="29.9949757755"><ele>83.29</ele><time>2026-04-25T15:44:16Z</time></trkpt><trkpt lat="59.0765789151" lon="29.9948014319"><ele>83.29</ele><time>2026-04-25T15:44:28Z</time></trkpt><trkpt lat="59.0765851177" lon="29.9946187064"><ele>83.29</ele><time>2026-04-25T15:44:40Z</time></trkpt><trkpt lat="59.0765811782" lon="29.9944077339"><ele>83.29</ele><time>2026-04-25T15:44:54Z</time></trkpt><trkpt lat="59.0765770711" lon="29.9942913931"><ele>83.29</ele><time>2026-04-25T15:45:05Z</time></trkpt><trkpt lat="59.0765598882" lon="29.9940877967"><ele>83.29</ele><time>2026-04-25T15:45:19Z</time></trkpt><trkpt lat="59.0765305515" lon="29.9939240143"><ele>83.29</ele><time>2026-04-25T15:45:29Z</time></trkpt><trkpt lat="59.0765168052" lon="29.9937584717"><ele>81.85</ele><time>2026-04-25T15:45:43Z</time></trkpt><trkpt lat="59.0765132848" lon="29.9936599843"><ele>81.85</ele><time>2026-04-25T15:45:54Z</time></trkpt><trkpt lat="59.0765003767" lon="29.9935835414"><ele>81.85</ele><time>2026-04-25T15:46:01Z</time></trkpt><trkpt lat="59.0764726326" lon="29.9934286438"><ele>81.85</ele><time>2026-04-25T15:46:14Z</time></trkpt><trkpt lat="59.0764971916" lon="29.9933141470"><ele>81.85</ele><time>2026-04-25T15:46:23Z</time></trkpt><trkpt lat="59.0764979459" lon="29.9932270590"><ele>81.85</ele><time>2026-04-25T15:46:38Z</time></trkpt><trkpt lat="59.0765160508" lon="29.9930575769"><ele>81.37</ele><time>2026-04-25T15:46:52Z</time></trkpt><trkpt lat="59.0765506681" lon="29.9927712511"><ele>81.37</ele><time>2026-04-25T15:47:05Z</time></trkpt><trkpt lat="59.0765499137" lon="29.9925538246"><ele>81.37</ele><time>2026-04-25T15:47:16Z</time></trkpt><trkpt lat="59.0765420347" lon="29.9923614599"><ele>80.89</ele><time>2026-04-25T15:47:30Z</time></trkpt><trkpt lat="59.0765342396" lon="29.9922297802"><ele>80.89</ele><time>2026-04-25T15:47:43Z</time></trkpt><trkpt lat="59.0765696950" lon="29.9919831846"><ele>80.89</ele><time>2026-04-25T15:47:56Z</time></trkpt><trkpt lat="59.0765599720" lon="29.9916821904"><ele>80.89</ele><time>2026-04-25T15:48:05Z</time></trkpt><trkpt lat="59.0765388496" lon="29.9913806934"><ele>80.89</ele><time>2026-04-25T15:48:19Z</time></trkpt><trkpt lat="59.0765462257" lon="29.9911949504"><ele>80.89</ele><time>2026-04-25T15:48:31Z</time></trkpt><trkpt lat="59.0765675995" lon="29.9911111314"><ele>80.89</ele><time>2026-04-25T15:48:43Z</time></trkpt><trkpt lat="59.0765707847" lon="29.9910936970"><ele>80.89</ele><time>2026-04-25T15:48:56Z</time></trkpt><trkpt lat="59.0765179787" lon="29.9910677131"><ele>80.89</ele><time>2026-04-25T15:49:10Z</time></trkpt><trkpt lat="59.0764814336" lon="29.9910208583"><ele>80.89</ele><time>2026-04-25T15:49:16Z</time></trkpt><trkpt lat="59.0763853770" lon="29.9909150787"><ele>80.89</ele><time>2026-04-25T15:49:28Z</time></trkpt><trkpt lat="59.0762646776" lon="29.9908548966"><ele>80.89</ele><time>2026-04-25T15:49:42Z</time></trkpt><trkpt lat="59.0762326587" lon="29.9908243027"><ele>80.89</ele><time>2026-04-25T15:49:56Z</time></trkpt><trkpt lat="59.0762018133" lon="29.9908517115"><ele>80.41</ele><time>2026-04-25T15:50:06Z</time></trkpt><trkpt lat="59.0761046670" lon="29.9909337703"><ele>80.41</ele><time>2026-04-25T15:50:20Z</time></trkpt><trkpt lat="59.0760422219" lon="29.9909273162"><ele>80.41</ele><time>2026-04-25T15:50:30Z</time></trkpt><trkpt lat="59.0759741608" lon="29.9910412263"><ele>80.41</ele><time>2026-04-25T15:50:42Z</time></trkpt><trkpt lat="59.0759747475" lon="29.9911035877"><ele>80.41</ele><time>2026-04-25T15:50:57Z</time></trkpt><trkpt lat="59.0759704728" lon="29.9912158214"><ele>80.41</ele><time>2026-04-25T15:51:11Z</time></trkpt><trkpt lat="59.0759722330" lon="29.9912470020"><ele>80.41</ele><time>2026-04-25T15:51:32Z</time></trkpt><trkpt lat="59.0759318322" lon="29.9913568050"><ele>80.41</ele><time>2026-04-25T15:51:54Z</time></trkpt><trkpt lat="59.0758931078" lon="29.9915123731"><ele>80.41</ele><time>2026-04-25T15:52:07Z</time></trkpt><trkpt lat="59.0758631844" lon="29.9916900694"><ele>80.41</ele><time>2026-04-25T15:52:20Z</time></trkpt><trkpt lat="59.0758243762" lon="29.9919500761"><ele>80.41</ele><time>2026-04-25T15:52:34Z</time></trkpt><trkpt lat="59.0757580753" lon="29.9921935704"><ele>80.41</ele><time>2026-04-25T15:52:47Z</time></trkpt><trkpt lat="59.0757904295" lon="29.9924327899"><ele>80.41</ele><time>2026-04-25T15:52:57Z</time></trkpt><trkpt lat="59.0757610090" lon="29.9926173594"><ele>80.41</ele><time>2026-04-25T15:53:11Z</time></trkpt><trkpt lat="59.0757367015" lon="29.9928098917"><ele>80.41</ele><time>2026-04-25T15:53:24Z</time></trkpt><trkpt lat="59.0757521242" lon="29.9928839877"><ele>80.41</ele><time>2026-04-25T15:53:36Z</time></trkpt><trkpt lat="59.0757523756" lon="29.9929021765"><ele>80.41</ele><time>2026-04-25T15:53:40Z</time></trkpt><trkpt lat="59.0757657029" lon="29.9929771945"><ele>80.41</ele><time>2026-04-25T15:53:51Z</time></trkpt><trkpt lat="59.0757797845" lon="29.9930761009"><ele>80.41</ele><time>2026-04-25T15:54:03Z</time></trkpt><trkpt lat="59.0758275613" lon="29.9931538850"><ele>80.41</ele><time>2026-04-25T15:54:15Z</time></trkpt><trkpt lat="59.0758403856" lon="29.9932853971"><ele>80.41</ele><time>2026-04-25T15:54:25Z</time></trkpt><trkpt lat="59.0758344345" lon="29.9933687132"><ele>80.41</ele><time>2026-04-25T15:54:37Z</time></trkpt><trkpt lat="59.0758441575" lon="29.9934699666"><ele>80.41</ele><time>2026-04-25T15:54:51Z</time></trkpt><trkpt lat="59.0758536290" lon="29.9936440587"><ele>80.41</ele><time>2026-04-25T15:55:04Z</time></trkpt><trkpt lat="59.0758599993" lon="29.9936821964"><ele>81.85</ele><time>2026-04-25T15:55:07Z</time></trkpt><trkpt lat="59.0758789424" lon="29.9938490801"><ele>81.85</ele><time>2026-04-25T15:55:20Z</time></trkpt><trkpt lat="59.0758662857" lon="29.9940622319"><ele>81.85</ele><time>2026-04-25T15:55:33Z</time></trkpt><trkpt lat="59.0758894198" lon="29.9942659121"><ele>81.85</ele><time>2026-04-25T15:55:46Z</time></trkpt><trkpt lat="59.0759066865" lon="29.9943820015"><ele>81.85</ele><time>2026-04-25T15:56:00Z</time></trkpt><trkpt lat="59.0759086143" lon="29.9945868552"><ele>81.85</ele><time>2026-04-25T15:56:12Z</time></trkpt><trkpt lat="59.0758953709" lon="29.9948486220"><ele>81.85</ele><time>2026-04-25T15:56:26Z</time></trkpt><trkpt lat="59.0758713149" lon="29.9949885998"><ele>81.85</ele><time>2026-04-25T15:56:38Z</time></trkpt><trkpt lat="59.0758983884" lon="29.9950785376"><ele>81.85</ele><time>2026-04-25T15:56:49Z</time></trkpt><trkpt lat="59.0758920182" lon="29.9952108040"><ele>81.85</ele><time>2026-04-25T15:57:06Z</time></trkpt><trkpt lat="59.0758753382" lon="29.9953734968"><ele>81.85</ele><time>2026-04-25T15:57:20Z</time></trkpt><trkpt lat="59.0758604184" lon="29.9955800269"><ele>81.85</ele><time>2026-04-25T15:57:32Z</time></trkpt><trkpt lat="59.0758414753" lon="29.9958250299"><ele>81.85</ele><time>2026-04-25T15:57:46Z</time></trkpt><trkpt lat="59.0758116357" lon="29.9960836954"><ele>81.85</ele><time>2026-04-25T15:57:59Z</time></trkpt><trkpt lat="59.0757706482" lon="29.9961179774"><ele>81.85</ele><time>2026-04-25T15:58:06Z</time></trkpt><trkpt lat="59.0757582430" lon="29.9962886330"><ele>81.85</ele><time>2026-04-25T15:58:18Z</time></trkpt><trkpt lat="59.0757708158" lon="29.9964338914"><ele>81.85</ele><time>2026-04-25T15:58:30Z</time></trkpt><trkpt lat="59.0758046787" lon="29.9965700135"><ele>81.85</ele><time>2026-04-25T15:58:41Z</time></trkpt><trkpt lat="59.0758215263" lon="29.9967317004"><ele>81.85</ele><time>2026-04-25T15:58:56Z</time></trkpt><trkpt lat="59.0758272260" lon="29.9968793895"><ele>81.85</ele><time>2026-04-25T15:59:08Z</time></trkpt><trkpt lat="59.0758221131" lon="29.9970585108"><ele>81.85</ele><time>2026-04-25T15:59:21Z</time></trkpt><trkpt lat="59.0758159105" lon="29.9970896076"><ele>81.85</ele><time>2026-04-25T15:59:24Z</time></trkpt><trkpt lat="59.0758177545" lon="29.9972678069"><ele>81.85</ele><time>2026-04-25T15:59:36Z</time></trkpt><trkpt lat="59.0758636035" lon="29.9973698985"><ele>81.85</ele><time>2026-04-25T15:59:49Z</time></trkpt><trkpt lat="59.0758477617" lon="29.9975195155"><ele>81.85</ele><time>2026-04-25T16:00:02Z</time></trkpt><trkpt lat="59.0758233704" lon="29.9976194277"><ele>81.85</ele><time>2026-04-25T16:00:12Z</time></trkpt><trkpt lat="59.0757853165" lon="29.9976518657"><ele>81.85</ele><time>2026-04-25T16:00:19Z</time></trkpt><trkpt lat="59.0758159943" lon="29.9977912568"><ele>81.85</ele><time>2026-04-25T16:00:31Z</time></trkpt><trkpt lat="59.0758144017" lon="29.9978068471"><ele>81.85</ele><time>2026-04-25T16:00:43Z</time></trkpt><trkpt lat="59.0757970512" lon="29.9977780133"><ele>81.85</ele><time>2026-04-25T16:00:56Z</time></trkpt><trkpt lat="59.0757332649" lon="29.9977406301"><ele>81.85</ele><time>2026-04-25T16:01:07Z</time></trkpt><trkpt lat="59.0756693948" lon="29.9977206811"><ele>82.81</ele><time>2026-04-25T16:01:18Z</time></trkpt><trkpt lat="59.0755633637" lon="29.9977077730"><ele>82.81</ele><time>2026-04-25T16:01:32Z</time></trkpt><trkpt lat="59.0754738450" lon="29.9977476709"><ele>82.81</ele><time>2026-04-25T16:01:44Z</time></trkpt><trkpt lat="59.0753701609" lon="29.9977790192"><ele>82.81</ele><time>2026-04-25T16:01:57Z</time></trkpt><trkpt lat="59.0753425844" lon="29.9978004768"><ele>82.81</ele><time>2026-04-25T16:02:01Z</time></trkpt><trkpt lat="59.0752900299" lon="29.9978210963"><ele>82.81</ele><time>2026-04-25T16:02:08Z</time></trkpt><trkpt lat="59.0752725117" lon="29.9978169892"><ele>82.81</ele><time>2026-04-25T16:02:10Z</time></trkpt><trkpt lat="59.0751956496" lon="29.9978506006"><ele>83.29</ele><time>2026-04-25T16:02:19Z</time></trkpt><trkpt lat="59.0751896147" lon="29.9978113733"><ele>83.29</ele><time>2026-04-25T16:02:37Z</time></trkpt><trkpt lat="59.0751892794" lon="29.9978048354"><ele>83.29</ele><time>2026-04-25T16:02:57Z</time></trkpt><trkpt lat="59.0751868486" lon="29.9978054222"><ele>83.29</ele><time>2026-04-25T16:03:14Z</time></trkpt><trkpt lat="59.0752019361" lon="29.9977391213"><ele>83.29</ele><time>2026-04-25T16:03:32Z</time></trkpt><trkpt lat="59.0752028581" lon="29.9975068588"><ele>83.29</ele><time>2026-04-25T16:03:46Z</time></trkpt><trkpt lat="59.0752194542" lon="29.9973699823"><ele>83.29</ele><time>2026-04-25T16:03:55Z</time></trkpt><trkpt lat="59.0752482042" lon="29.9972301722"><ele>83.29</ele><time>2026-04-25T16:04:07Z</time></trkpt><trkpt lat="59.0752431750" lon="29.9970444292"><ele>83.29</ele><time>2026-04-25T16:04:18Z</time></trkpt><trkpt lat="59.0752142575" lon="29.9967854284"><ele>83.29</ele><time>2026-04-25T16:04:33Z</time></trkpt><trkpt lat="59.0751799755" lon="29.9965832569"><ele>83.29</ele><time>2026-04-25T16:04:46Z</time></trkpt><trkpt lat="59.0751836635" lon="29.9965232424"><ele>83.29</ele><time>2026-04-25T16:04:50Z</time></trkpt><trkpt lat="59.0752059594" lon="29.9962978531"><ele>83.29</ele><time>2026-04-25T16:05:05Z</time></trkpt><trkpt lat="59.0752230585" lon="29.9961185642"><ele>83.29</ele><time>2026-04-25T16:05:18Z</time></trkpt><trkpt lat="59.0752329491" lon="29.9959171470"><ele>83.29</ele><time>2026-04-25T16:05:30Z</time></trkpt><trkpt lat="59.0752360504" lon="29.9957394507"><ele>83.29</ele><time>2026-04-25T16:05:44Z</time></trkpt><trkpt lat="59.0752576757" lon="29.9956446514"><ele>83.77</ele><time>2026-04-25T16:05:59Z</time></trkpt><trkpt lat="59.0752554126" lon="29.9953844771"><ele>83.77</ele><time>2026-04-25T16:06:12Z</time></trkpt><trkpt lat="59.0752657223" lon="29.9951470178"><ele>83.77</ele><time>2026-04-25T16:06:26Z</time></trkpt><trkpt lat="59.0752860904" lon="29.9949388951"><ele>83.77</ele><time>2026-04-25T16:06:40Z</time></trkpt><trkpt lat="59.0752958972" lon="29.9948531482"><ele>83.77</ele><time>2026-04-25T16:06:55Z</time></trkpt><trkpt lat="59.0753097273" lon="29.9948356301"><ele>83.77</ele><time>2026-04-25T16:07:20Z</time></trkpt><trkpt lat="59.0753340349" lon="29.9946006853"><ele>83.77</ele><time>2026-04-25T16:07:37Z</time></trkpt><trkpt lat="59.0753177740" lon="29.9943814147"><ele>83.77</ele><time>2026-04-25T16:07:49Z</time></trkpt><trkpt lat="59.0752689075" lon="29.9942948297"><ele>83.77</ele><time>2026-04-25T16:08:00Z</time></trkpt><trkpt lat="59.0752499644" lon="29.9941496551"><ele>83.77</ele><time>2026-04-25T16:08:10Z</time></trkpt><trkpt lat="59.0752414148" lon="29.9940725416"><ele>83.77</ele><time>2026-04-25T16:08:24Z</time></trkpt><trkpt lat="59.0752420016" lon="29.9940354098"><ele>83.77</ele><time>2026-04-25T16:08:42Z</time></trkpt><trkpt lat="59.0752311889" lon="29.9939218350"><ele>83.77</ele><time>2026-04-25T16:08:53Z</time></trkpt><trkpt lat="59.0752020199" lon="29.9936864711"><ele>83.77</ele><time>2026-04-25T16:09:06Z</time></trkpt><trkpt lat="59.0751925483" lon="29.9934703857"><ele>83.77</ele><time>2026-04-25T16:09:20Z</time></trkpt><trkpt lat="59.0752316080" lon="29.9933187570"><ele>83.77</ele><time>2026-04-25T16:09:31Z</time></trkpt><trkpt lat="59.0752356313" lon="29.9931294937"><ele>82.81</ele><time>2026-04-25T16:09:44Z</time></trkpt><trkpt lat="59.0752061270" lon="29.9929647893"><ele>82.81</ele><time>2026-04-25T16:09:58Z</time></trkpt><trkpt lat="59.0752153471" lon="29.9927311018"><ele>82.81</ele><time>2026-04-25T16:10:11Z</time></trkpt><trkpt lat="59.0752312727" lon="29.9926144257"><ele>82.81</ele><time>2026-04-25T16:10:25Z</time></trkpt><trkpt lat="59.0752456896" lon="29.9925319478"><ele>82.81</ele><time>2026-04-25T16:10:43Z</time></trkpt><trkpt lat="59.0752493776" lon="29.9923268426"><ele>82.81</ele><time>2026-04-25T16:10:55Z</time></trkpt><trkpt lat="59.0752638783" lon="29.9921518285"><ele>82.81</ele><time>2026-04-25T16:11:07Z</time></trkpt><trkpt lat="59.0752525628" lon="29.9921252578"><ele>82.81</ele><time>2026-04-25T16:11:22Z</time></trkpt><trkpt lat="59.0752422530" lon="29.9920613877"><ele>82.81</ele><time>2026-04-25T16:11:48Z</time></trkpt><trkpt lat="59.0752287582" lon="29.9920797441"><ele>82.81</ele><time>2026-04-25T16:12:00Z</time></trkpt><trkpt lat="59.0751000121" lon="29.9920526706"><ele>82.81</ele><time>2026-04-25T16:12:14Z</time></trkpt><trkpt lat="59.0749800671" lon="29.9920394272"><ele>82.81</ele><time>2026-04-25T16:12:27Z</time></trkpt><trkpt lat="59.0749358945" lon="29.9920204841"><ele>82.81</ele><time>2026-04-25T16:12:35Z</time></trkpt><trkpt lat="59.0748128481" lon="29.9920896348"><ele>82.81</ele><time>2026-04-25T16:12:49Z</time></trkpt><trkpt lat="59.0747580305" lon="29.9920561071"><ele>82.81</ele><time>2026-04-25T16:13:00Z</time></trkpt><trkpt lat="59.0746761393" lon="29.9920526706"><ele>82.33</ele><time>2026-04-25T16:13:13Z</time></trkpt><trkpt lat="59.0746016242" lon="29.9920243397"><ele>82.33</ele><time>2026-04-25T16:13:27Z</time></trkpt><trkpt lat="59.0746085811" lon="29.9920577835"><ele>82.33</ele><time>2026-04-25T16:13:53Z</time></trkpt><trkpt lat="59.0746299550" lon="29.9921252578"><ele>82.33</ele><time>2026-04-25T16:14:08Z</time></trkpt><trkpt lat="59.0746020433" lon="29.9921870325"><ele>82.33</ele><time>2026-04-25T16:14:19Z</time></trkpt><trkpt lat="59.0745849442" lon="29.9922617991"><ele>82.33</ele><time>2026-04-25T16:14:35Z</time></trkpt><trkpt lat="59.0745672584" lon="29.9924651440"><ele>82.33</ele><time>2026-04-25T16:14:49Z</time></trkpt><trkpt lat="59.0745634865" lon="29.9926187005"><ele>83.29</ele><time>2026-04-25T16:15:04Z</time></trkpt><trkpt lat="59.0745374188" lon="29.9927829020"><ele>84.25</ele><time>2026-04-25T16:15:17Z</time></trkpt><trkpt lat="59.0745148715" lon="29.9929630291"><ele>84.25</ele><time>2026-04-25T16:15:32Z</time></trkpt><trkpt lat="59.0745185595" lon="29.9931964651"><ele>84.25</ele><time>2026-04-25T16:15:44Z</time></trkpt><trkpt lat="59.0745273605" lon="29.9933682941"><ele>84.25</ele><time>2026-04-25T16:16:00Z</time></trkpt><trkpt lat="59.0745240916" lon="29.9935090262"><ele>84.25</ele><time>2026-04-25T16:16:13Z</time></trkpt><trkpt lat="59.0745673422" lon="29.9936820287"><ele>84.73</ele><time>2026-04-25T16:16:26Z</time></trkpt><trkpt lat="59.0745919850" lon="29.9938844517"><ele>84.73</ele><time>2026-04-25T16:16:39Z</time></trkpt><trkpt lat="59.0745442919" lon="29.9939655885"><ele>84.73</ele><time>2026-04-25T16:16:52Z</time></trkpt><trkpt lat="59.0745166317" lon="29.9939920753"><ele>84.73</ele><time>2026-04-25T16:17:04Z</time></trkpt><trkpt lat="59.0745177213" lon="29.9940794148"><ele>85.21</ele><time>2026-04-25T16:17:15Z</time></trkpt><trkpt lat="59.0745351557" lon="29.9942173809"><ele>85.21</ele><time>2026-04-25T16:17:27Z</time></trkpt><trkpt lat="59.0745402686" lon="29.9943096656"><ele>85.21</ele><time>2026-04-25T16:17:36Z</time></trkpt><trkpt lat="59.0745398495" lon="29.9944372382"><ele>85.21</ele><time>2026-04-25T16:17:50Z</time></trkpt><trkpt lat="59.0745254327" lon="29.9945804011"><ele>85.21</ele><time>2026-04-25T16:18:17Z</time></trkpt><trkpt lat="59.0745246783" lon="29.9946711771"><ele>85.21</ele><time>2026-04-25T16:18:29Z</time></trkpt><trkpt lat="59.0744926594" lon="29.9947715085"><ele>85.21</ele><time>2026-04-25T16:18:41Z</time></trkpt><trkpt lat="59.0745122731" lon="29.9949194491"><ele>85.21</ele><time>2026-04-25T16:18:54Z</time></trkpt><trkpt lat="59.0745438728" lon="29.9950747658"><ele>85.21</ele><time>2026-04-25T16:19:06Z</time></trkpt><trkpt lat="59.0745550208" lon="29.9950911105"><ele>84.25</ele><time>2026-04-25T16:19:13Z</time></trkpt><trkpt lat="59.0745680965" lon="29.9952075351"><ele>84.25</ele><time>2026-04-25T16:19:24Z</time></trkpt><trkpt lat="59.0745305456" lon="29.9952935334"><ele>84.25</ele><time>2026-04-25T16:19:36Z</time></trkpt><trkpt lat="59.0745227505" lon="29.9953273963"><ele>84.25</ele><time>2026-04-25T16:19:41Z</time></trkpt><trkpt lat="59.0745267738" lon="29.9954494368"><ele>84.25</ele><time>2026-04-25T16:19:53Z</time></trkpt><trkpt lat="59.0745523386" lon="29.9955965392"><ele>84.25</ele><time>2026-04-25T16:20:07Z</time></trkpt><trkpt lat="59.0745640732" lon="29.9956968706"><ele>84.25</ele><time>2026-04-25T16:20:20Z</time></trkpt><trkpt lat="59.0745825134" lon="29.9958770815"><ele>84.25</ele><time>2026-04-25T16:20:32Z</time></trkpt><trkpt lat="59.0745882131" lon="29.9959438015"><ele>84.73</ele><time>2026-04-25T16:20:42Z</time></trkpt><trkpt lat="59.0745721199" lon="29.9960777443"><ele>84.73</ele><time>2026-04-25T16:20:55Z</time></trkpt><trkpt lat="59.0745576192" lon="29.9962143693"><ele>84.73</ele><time>2026-04-25T16:21:07Z</time></trkpt><trkpt lat="59.0745489020" lon="29.9963337276"><ele>84.73</ele><time>2026-04-25T16:21:17Z</time></trkpt><trkpt lat="59.0745434538" lon="29.9965001084"><ele>84.73</ele><time>2026-04-25T16:21:30Z</time></trkpt><trkpt lat="59.0745506622" lon="29.9966809899"><ele>84.73</ele><time>2026-04-25T16:21:42Z</time></trkpt><trkpt lat="59.0745318029" lon="29.9968366418"><ele>83.29</ele><time>2026-04-25T16:21:54Z</time></trkpt><trkpt lat="59.0745142847" lon="29.9970471114"><ele>84.25</ele><time>2026-04-25T16:22:08Z</time></trkpt><trkpt lat="59.0745063219" lon="29.9972170964"><ele>84.25</ele><time>2026-04-25T16:22:19Z</time></trkpt><trkpt lat="59.0744779911" lon="29.9974097125"><ele>85.21</ele><time>2026-04-25T16:22:31Z</time></trkpt><trkpt lat="59.0744697768" lon="29.9975997303"><ele>85.21</ele><time>2026-04-25T16:22:44Z</time></trkpt><trkpt lat="59.0744549409" lon="29.9977456592"><ele>85.21</ele><time>2026-04-25T16:22:56Z</time></trkpt><trkpt lat="59.0744842775" lon="29.9979344197"><ele>85.21</ele><time>2026-04-25T16:23:09Z</time></trkpt><trkpt lat="59.0744604729" lon="29.9980835337"><ele>83.77</ele><time>2026-04-25T16:23:22Z</time></trkpt><trkpt lat="59.0744514205" lon="29.9981094338"><ele>83.77</ele><time>2026-04-25T16:23:24Z</time></trkpt><trkpt lat="59.0744520072" lon="29.9982058257"><ele>83.77</ele><time>2026-04-25T16:23:35Z</time></trkpt><trkpt lat="59.0744520910" lon="29.9983539339"><ele>83.77</ele><time>2026-04-25T16:23:45Z</time></trkpt><trkpt lat="59.0744441282" lon="29.9984635692"><ele>83.77</ele><time>2026-04-25T16:23:56Z</time></trkpt><trkpt lat="59.0744147915" lon="29.9984984379"><ele>84.73</ele><time>2026-04-25T16:24:22Z</time></trkpt><trkpt lat="59.0743214171" lon="29.9985775631"><ele>84.73</ele><time>2026-04-25T16:24:35Z</time></trkpt><trkpt lat="59.0742779151" lon="29.9985597935"><ele>84.73</ele><time>2026-04-25T16:24:41Z</time></trkpt><trkpt lat="59.0742053278" lon="29.9985652417"><ele>84.73</ele><time>2026-04-25T16:24:50Z</time></trkpt><trkpt lat="59.0741358418" lon="29.9985895492"><ele>84.73</ele><time>2026-04-25T16:24:59Z</time></trkpt><trkpt lat="59.0740547888" lon="29.9986128509"><ele>84.73</ele><time>2026-04-25T16:25:12Z</time></trkpt><trkpt lat="59.0739586484" lon="29.9986454565"><ele>84.73</ele><time>2026-04-25T16:25:25Z</time></trkpt><trkpt lat="59.0739247017" lon="29.9986726977"><ele>84.73</ele><time>2026-04-25T16:25:35Z</time></trkpt><trkpt lat="59.0738632623" lon="29.9986806605"><ele>84.73</ele><time>2026-04-25T16:25:44Z</time></trkpt><trkpt lat="59.0738198441" lon="29.9986797385"><ele>84.73</ele><time>2026-04-25T16:25:57Z</time></trkpt><trkpt lat="59.0738182515" lon="29.9986718595"><ele>84.73</ele><time>2026-04-25T16:26:21Z</time></trkpt><trkpt lat="59.0738148149" lon="29.9986668304"><ele>84.73</ele><time>2026-04-25T16:26:40Z</time></trkpt><trkpt lat="59.0738170780" lon="29.9986570235"><ele>84.73</ele><time>2026-04-25T16:27:03Z</time></trkpt><trkpt lat="59.0738128871" lon="29.9986677524"><ele>84.73</ele><time>2026-04-25T16:27:25Z</time></trkpt><trkpt lat="59.0738208499" lon="29.9986997712"><ele>84.73</ele><time>2026-04-25T16:27:50Z</time></trkpt><trkpt lat="59.0738213528" lon="29.9987133499"><ele>83.29</ele><time>2026-04-25T16:28:23Z</time></trkpt><trkpt lat="59.0738230292" lon="29.9986987654"><ele>83.29</ele><time>2026-04-25T16:28:46Z</time></trkpt><trkpt lat="59.0738044214" lon="29.9986429419"><ele>83.29</ele><time>2026-04-25T16:28:55Z</time></trkpt><trkpt lat="59.0737549681" lon="29.9984074943"><ele>83.29</ele><time>2026-04-25T16:29:09Z</time></trkpt><trkpt lat="59.0737378690" lon="29.9983504135"><ele>83.29</ele><time>2026-04-25T16:29:14Z</time></trkpt><trkpt lat="59.0737843886" lon="29.9981659278"><ele>83.29</ele><time>2026-04-25T16:29:28Z</time></trkpt><trkpt lat="59.0738579817" lon="29.9980120361"><ele>83.29</ele><time>2026-04-25T16:29:41Z</time></trkpt><trkpt lat="59.0738603286" lon="29.9978723098"><ele>83.29</ele><time>2026-04-25T16:29:52Z</time></trkpt><trkpt lat="59.0738154855" lon="29.9976160750"><ele>83.29</ele><time>2026-04-25T16:30:07Z</time></trkpt><trkpt lat="59.0738042537" lon="29.9975508638"><ele>83.29</ele><time>2026-04-25T16:30:11Z</time></trkpt><trkpt lat="59.0737954527" lon="29.9974807072"><ele>83.29</ele><time>2026-04-25T16:30:16Z</time></trkpt><trkpt lat="59.0737929381" lon="29.9972497858"><ele>83.29</ele><time>2026-04-25T16:30:29Z</time></trkpt><trkpt lat="59.0737977158" lon="29.9971317686"><ele>83.29</ele><time>2026-04-25T16:30:36Z</time></trkpt><trkpt lat="59.0738010686" lon="29.9970210437"><ele>83.29</ele><time>2026-04-25T16:30:43Z</time></trkpt><trkpt lat="59.0738568921" lon="29.9968434311"><ele>82.81</ele><time>2026-04-25T16:30:57Z</time></trkpt><trkpt lat="59.0738548804" lon="29.9966424331"><ele>82.81</ele><time>2026-04-25T16:31:11Z</time></trkpt><trkpt lat="59.0738481749" lon="29.9964150321"><ele>82.81</ele><time>2026-04-25T16:31:26Z</time></trkpt><trkpt lat="59.0738472529" lon="29.9963959213"><ele>82.81</ele><time>2026-04-25T16:31:27Z</time></trkpt><trkpt lat="59.0738435648" lon="29.9961883854"><ele>82.81</ele><time>2026-04-25T16:31:41Z</time></trkpt><trkpt lat="59.0738394577" lon="29.9959684443"><ele>82.81</ele><time>2026-04-25T16:31:55Z</time></trkpt><trkpt lat="59.0738366917" lon="29.9957741518"><ele>82.81</ele><time>2026-04-25T16:32:09Z</time></trkpt><trkpt lat="59.0738316625" lon="29.9957649317"><ele>82.81</ele><time>2026-04-25T16:32:18Z</time></trkpt><trkpt lat="59.0738257114" lon="29.9957526103"><ele>82.81</ele><time>2026-04-25T16:32:34Z</time></trkpt><trkpt lat="59.0738286451" lon="29.9957508501"><ele>82.81</ele><time>2026-04-25T16:32:48Z</time></trkpt><trkpt lat="59.0738069359" lon="29.9956717249"><ele>82.81</ele><time>2026-04-25T16:33:03Z</time></trkpt><trkpt lat="59.0738281421" lon="29.9954911787"><ele>82.81</ele><time>2026-04-25T16:33:15Z</time></trkpt><trkpt lat="59.0738397092" lon="29.9953830522"><ele>82.81</ele><time>2026-04-25T16:33:26Z</time></trkpt><trkpt lat="59.0738189220" lon="29.9953725748"><ele>82.81</ele><time>2026-04-25T16:33:40Z</time></trkpt><trkpt lat="59.0738253761" lon="29.9953588285"><ele>82.81</ele><time>2026-04-25T16:33:57Z</time></trkpt><trkpt lat="59.0738299862" lon="29.9953161646"><ele>82.81</ele><time>2026-04-25T16:34:09Z</time></trkpt><trkpt lat="59.0738305729" lon="29.9952975567"><ele>82.81</ele><time>2026-04-25T16:34:25Z</time></trkpt><trkpt lat="59.0738481749" lon="29.9951937050"><ele>82.81</ele><time>2026-04-25T16:34:38Z</time></trkpt><trkpt lat="59.0738847200" lon="29.9950366281"><ele>82.81</ele><time>2026-04-25T16:34:51Z</time></trkpt><trkpt lat="59.0738570597" lon="29.9948647153"><ele>82.81</ele><time>2026-04-25T16:35:03Z</time></trkpt><trkpt lat="59.0738011524" lon="29.9947066326"><ele>82.81</ele><time>2026-04-25T16:35:15Z</time></trkpt><trkpt lat="59.0737906750" lon="29.9945308641"><ele>82.81</ele><time>2026-04-25T16:35:30Z</time></trkpt><trkpt lat="59.0737946145" lon="29.9944794830"><ele>84.25</ele><time>2026-04-25T16:35:36Z</time></trkpt><trkpt lat="59.0738169942" lon="29.9943742901"><ele>84.25</ele><time>2026-04-25T16:35:48Z</time></trkpt><trkpt lat="59.0738971252" lon="29.9943188019"><ele>84.25</ele><time>2026-04-25T16:36:01Z</time></trkpt><trkpt lat="59.0739156492" lon="29.9943069834"><ele>84.25</ele><time>2026-04-25T16:36:19Z</time></trkpt><trkpt lat="59.0739210136" lon="29.9942792393"><ele>84.25</ele><time>2026-04-25T16:36:39Z</time></trkpt><trkpt lat="59.0739188343" lon="29.9941130262"><ele>84.25</ele><time>2026-04-25T16:36:52Z</time></trkpt><trkpt lat="59.0738989692" lon="29.9939245172"><ele>83.77</ele><time>2026-04-25T16:37:04Z</time></trkpt><trkpt lat="59.0739023220" lon="29.9938018899"><ele>83.77</ele><time>2026-04-25T16:37:14Z</time></trkpt><trkpt lat="59.0738894977" lon="29.9936574697"><ele>83.77</ele><time>2026-04-25T16:37:26Z</time></trkpt><trkpt lat="59.0738984663" lon="29.9935785122"><ele>83.77</ele><time>2026-04-25T16:37:34Z</time></trkpt><trkpt lat="59.0738799423" lon="29.9933892488"><ele>82.81</ele><time>2026-04-25T16:37:46Z</time></trkpt><trkpt lat="59.0738606639" lon="29.9932326749"><ele>82.81</ele><time>2026-04-25T16:38:00Z</time></trkpt><trkpt lat="59.0738545451" lon="29.9930410646"><ele>82.33</ele><time>2026-04-25T16:38:12Z</time></trkpt><trkpt lat="59.0738795232" lon="29.9928647093"><ele>82.33</ele><time>2026-04-25T16:38:24Z</time></trkpt><trkpt lat="59.0738594066" lon="29.9927811418"><ele>81.85</ele><time>2026-04-25T16:38:39Z</time></trkpt><trkpt lat="59.0738400444" lon="29.9926253222"><ele>81.85</ele><time>2026-04-25T16:38:50Z</time></trkpt><trkpt lat="59.0738120489" lon="29.9926049542"><ele>81.85</ele><time>2026-04-25T16:39:04Z</time></trkpt><trkpt lat="59.0737853944" lon="29.9926347937"><ele>81.85</ele><time>2026-04-25T16:39:19Z</time></trkpt><trkpt lat="59.0737114660" lon="29.9927678145"><ele>81.85</ele><time>2026-04-25T16:39:31Z</time></trkpt><trkpt lat="59.0736150742" lon="29.9928347021"><ele>81.85</ele><time>2026-04-25T16:39:45Z</time></trkpt><trkpt lat="59.0735588316" lon="29.9928525556"><ele>81.85</ele><time>2026-04-25T16:40:03Z</time></trkpt><trkpt lat="59.0735294111" lon="29.9928591773"><ele>81.85</ele><time>2026-04-25T16:40:25Z</time></trkpt><trkpt lat="59.0734742582" lon="29.9928596802"><ele>81.85</ele><time>2026-04-25T16:40:36Z</time></trkpt><trkpt lat="59.0733819734" lon="29.9928643741"><ele>81.85</ele><time>2026-04-25T16:40:49Z</time></trkpt><trkpt lat="59.0732922871" lon="29.9928885978"><ele>80.89</ele><time>2026-04-25T16:41:02Z</time></trkpt><trkpt lat="59.0732304286" lon="29.9928955548"><ele>80.89</ele><time>2026-04-25T16:41:12Z</time></trkpt><trkpt lat="59.0732174367" lon="29.9929152522"><ele>80.89</ele><time>2026-04-25T16:41:28Z</time></trkpt><trkpt lat="59.0732319374" lon="29.9929623585"><ele>80.89</ele><time>2026-04-25T16:41:40Z</time></trkpt><trkpt lat="59.0732348710" lon="29.9930456746"><ele>80.89</ele><time>2026-04-25T16:41:50Z</time></trkpt><trkpt lat="59.0732319374" lon="29.9931829702"><ele>82.33</ele><time>2026-04-25T16:42:01Z</time></trkpt><trkpt lat="59.0732510481" lon="29.9933243729"><ele>82.33</ele><time>2026-04-25T16:42:14Z</time></trkpt><trkpt lat="59.0732491203" lon="29.9934454914"><ele>82.33</ele><time>2026-04-25T16:42:25Z</time></trkpt><trkpt lat="59.0732392296" lon="29.9936053343"><ele>82.33</ele><time>2026-04-25T16:42:36Z</time></trkpt><trkpt lat="59.0732523892" lon="29.9938563723"><ele>82.33</ele><time>2026-04-25T16:42:48Z</time></trkpt><trkpt lat="59.0732543170" lon="29.9940078333"><ele>82.33</ele><time>2026-04-25T16:43:00Z</time></trkpt><trkpt lat="59.0732559096" lon="29.9941090029"><ele>82.33</ele><time>2026-04-25T16:43:13Z</time></trkpt><trkpt lat="59.0732383076" lon="29.9943170417"><ele>82.81</ele><time>2026-04-25T16:43:26Z</time></trkpt><trkpt lat="59.0732354578" lon="29.9944091588"><ele>83.29</ele><time>2026-04-25T16:43:39Z</time></trkpt><trkpt lat="59.0732473601" lon="29.9944815785"><ele>83.29</ele><time>2026-04-25T16:43:49Z</time></trkpt><trkpt lat="59.0732503776" lon="29.9944820814"><ele>82.33</ele><time>2026-04-25T16:43:51Z</time></trkpt><trkpt lat="59.0732512157" lon="29.9944809917"><ele>84.25</ele><time>2026-04-25T16:43:52Z</time></trkpt><trkpt lat="59.0732457675" lon="29.9945617933"><ele>84.25</ele><time>2026-04-25T16:44:05Z</time></trkpt><trkpt lat="59.0732414927" lon="29.9947534874"><ele>82.81</ele><time>2026-04-25T16:44:21Z</time></trkpt><trkpt lat="59.0731867589" lon="29.9949484505"><ele>82.81</ele><time>2026-04-25T16:44:34Z</time></trkpt><trkpt lat="59.0732551552" lon="29.9950260669"><ele>82.81</ele><time>2026-04-25T16:44:47Z</time></trkpt><trkpt lat="59.0732669737" lon="29.9950533081"><ele>83.29</ele><time>2026-04-25T16:44:58Z</time></trkpt><trkpt lat="59.0732623637" lon="29.9951719958"><ele>83.29</ele><time>2026-04-25T16:45:09Z</time></trkpt><trkpt lat="59.0732610226" lon="29.9953327607"><ele>83.29</ele><time>2026-04-25T16:45:20Z</time></trkpt><trkpt lat="59.0732585080" lon="29.9954660330"><ele>83.29</ele><time>2026-04-25T16:45:30Z</time></trkpt><trkpt lat="59.0732565802" lon="29.9955679569"><ele>83.29</ele><time>2026-04-25T16:45:40Z</time></trkpt><trkpt lat="59.0732624475" lon="29.9956488423"><ele>83.29</ele><time>2026-04-25T16:45:50Z</time></trkpt><trkpt lat="59.0732658003" lon="29.9958145525"><ele>83.29</ele><time>2026-04-25T16:46:03Z</time></trkpt><trkpt lat="59.0732699074" lon="29.9958959408"><ele>83.29</ele><time>2026-04-25T16:46:09Z</time></trkpt><trkpt lat="59.0732700750" lon="29.9960793369"><ele>83.29</ele><time>2026-04-25T16:46:21Z</time></trkpt><trkpt lat="59.0732782893" lon="29.9963182211"><ele>83.29</ele><time>2026-04-25T16:46:35Z</time></trkpt><trkpt lat="59.0732932091" lon="29.9965459574"><ele>83.29</ele><time>2026-04-25T16:46:50Z</time></trkpt><trkpt lat="59.0732788760" lon="29.9966895394"><ele>83.29</ele><time>2026-04-25T16:47:01Z</time></trkpt><trkpt lat="59.0732792113" lon="29.9969403259"><ele>83.29</ele><time>2026-04-25T16:47:17Z</time></trkpt><trkpt lat="59.0732738469" lon="29.9970420823"><ele>83.29</ele><time>2026-04-25T16:47:28Z</time></trkpt><trkpt lat="59.0732809715" lon="29.9971887656"><ele>83.29</ele><time>2026-04-25T16:47:41Z</time></trkpt><trkpt lat="59.0732818935" lon="29.9973870814"><ele>83.29</ele><time>2026-04-25T16:47:54Z</time></trkpt><trkpt lat="59.0732777026" lon="29.9976242892"><ele>83.29</ele><time>2026-04-25T16:48:08Z</time></trkpt><trkpt lat="59.0732816420" lon="29.9978515226"><ele>83.29</ele><time>2026-04-25T16:48:23Z</time></trkpt><trkpt lat="59.0732780378" lon="29.9978855532"><ele>83.29</ele><time>2026-04-25T16:48:25Z</time></trkpt><trkpt lat="59.0732826479" lon="29.9980526045"><ele>83.29</ele><time>2026-04-25T16:48:37Z</time></trkpt><trkpt lat="59.0732585918" lon="29.9982466456"><ele>83.29</ele><time>2026-04-25T16:48:51Z</time></trkpt><trkpt lat="59.0732700750" lon="29.9984561093"><ele>83.29</ele><time>2026-04-25T16:49:05Z</time></trkpt><trkpt lat="59.0732508805" lon="29.9986494798"><ele>83.29</ele><time>2026-04-25T16:49:18Z</time></trkpt><trkpt lat="59.0732562449" lon="29.9987190496"><ele>82.33</ele><time>2026-04-25T16:49:29Z</time></trkpt><trkpt lat="59.0732523054" lon="29.9987069797"><ele>82.33</ele><time>2026-04-25T16:49:46Z</time></trkpt><trkpt lat="59.0732529759" lon="29.9987011962"><ele>82.33</ele><time>2026-04-25T16:50:08Z</time></trkpt><trkpt lat="59.0732537303" lon="29.9987042975"><ele>83.29</ele><time>2026-04-25T16:50:28Z</time></trkpt><trkpt lat="59.0732487012" lon="29.9987053871"><ele>83.29</ele><time>2026-04-25T16:50:55Z</time></trkpt><trkpt lat="59.0732433368" lon="29.9987011123"><ele>83.29</ele><time>2026-04-25T16:51:17Z</time></trkpt><trkpt lat="59.0732445940" lon="29.9987037946"><ele>83.29</ele><time>2026-04-25T16:51:37Z</time></trkpt><trkpt lat="59.0732404031" lon="29.9987004418"><ele>83.29</ele><time>2026-04-25T16:51:49Z</time></trkpt><trkpt lat="59.0731602721" lon="29.9987222347"><ele>83.29</ele><time>2026-04-25T16:52:02Z</time></trkpt><trkpt lat="59.0730745252" lon="29.9987687543"><ele>83.29</ele><time>2026-04-25T16:52:14Z</time></trkpt><trkpt lat="59.0730076376" lon="29.9987944867"><ele>83.29</ele><time>2026-04-25T16:52:26Z</time></trkpt><trkpt lat="59.0729238186" lon="29.9988047127"><ele>83.29</ele><time>2026-04-25T16:52:39Z</time></trkpt><trkpt lat="59.0729066357" lon="29.9988327082"><ele>83.29</ele><time>2026-04-25T16:52:42Z</time></trkpt><trkpt lat="59.0728374850" lon="29.9988413416"><ele>83.29</ele><time>2026-04-25T16:52:54Z</time></trkpt><trkpt lat="59.0727982577" lon="29.9988537468"><ele>83.29</ele><time>2026-04-25T16:53:02Z</time></trkpt><trkpt lat="59.0726887062" lon="29.9989039544"><ele>83.29</ele><time>2026-04-25T16:53:16Z</time></trkpt><trkpt lat="59.0726311225" lon="29.9990487099"><ele>83.29</ele><time>2026-04-25T16:53:28Z</time></trkpt><trkpt lat="59.0725974273" lon="29.9990966544"><ele>83.77</ele><time>2026-04-25T16:53:41Z</time></trkpt><trkpt lat="59.0726044681" lon="29.9990529008"><ele>83.77</ele><time>2026-04-25T16:54:03Z</time></trkpt><trkpt lat="59.0726081561" lon="29.9988717679"><ele>83.77</ele><time>2026-04-25T16:54:17Z</time></trkpt><trkpt lat="59.0726039652" lon="29.9987269286"><ele>83.77</ele><time>2026-04-25T16:54:25Z</time></trkpt><trkpt lat="59.0725881234" lon="29.9985072389"><ele>83.77</ele><time>2026-04-25T16:54:38Z</time></trkpt><trkpt lat="59.0725701023" lon="29.9983051512"><ele>83.77</ele><time>2026-04-25T16:54:52Z</time></trkpt><trkpt lat="59.0725449566" lon="29.9981662631"><ele>83.77</ele><time>2026-04-25T16:55:04Z</time></trkpt><trkpt lat="59.0725576971" lon="29.9979918357"><ele>83.77</ele><time>2026-04-25T16:55:16Z</time></trkpt><trkpt lat="59.0725379158" lon="29.9978167377"><ele>83.77</ele><time>2026-04-25T16:55:28Z</time></trkpt><trkpt lat="59.0725444537" lon="29.9976138957"><ele>83.77</ele><time>2026-04-25T16:55:40Z</time></trkpt><trkpt lat="59.0725310426" lon="29.9974687211"><ele>83.77</ele><time>2026-04-25T16:55:51Z</time></trkpt><trkpt lat="59.0725299530" lon="29.9974313378"><ele>83.77</ele><time>2026-04-25T16:55:53Z</time></trkpt><trkpt lat="59.0725572780" lon="29.9973200262"><ele>83.77</ele><time>2026-04-25T16:56:03Z</time></trkpt><trkpt lat="59.0725880396" lon="29.9971896876"><ele>83.77</ele><time>2026-04-25T16:56:13Z</time></trkpt><trkpt lat="59.0725678392" lon="29.9969480373"><ele>83.77</ele><time>2026-04-25T16:56:27Z</time></trkpt><trkpt lat="59.0725655761" lon="29.9969207123"><ele>83.77</ele><time>2026-04-25T16:56:29Z</time></trkpt><trkpt lat="59.0725778975" lon="29.9967178702"><ele>83.77</ele><time>2026-04-25T16:56:43Z</time></trkpt><trkpt lat="59.0725788195" lon="29.9965334684"><ele>83.77</ele><time>2026-04-25T16:56:56Z</time></trkpt><trkpt lat="59.0725732874" lon="29.9965119269"><ele>83.77</ele><time>2026-04-25T16:56:58Z</time></trkpt><trkpt lat="59.0725709405" lon="29.9963481445"><ele>83.77</ele><time>2026-04-25T16:57:11Z</time></trkpt><trkpt lat="59.0725696832" lon="29.9962473102"><ele>83.77</ele><time>2026-04-25T16:57:22Z</time></trkpt><trkpt lat="59.0725602116" lon="29.9961047340"><ele>84.25</ele><time>2026-04-25T16:57:34Z</time></trkpt><trkpt lat="59.0725478902" lon="29.9959933385"><ele>84.25</ele><time>2026-04-25T16:57:47Z</time></trkpt><trkpt lat="59.0726136044" lon="29.9959708750"><ele>84.25</ele><time>2026-04-25T16:58:00Z</time></trkpt><trkpt lat="59.0726203937" lon="29.9958344176"><ele>84.25</ele><time>2026-04-25T16:58:11Z</time></trkpt><trkpt lat="59.0726110898" lon="29.9957448151"><ele>84.25</ele><time>2026-04-25T16:58:23Z</time></trkpt><trkpt lat="59.0726131853" lon="29.9955421407"><ele>84.25</ele><time>2026-04-25T16:58:35Z</time></trkpt><trkpt lat="59.0726105869" lon="29.9954292364"><ele>84.25</ele><time>2026-04-25T16:58:44Z</time></trkpt><trkpt lat="59.0726017021" lon="29.9952637777"><ele>82.81</ele><time>2026-04-25T16:58:55Z</time></trkpt><trkpt lat="59.0725821722" lon="29.9950990733"><ele>82.81</ele><time>2026-04-25T16:59:08Z</time></trkpt><trkpt lat="59.0725777298" lon="29.9949336145"><ele>82.81</ele><time>2026-04-25T16:59:22Z</time></trkpt><trkpt lat="59.0725799929" lon="29.9949045293"><ele>82.33</ele><time>2026-04-25T16:59:34Z</time></trkpt><trkpt lat="59.0726536699" lon="29.9948062096"><ele>82.33</ele><time>2026-04-25T16:59:47Z</time></trkpt><trkpt lat="59.0726759657" lon="29.9945788085"><ele>82.33</ele><time>2026-04-25T17:00:00Z</time></trkpt><trkpt lat="59.0726781450" lon="29.9943659920"><ele>81.85</ele><time>2026-04-25T17:00:13Z</time></trkpt><trkpt lat="59.0726826712" lon="29.9943276029"><ele>81.85</ele><time>2026-04-25T17:00:25Z</time></trkpt><trkpt lat="59.0726850182" lon="29.9943170417"><ele>81.85</ele><time>2026-04-25T17:00:28Z</time></trkpt><trkpt lat="59.0727042966" lon="29.9942488968"><ele>81.85</ele><time>2026-04-25T17:00:39Z</time></trkpt><trkpt lat="59.0727121755" lon="29.9941975996"><ele>81.85</ele><time>2026-04-25T17:00:51Z</time></trkpt><trkpt lat="59.0727224015" lon="29.9941142835"><ele>81.85</ele><time>2026-04-25T17:01:06Z</time></trkpt><trkpt lat="59.0727407578" lon="29.9939987808"><ele>81.85</ele><time>2026-04-25T17:01:22Z</time></trkpt><trkpt lat="59.0726692602" lon="29.9937559571"><ele>81.37</ele><time>2026-04-25T17:01:37Z</time></trkpt><trkpt lat="59.0726767201" lon="29.9936460704"><ele>81.37</ele><time>2026-04-25T17:01:54Z</time></trkpt><trkpt lat="59.0726660751" lon="29.9935866427"><ele>80.89</ele><time>2026-04-25T17:02:07Z</time></trkpt><trkpt lat="59.0726553462" lon="29.9935288914"><ele>80.89</ele><time>2026-04-25T17:02:19Z</time></trkpt><trkpt lat="59.0726376604" lon="29.9934224412"><ele>80.89</ele><time>2026-04-25T17:02:32Z</time></trkpt><trkpt lat="59.0726296138" lon="29.9932468403"><ele>80.89</ele><time>2026-04-25T17:02:45Z</time></trkpt><trkpt lat="59.0726124309" lon="29.9931714032"><ele>80.89</ele><time>2026-04-25T17:02:56Z</time></trkpt><trkpt lat="59.0725934878" lon="29.9931313377"><ele>80.89</ele><time>2026-04-25T17:03:16Z</time></trkpt><trkpt lat="59.0725561883" lon="29.9930988997"><ele>80.89</ele><time>2026-04-25T17:03:28Z</time></trkpt><trkpt lat="59.0724922344" lon="29.9931061082"><ele>80.89</ele><time>2026-04-25T17:03:41Z</time></trkpt><trkpt lat="59.0724646579" lon="29.9930880871"><ele>80.89</ele><time>2026-04-25T17:03:52Z</time></trkpt><trkpt lat="59.0724229999" lon="29.9930820521"><ele>80.89</ele><time>2026-04-25T17:04:08Z</time></trkpt><trkpt lat="59.0724013746" lon="29.9930990674"><ele>80.89</ele><time>2026-04-25T17:04:22Z</time></trkpt><trkpt lat="59.0722852014" lon="29.9931540526"><ele>80.89</ele><time>2026-04-25T17:04:36Z</time></trkpt><trkpt lat="59.0721591376" lon="29.9932292383"><ele>80.89</ele><time>2026-04-25T17:04:49Z</time></trkpt><trkpt lat="59.0720245242" lon="29.9932191800"><ele>80.89</ele><time>2026-04-25T17:05:02Z</time></trkpt><trkpt lat="59.0719773341" lon="29.9932515342"><ele>80.89</ele><time>2026-04-25T17:05:14Z</time></trkpt><trkpt lat="59.0719487518" lon="29.9933231156"><ele>81.85</ele><time>2026-04-25T17:05:40Z</time></trkpt><trkpt lat="59.0719479974" lon="29.9933838844"><ele>81.85</ele><time>2026-04-25T17:05:55Z</time></trkpt><trkpt lat="59.0719477460" lon="29.9934552982"><ele>81.85</ele><time>2026-04-25T17:06:10Z</time></trkpt><trkpt lat="59.0719537809" lon="29.9935450684"><ele>81.85</ele><time>2026-04-25T17:06:23Z</time></trkpt><trkpt lat="59.0719334129" lon="29.9936925061"><ele>81.85</ele><time>2026-04-25T17:06:47Z</time></trkpt><trkpt lat="59.0719365980" lon="29.9937306438"><ele>81.85</ele><time>2026-04-25T17:06:59Z</time></trkpt><trkpt lat="59.0719763283" lon="29.9938391894"><ele>81.85</ele><time>2026-04-25T17:07:13Z</time></trkpt><trkpt lat="59.0720205009" lon="29.9939321447"><ele>82.33</ele><time>2026-04-25T17:07:27Z</time></trkpt><trkpt lat="59.0720362589" lon="29.9940888863"><ele>82.33</ele><time>2026-04-25T17:07:40Z</time></trkpt><trkpt lat="59.0720174834" lon="29.9944099970"><ele>82.33</ele><time>2026-04-25T17:07:55Z</time></trkpt><trkpt lat="59.0719980374" lon="29.9947447702"><ele>82.81</ele><time>2026-04-25T17:08:10Z</time></trkpt><trkpt lat="59.0719850454" lon="29.9950321857"><ele>83.77</ele><time>2026-04-25T17:08:25Z</time></trkpt><trkpt lat="59.0720247757" lon="29.9953323416"><ele>83.77</ele><time>2026-04-25T17:08:43Z</time></trkpt><trkpt lat="59.0720128734" lon="29.9954892509"><ele>83.77</ele><time>2026-04-25T17:08:55Z</time></trkpt><trkpt lat="59.0720001329" lon="29.9956414662"><ele>84.25</ele><time>2026-04-25T17:09:06Z</time></trkpt><trkpt lat="59.0719934274" lon="29.9957284704"><ele>84.25</ele><time>2026-04-25T17:09:17Z</time></trkpt><trkpt lat="59.0720032342" lon="29.9958812725"><ele>84.25</ele><time>2026-04-25T17:09:29Z</time></trkpt><trkpt lat="59.0720067546" lon="29.9960526824"><ele>84.25</ele><time>2026-04-25T17:09:40Z</time></trkpt><trkpt lat="59.0719993785" lon="29.9960726313"><ele>85.21</ele><time>2026-04-25T17:09:45Z</time></trkpt><trkpt lat="59.0719878953" lon="29.9962562788"><ele>85.21</ele><time>2026-04-25T17:09:57Z</time></trkpt><trkpt lat="59.0719651803" lon="29.9963845219"><ele>85.21</ele><time>2026-04-25T17:10:08Z</time></trkpt><trkpt lat="59.0719614923" lon="29.9966179579"><ele>83.77</ele><time>2026-04-25T17:10:23Z</time></trkpt><trkpt lat="59.0719594806" lon="29.9966317881"><ele>83.77</ele><time>2026-04-25T17:10:24Z</time></trkpt><trkpt lat="59.0719488356" lon="29.9967534933"><ele>83.77</ele><time>2026-04-25T17:10:38Z</time></trkpt><trkpt lat="59.0719357599" lon="29.9967635516"><ele>83.77</ele><time>2026-04-25T17:10:48Z</time></trkpt><trkpt lat="59.0719356760" lon="29.9968056288"><ele>83.77</ele><time>2026-04-25T17:11:00Z</time></trkpt><trkpt lat="59.0719524398" lon="29.9968826585"><ele>83.77</ele><time>2026-04-25T17:11:15Z</time></trkpt><trkpt lat="59.0720074251" lon="29.9970478658"><ele>83.77</ele><time>2026-04-25T17:11:26Z</time></trkpt><trkpt lat="59.0720776655" lon="29.9972603470"><ele>83.77</ele><time>2026-04-25T17:11:39Z</time></trkpt><trkpt lat="59.0720809344" lon="29.9973554816"><ele>83.77</ele><time>2026-04-25T17:11:45Z</time></trkpt><trkpt lat="59.0720347501" lon="29.9974843953"><ele>83.77</ele><time>2026-04-25T17:11:59Z</time></trkpt><trkpt lat="59.0720208362" lon="29.9975457508"><ele>85.21</ele><time>2026-04-25T17:12:14Z</time></trkpt><trkpt lat="59.0720098559" lon="29.9977904186"><ele>85.21</ele><time>2026-04-25T17:12:29Z</time></trkpt><trkpt lat="59.0720059164" lon="29.9980376847"><ele>83.77</ele><time>2026-04-25T17:12:43Z</time></trkpt><trkpt lat="59.0720124543" lon="29.9982569553"><ele>83.77</ele><time>2026-04-25T17:12:56Z</time></trkpt><trkpt lat="59.0720132086" lon="29.9984696880"><ele>82.81</ele><time>2026-04-25T17:13:09Z</time></trkpt><trkpt lat="59.0720163099" lon="29.9986569397"><ele>82.81</ele><time>2026-04-25T17:13:21Z</time></trkpt><trkpt lat="59.0720376000" lon="29.9988614582"><ele>82.81</ele><time>2026-04-25T17:13:33Z</time></trkpt><trkpt lat="59.0720193274" lon="29.9990638811"><ele>82.81</ele><time>2026-04-25T17:13:46Z</time></trkpt><trkpt lat="59.0720094368" lon="29.9991310202"><ele>82.81</ele><time>2026-04-25T17:13:50Z</time></trkpt><trkpt lat="59.0719945170" lon="29.9992277473"><ele>82.81</ele><time>2026-04-25T17:13:56Z</time></trkpt><trkpt lat="59.0720084310" lon="29.9994392227"><ele>82.81</ele><time>2026-04-25T17:14:10Z</time></trkpt><trkpt lat="59.0720171481" lon="29.9996278994"><ele>82.81</ele><time>2026-04-25T17:14:23Z</time></trkpt><trkpt lat="59.0720241889" lon="29.9996291567"><ele>82.81</ele><time>2026-04-25T17:14:47Z</time></trkpt><trkpt lat="59.0720322356" lon="29.9996537995"><ele>82.81</ele><time>2026-04-25T17:15:18Z</time></trkpt><trkpt lat="59.0720104426" lon="29.9996646121"><ele>84.25</ele><time>2026-04-25T17:15:44Z</time></trkpt><trkpt lat="59.0719164815" lon="29.9996548053"><ele>84.73</ele><time>2026-04-25T17:15:58Z</time></trkpt><trkpt lat="59.0717932675" lon="29.9996679649"><ele>83.77</ele><time>2026-04-25T17:16:13Z</time></trkpt><trkpt lat="59.0717269666" lon="29.9996473454"><ele>83.77</ele><time>2026-04-25T17:16:21Z</time></trkpt><trkpt lat="59.0716204327" lon="29.9996757600"><ele>82.81</ele><time>2026-04-25T17:16:33Z</time></trkpt><trkpt lat="59.0715177543" lon="29.9996855669"><ele>82.81</ele><time>2026-04-25T17:16:45Z</time></trkpt><trkpt lat="59.0714406408" lon="29.9996745028"><ele>82.33</ele><time>2026-04-25T17:16:58Z</time></trkpt><trkpt lat="59.0713618509" lon="29.9997456651"><ele>82.33</ele><time>2026-04-25T17:17:11Z</time></trkpt><trkpt lat="59.0713517088" lon="29.9997590762"><ele>82.33</ele><time>2026-04-25T17:17:22Z</time></trkpt><trkpt lat="59.0713417344" lon="29.9996903446"><ele>82.33</ele><time>2026-04-25T17:17:34Z</time></trkpt><trkpt lat="59.0713020880" lon="29.9995662086"><ele>82.33</ele><time>2026-04-25T17:17:45Z</time></trkpt><trkpt lat="59.0713046864" lon="29.9994947948"><ele>82.33</ele><time>2026-04-25T17:17:50Z</time></trkpt><trkpt lat="59.0712788701" lon="29.9993680604"><ele>82.33</ele><time>2026-04-25T17:18:01Z</time></trkpt><trkpt lat="59.0712830611" lon="29.9992786255"><ele>82.33</ele><time>2026-04-25T17:18:12Z</time></trkpt><trkpt lat="59.0712699853" lon="29.9991143402"><ele>82.33</ele><time>2026-04-25T17:18:26Z</time></trkpt><trkpt lat="59.0712522157" lon="29.9990355503"><ele>82.33</ele><time>2026-04-25T17:18:33Z</time></trkpt><trkpt lat="59.0712056123" lon="29.9988768809"><ele>82.33</ele><time>2026-04-25T17:18:47Z</time></trkpt><trkpt lat="59.0712278243" lon="29.9987307843"><ele>82.33</ele><time>2026-04-25T17:18:58Z</time></trkpt><trkpt lat="59.0712222923" lon="29.9986497313"><ele>82.33</ele><time>2026-04-25T17:19:03Z</time></trkpt><trkpt lat="59.0712474380" lon="29.9985554349"><ele>82.33</ele><time>2026-04-25T17:19:13Z</time></trkpt><trkpt lat="59.0712399781" lon="29.9985072389"><ele>82.33</ele><time>2026-04-25T17:19:17Z</time></trkpt><trkpt lat="59.0712152515" lon="29.9983444624"><ele>82.33</ele><time>2026-04-25T17:19:30Z</time></trkpt><trkpt lat="59.0712309256" lon="29.9981702864"><ele>82.33</ele><time>2026-04-25T17:19:42Z</time></trkpt><trkpt lat="59.0712524671" lon="29.9980758224"><ele>82.33</ele><time>2026-04-25T17:19:53Z</time></trkpt><trkpt lat="59.0712633636" lon="29.9978619162"><ele>82.33</ele><time>2026-04-25T17:20:07Z</time></trkpt><trkpt lat="59.0712733380" lon="29.9976511952"><ele>82.33</ele><time>2026-04-25T17:20:20Z</time></trkpt><trkpt lat="59.0712430794" lon="29.9974314217"><ele>82.33</ele><time>2026-04-25T17:20:32Z</time></trkpt><trkpt lat="59.0712257288" lon="29.9973200262"><ele>82.33</ele><time>2026-04-25T17:20:44Z</time></trkpt><trkpt lat="59.0711912792" lon="29.9971139990"><ele>82.33</ele><time>2026-04-25T17:20:57Z</time></trkpt><trkpt lat="59.0711956378" lon="29.9970166013"><ele>82.33</ele><time>2026-04-25T17:21:03Z</time></trkpt><trkpt lat="59.0712515451" lon="29.9968006834"><ele>82.33</ele><time>2026-04-25T17:21:18Z</time></trkpt><trkpt lat="59.0712699015" lon="29.9967037886"><ele>82.33</ele><time>2026-04-25T17:21:30Z</time></trkpt><trkpt lat="59.0712621901" lon="29.9964947440"><ele>82.33</ele><time>2026-04-25T17:21:44Z</time></trkpt><trkpt lat="59.0712448396" lon="29.9963532574"><ele>82.33</ele><time>2026-04-25T17:21:56Z</time></trkpt><trkpt lat="59.0712276567" lon="29.9961716216"><ele>82.33</ele><time>2026-04-25T17:22:08Z</time></trkpt><trkpt lat="59.0711459331" lon="29.9959520157"><ele>82.33</ele><time>2026-04-25T17:22:21Z</time></trkpt><trkpt lat="59.0711393114" lon="29.9959390238"><ele>82.33</ele><time>2026-04-25T17:22:22Z</time></trkpt><trkpt lat="59.0711268224" lon="29.9957736488"><ele>82.33</ele><time>2026-04-25T17:22:35Z</time></trkpt><trkpt lat="59.0712338593" lon="29.9957222678"><ele>82.33</ele><time>2026-04-25T17:22:49Z</time></trkpt><trkpt lat="59.0713113081" lon="29.9956914224"><ele>82.33</ele><time>2026-04-25T17:23:03Z</time></trkpt><trkpt lat="59.0713538043" lon="29.9956195895"><ele>82.33</ele><time>2026-04-25T17:23:16Z</time></trkpt><trkpt lat="59.0713590849" lon="29.9954335950"><ele>82.33</ele><time>2026-04-25T17:23:32Z</time></trkpt><trkpt lat="59.0713317599" lon="29.9952043500"><ele>82.33</ele><time>2026-04-25T17:23:48Z</time></trkpt><trkpt lat="59.0713021718" lon="29.9950451776"><ele>81.85</ele><time>2026-04-25T17:23:55Z</time></trkpt><trkpt lat="59.0712475218" lon="29.9948692415"><ele>81.85</ele><time>2026-04-25T17:24:04Z</time></trkpt><trkpt lat="59.0712113120" lon="29.9946281780"><ele>81.37</ele><time>2026-04-25T17:24:16Z</time></trkpt><trkpt lat="59.0712206997" lon="29.9944550078"><ele>80.89</ele><time>2026-04-25T17:24:34Z</time></trkpt><trkpt lat="59.0712428279" lon="29.9943174608"><ele>80.89</ele><time>2026-04-25T17:24:46Z</time></trkpt><trkpt lat="59.0711797122" lon="29.9941623118"><ele>80.41</ele><time>2026-04-25T17:24:59Z</time></trkpt><trkpt lat="59.0711065382" lon="29.9941369984"><ele>80.41</ele><time>2026-04-25T17:25:11Z</time></trkpt><trkpt lat="59.0710652992" lon="29.9941478949"><ele>80.41</ele><time>2026-04-25T17:25:24Z</time></trkpt><trkpt lat="59.0710469428" lon="29.9941429496"><ele>80.41</ele><time>2026-04-25T17:25:26Z</time></trkpt><trkpt lat="59.0709420014" lon="29.9941263534"><ele>81.37</ele><time>2026-04-25T17:25:39Z</time></trkpt><trkpt lat="59.0708246548" lon="29.9941929895"><ele>81.85</ele><time>2026-04-25T17:25:54Z</time></trkpt><trkpt lat="59.0707061347" lon="29.9942767248"><ele>82.33</ele><time>2026-04-25T17:26:08Z</time></trkpt><trkpt lat="59.0706388280" lon="29.9943343084"><ele>82.81</ele><time>2026-04-25T17:26:22Z</time></trkpt><trkpt lat="59.0706240758" lon="29.9943720270"><ele>83.29</ele><time>2026-04-25T17:26:53Z</time></trkpt><trkpt lat="59.0706332959" lon="29.9944034591"><ele>83.29</ele><time>2026-04-25T17:27:15Z</time></trkpt><trkpt lat="59.0706378222" lon="29.9945230689"><ele>83.29</ele><time>2026-04-25T17:27:30Z</time></trkpt><trkpt lat="59.0706286859" lon="29.9947688263"><ele>83.29</ele><time>2026-04-25T17:27:44Z</time></trkpt><trkpt lat="59.0706216451" lon="29.9949075468"><ele>83.29</ele><time>2026-04-25T17:27:56Z</time></trkpt><trkpt lat="59.0706184600" lon="29.9950072914"><ele>81.85</ele><time>2026-04-25T17:28:04Z</time></trkpt><trkpt lat="59.0705789812" lon="29.9952150788"><ele>81.85</ele><time>2026-04-25T17:28:17Z</time></trkpt><trkpt lat="59.0705307014" lon="29.9954750016"><ele>81.85</ele><time>2026-04-25T17:28:31Z</time></trkpt><trkpt lat="59.0705436096" lon="29.9956500158"><ele>81.37</ele><time>2026-04-25T17:28:45Z</time></trkpt><trkpt lat="59.0705664922" lon="29.9958478287"><ele>81.37</ele><time>2026-04-25T17:28:57Z</time></trkpt><trkpt lat="59.0705972537" lon="29.9959699530"><ele>81.37</ele><time>2026-04-25T17:29:07Z</time></trkpt><trkpt lat="59.0706361458" lon="29.9960879702"><ele>81.37</ele><time>2026-04-25T17:29:20Z</time></trkpt><trkpt lat="59.0706390794" lon="29.9961826857"><ele>81.85</ele><time>2026-04-25T17:29:26Z</time></trkpt><trkpt lat="59.0706215613" lon="29.9964036327"><ele>81.85</ele><time>2026-04-25T17:29:39Z</time></trkpt><trkpt lat="59.0705923084" lon="29.9965614639"><ele>80.89</ele><time>2026-04-25T17:29:54Z</time></trkpt><trkpt lat="59.0705670789" lon="29.9966595322"><ele>80.89</ele><time>2026-04-25T17:30:07Z</time></trkpt><trkpt lat="59.0705576073" lon="29.9967657309"><ele>81.37</ele><time>2026-04-25T17:30:21Z</time></trkpt><trkpt lat="59.0705389995" lon="29.9969881028"><ele>81.37</ele><time>2026-04-25T17:30:35Z</time></trkpt><trkpt lat="59.0705328807" lon="29.9972549826"><ele>81.37</ele><time>2026-04-25T17:30:48Z</time></trkpt><trkpt lat="59.0705457050" lon="29.9975017458"><ele>81.37</ele><time>2026-04-25T17:30:59Z</time></trkpt><trkpt lat="59.0705407597" lon="29.9976651929"><ele>81.37</ele><time>2026-04-25T17:31:09Z</time></trkpt><trkpt lat="59.0705438610" lon="29.9977316614"><ele>81.37</ele><time>2026-04-25T17:31:18Z</time></trkpt><trkpt lat="59.0705447830" lon="29.9977719784"><ele>81.37</ele><time>2026-04-25T17:31:25Z</time></trkpt><trkpt lat="59.0705753770" lon="29.9979118723"><ele>81.37</ele><time>2026-04-25T17:31:34Z</time></trkpt><trkpt lat="59.0705534164" lon="29.9981753156"><ele>81.37</ele><time>2026-04-25T17:31:50Z</time></trkpt><trkpt lat="59.0705633070" lon="29.9983333144"><ele>81.37</ele><time>2026-04-25T17:32:03Z</time></trkpt><trkpt lat="59.0705762152" lon="29.9984709453"><ele>81.37</ele><time>2026-04-25T17:32:14Z</time></trkpt><trkpt lat="59.0705716051" lon="29.9984901398"><ele>81.37</ele><time>2026-04-25T17:32:16Z</time></trkpt><trkpt lat="59.0705462918" lon="29.9986694288"><ele>81.37</ele><time>2026-04-25T17:32:28Z</time></trkpt><trkpt lat="59.0705550928" lon="29.9988276791"><ele>81.37</ele><time>2026-04-25T17:32:40Z</time></trkpt><trkpt lat="59.0705445316" lon="29.9990149308"><ele>81.37</ele><time>2026-04-25T17:32:53Z</time></trkpt><trkpt lat="59.0705417655" lon="29.9990304373"><ele>81.37</ele><time>2026-04-25T17:32:54Z</time></trkpt><trkpt lat="59.0705225710" lon="29.9992117379"><ele>81.37</ele><time>2026-04-25T17:33:06Z</time></trkpt><trkpt lat="59.0705037117" lon="29.9993449263"><ele>81.37</ele><time>2026-04-25T17:33:19Z</time></trkpt><trkpt lat="59.0705478005" lon="29.9994490296"><ele>81.37</ele><time>2026-04-25T17:33:26Z</time></trkpt><trkpt lat="59.0705806576" lon="29.9995966349"><ele>81.37</ele><time>2026-04-25T17:33:36Z</time></trkpt><trkpt lat="59.0705573559" lon="29.9998328369"><ele>81.37</ele><time>2026-04-25T17:33:52Z</time></trkpt><trkpt lat="59.0705669113" lon="30.0000230223"><ele>81.37</ele><time>2026-04-25T17:34:05Z</time></trkpt><trkpt lat="59.0705958288" lon="30.0002166443"><ele>81.37</ele><time>2026-04-25T17:34:18Z</time></trkpt><trkpt lat="59.0705762990" lon="30.0002609007"><ele>81.37</ele><time>2026-04-25T17:34:28Z</time></trkpt><trkpt lat="59.0705636423" lon="30.0002976134"><ele>81.37</ele><time>2026-04-25T17:34:53Z</time></trkpt><trkpt lat="59.0705505665" lon="30.0002913270"><ele>81.37</ele><time>2026-04-25T17:35:12Z</time></trkpt><trkpt lat="59.0704818349" lon="30.0003132876"><ele>81.37</ele><time>2026-04-25T17:35:21Z</time></trkpt><trkpt lat="59.0704049729" lon="30.0003579631"><ele>81.37</ele><time>2026-04-25T17:35:35Z</time></trkpt><trkpt lat="59.0703313798" lon="30.0003748108"><ele>81.37</ele><time>2026-04-25T17:35:48Z</time></trkpt><trkpt lat="59.0702583734" lon="30.0003882218"><ele>81.37</ele><time>2026-04-25T17:35:59Z</time></trkpt><trkpt lat="59.0702262707" lon="30.0003850367"><ele>81.37</ele><time>2026-04-25T17:36:10Z</time></trkpt><trkpt lat="59.0702090878" lon="30.0004308857"><ele>81.37</ele><time>2026-04-25T17:36:31Z</time></trkpt><trkpt lat="59.0701934975" lon="30.0004027225"><ele>81.37</ele><time>2026-04-25T17:36:47Z</time></trkpt><trkpt lat="59.0701441281" lon="30.0003445521"><ele>81.37</ele><time>2026-04-25T17:36:58Z</time></trkpt><trkpt lat="59.0701142885" lon="30.0002672710"><ele>81.37</ele><time>2026-04-25T17:37:09Z</time></trkpt><trkpt lat="59.0701137017" lon="30.0001927558"><ele>81.37</ele><time>2026-04-25T17:37:22Z</time></trkpt><trkpt lat="59.0700814314" lon="29.9999823701"><ele>81.37</ele><time>2026-04-25T17:37:36Z</time></trkpt><trkpt lat="59.0700468142" lon="29.9997542147"><ele>81.37</ele><time>2026-04-25T17:37:49Z</time></trkpt><trkpt lat="59.0700426232" lon="29.9995812960"><ele>81.37</ele><time>2026-04-25T17:38:03Z</time></trkpt><trkpt lat="59.0700308885" lon="29.9992716685"><ele>81.37</ele><time>2026-04-25T17:38:18Z</time></trkpt><trkpt lat="59.0700173937" lon="29.9990791362"><ele>81.37</ele><time>2026-04-25T17:38:31Z</time></trkpt><trkpt lat="59.0700150467" lon="29.9988270923"><ele>81.37</ele><time>2026-04-25T17:38:44Z</time></trkpt><trkpt lat="59.0700202435" lon="29.9986145273"><ele>81.37</ele><time>2026-04-25T17:38:57Z</time></trkpt><trkpt lat="59.0700234286" lon="29.9984087516"><ele>81.37</ele><time>2026-04-25T17:39:10Z</time></trkpt><trkpt lat="59.0700291283" lon="29.9982804246"><ele>81.37</ele><time>2026-04-25T17:39:21Z</time></trkpt><trkpt lat="59.0700411983" lon="29.9980600644"><ele>81.37</ele><time>2026-04-25T17:39:33Z</time></trkpt><trkpt lat="59.0700665955" lon="29.9978441466"><ele>81.37</ele><time>2026-04-25T17:39:47Z</time></trkpt><trkpt lat="59.0701119415" lon="29.9976418912"><ele>81.37</ele><time>2026-04-25T17:40:00Z</time></trkpt><trkpt lat="59.0701090079" lon="29.9975046795"><ele>81.37</ele><time>2026-04-25T17:40:11Z</time></trkpt><trkpt lat="59.0701554436" lon="29.9972773623"><ele>81.37</ele><time>2026-04-25T17:40:25Z</time></trkpt><trkpt lat="59.0701937489" lon="29.9970243126"><ele>81.37</ele><time>2026-04-25T17:40:40Z</time></trkpt><trkpt lat="59.0701848641" lon="29.9968651403"><ele>81.37</ele><time>2026-04-25T17:40:53Z</time></trkpt><trkpt lat="59.0701733809" lon="29.9968039524"><ele>79.93</ele><time>2026-04-25T17:40:57Z</time></trkpt><trkpt lat="59.0701372549" lon="29.9965899624"><ele>81.37</ele><time>2026-04-25T17:41:10Z</time></trkpt><trkpt lat="59.0700750612" lon="29.9964411836"><ele>81.37</ele><time>2026-04-25T17:41:24Z</time></trkpt><trkpt lat="59.0700343251" lon="29.9962861184"><ele>81.37</ele><time>2026-04-25T17:41:37Z</time></trkpt><trkpt lat="59.0700023063" lon="29.9961279519"><ele>80.89</ele><time>2026-04-25T17:41:49Z</time></trkpt><trkpt lat="59.0699685272" lon="29.9959688634"><ele>80.89</ele><time>2026-04-25T17:42:02Z</time></trkpt><trkpt lat="59.0699878056" lon="29.9958044942"><ele>80.89</ele><time>2026-04-25T17:42:14Z</time></trkpt><trkpt lat="59.0700128675" lon="29.9956469983"><ele>80.89</ele><time>2026-04-25T17:42:26Z</time></trkpt><trkpt lat="59.0700437967" lon="29.9954465870"><ele>80.89</ele><time>2026-04-25T17:42:39Z</time></trkpt><trkpt lat="59.0700733848" lon="29.9952360336"><ele>80.89</ele><time>2026-04-25T17:42:52Z</time></trkpt><trkpt lat="59.0700838622" lon="29.9950868357"><ele>80.89</ele><time>2026-04-25T17:43:04Z</time></trkpt><trkpt lat="59.0700743068" lon="29.9949413259"><ele>80.89</ele><time>2026-04-25T17:43:16Z</time></trkpt><trkpt lat="59.0700398572" lon="29.9948171899"><ele>80.89</ele><time>2026-04-25T17:43:30Z</time></trkpt><trkpt lat="59.0700190701" lon="29.9947760347"><ele>80.89</ele><time>2026-04-25T17:43:37Z</time></trkpt><trkpt lat="59.0700147953" lon="29.9946829118"><ele>81.37</ele><time>2026-04-25T17:43:51Z</time></trkpt><trkpt lat="59.0700009651" lon="29.9946275074"><ele>81.37</ele><time>2026-04-25T17:44:05Z</time></trkpt><trkpt lat="59.0699310601" lon="29.9945897888"><ele>81.37</ele><time>2026-04-25T17:44:18Z</time></trkpt><trkpt lat="59.0698859654" lon="29.9945639726"><ele>81.37</ele><time>2026-04-25T17:44:29Z</time></trkpt><trkpt lat="59.0698604845" lon="29.9945415929"><ele>81.37</ele><time>2026-04-25T17:44:48Z</time></trkpt><trkpt lat="59.0698178206" lon="29.9945392460"><ele>81.37</ele><time>2026-04-25T17:45:07Z</time></trkpt><trkpt lat="59.0697408747" lon="29.9945843406"><ele>81.37</ele><time>2026-04-25T17:45:22Z</time></trkpt><trkpt lat="59.0696920920" lon="29.9945902079"><ele>81.37</ele><time>2026-04-25T17:45:33Z</time></trkpt><trkpt lat="59.0695739072" lon="29.9945597816"><ele>81.37</ele><time>2026-04-25T17:45:45Z</time></trkpt><trkpt lat="59.0694812033" lon="29.9945457838"><ele>81.37</ele><time>2026-04-25T17:46:00Z</time></trkpt><trkpt lat="59.0694057662" lon="29.9946622923"><ele>81.37</ele><time>2026-04-25T17:46:16Z</time></trkpt><trkpt lat="59.0693738312" lon="29.9947379809"><ele>81.37</ele><time>2026-04-25T17:46:29Z</time></trkpt><trkpt lat="59.0693358611" lon="29.9947683234"><ele>81.37</ele><time>2026-04-25T17:46:50Z</time></trkpt><trkpt lat="59.0693431534" lon="29.9949228019"><ele>81.37</ele><time>2026-04-25T17:47:01Z</time></trkpt><trkpt lat="59.0693301614" lon="29.9950945470"><ele>81.37</ele><time>2026-04-25T17:47:15Z</time></trkpt><trkpt lat="59.0693517867" lon="29.9951836467"><ele>81.37</ele><time>2026-04-25T17:47:27Z</time></trkpt><trkpt lat="59.0693816263" lon="29.9953542184"><ele>81.85</ele><time>2026-04-25T17:47:38Z</time></trkpt><trkpt lat="59.0694065206" lon="29.9954309966"><ele>81.85</ele><time>2026-04-25T17:47:53Z</time></trkpt><trkpt lat="59.0694369469" lon="29.9954794440"><ele>81.85</ele><time>2026-04-25T17:48:07Z</time></trkpt><trkpt lat="59.0694723185" lon="29.9955692980"><ele>82.33</ele><time>2026-04-25T17:48:20Z</time></trkpt><trkpt lat="59.0695511084" lon="29.9956955295"><ele>82.33</ele><time>2026-04-25T17:48:32Z</time></trkpt><trkpt lat="59.0696110390" lon="29.9957876466"><ele>82.81</ele><time>2026-04-25T17:48:43Z</time></trkpt><trkpt lat="59.0696294792" lon="29.9958133791"><ele>82.81</ele><time>2026-04-25T17:48:58Z</time></trkpt><trkpt lat="59.0696392860" lon="29.9958525226"><ele>82.81</ele><time>2026-04-25T17:49:14Z</time></trkpt><trkpt lat="59.0696357656" lon="29.9960070848"><ele>82.81</ele><time>2026-04-25T17:49:25Z</time></trkpt><trkpt lat="59.0696197562" lon="29.9962772336"><ele>82.81</ele><time>2026-04-25T17:49:39Z</time></trkpt><trkpt lat="59.0696149785" lon="29.9965325464"><ele>83.29</ele><time>2026-04-25T17:49:52Z</time></trkpt><trkpt lat="59.0696137212" lon="29.9967543315"><ele>83.29</ele><time>2026-04-25T17:50:05Z</time></trkpt><trkpt lat="59.0696392022" lon="29.9969404936"><ele>83.29</ele><time>2026-04-25T17:50:18Z</time></trkpt><trkpt lat="59.0696596541" lon="29.9971609376"><ele>83.77</ele><time>2026-04-25T17:50:33Z</time></trkpt><trkpt lat="59.0696812794" lon="29.9972964730"><ele>83.77</ele><time>2026-04-25T17:50:44Z</time></trkpt><trkpt lat="59.0697098617" lon="29.9974668771"><ele>83.77</ele><time>2026-04-25T17:50:56Z</time></trkpt><trkpt lat="59.0696950257" lon="29.9976553861"><ele>83.77</ele><time>2026-04-25T17:51:08Z</time></trkpt><trkpt lat="59.0696654376" lon="29.9978267960"><ele>83.77</ele><time>2026-04-25T17:51:20Z</time></trkpt><trkpt lat="59.0696323290" lon="29.9979992956"><ele>84.25</ele><time>2026-04-25T17:51:33Z</time></trkpt><trkpt lat="59.0696317423" lon="29.9981819373"><ele>84.25</ele><time>2026-04-25T17:51:45Z</time></trkpt><trkpt lat="59.0696359333" lon="29.9983815104"><ele>84.25</ele><time>2026-04-25T17:51:59Z</time></trkpt><trkpt lat="59.0696494281" lon="29.9985263497"><ele>84.25</ele><time>2026-04-25T17:52:10Z</time></trkpt><trkpt lat="59.0696798544" lon="29.9986609630"><ele>84.25</ele><time>2026-04-25T17:52:25Z</time></trkpt><trkpt lat="59.0696618333" lon="29.9987933971"><ele>84.25</ele><time>2026-04-25T17:52:34Z</time></trkpt><trkpt lat="59.0696360171" lon="29.9989156891"><ele>84.73</ele><time>2026-04-25T17:52:47Z</time></trkpt><trkpt lat="59.0696345922" lon="29.9990777951"><ele>84.73</ele><time>2026-04-25T17:53:00Z</time></trkpt><trkpt lat="59.0696151461" lon="29.9992192816"><ele>84.73</ele><time>2026-04-25T17:53:12Z</time></trkpt><trkpt lat="59.0695875697" lon="29.9995017517"><ele>84.73</ele><time>2026-04-25T17:53:25Z</time></trkpt><trkpt lat="59.0695920121" lon="29.9996819627"><ele>84.73</ele><time>2026-04-25T17:53:36Z</time></trkpt><trkpt lat="59.0696101170" lon="29.9998847209"><ele>84.73</ele><time>2026-04-25T17:53:46Z</time></trkpt><trkpt lat="59.0696371067" lon="29.9999572244"><ele>84.73</ele><time>2026-04-25T17:53:50Z</time></trkpt><trkpt lat="59.0697042458" lon="30.0002303906"><ele>84.73</ele><time>2026-04-25T17:54:06Z</time></trkpt><trkpt lat="59.0697060898" lon="30.0003079232"><ele>84.73</ele><time>2026-04-25T17:54:11Z</time></trkpt><trkpt lat="59.0697621647" lon="30.0005398504"><ele>85.21</ele><time>2026-04-25T17:54:24Z</time></trkpt><trkpt lat="59.0697793476" lon="30.0005908962"><ele>85.21</ele><time>2026-04-25T17:54:36Z</time></trkpt><trkpt lat="59.0697479155" lon="30.0005679298"><ele>86.18</ele><time>2026-04-25T17:55:02Z</time></trkpt><trkpt lat="59.0697249491" lon="30.0005324744"><ele>86.18</ele><time>2026-04-25T17:55:29Z</time></trkpt><trkpt lat="59.0697012283" lon="30.0004230905"><ele>86.18</ele><time>2026-04-25T17:55:38Z</time></trkpt><trkpt lat="59.0696618333" lon="30.0001568813"><ele>86.18</ele><time>2026-04-25T17:55:54Z</time></trkpt><trkpt lat="59.0696054231" lon="29.9998702202"><ele>86.18</ele><time>2026-04-25T17:56:10Z</time></trkpt><trkpt lat="59.0695762541" lon="29.9996694736"><ele>86.18</ele><time>2026-04-25T17:56:22Z</time></trkpt><trkpt lat="59.0695745777" lon="29.9995331839"><ele>86.18</ele><time>2026-04-25T17:56:34Z</time></trkpt><trkpt lat="59.0695556346" lon="29.9993488658"><ele>86.18</ele><time>2026-04-25T17:56:46Z</time></trkpt><trkpt lat="59.0694755875" lon="29.9991426710"><ele>84.73</ele><time>2026-04-25T17:57:01Z</time></trkpt><trkpt lat="59.0694611706" lon="29.9989766255"><ele>84.73</ele><time>2026-04-25T17:57:15Z</time></trkpt><trkpt lat="59.0694718994" lon="29.9987726938"><ele>84.73</ele><time>2026-04-25T17:57:32Z</time></trkpt><trkpt lat="59.0694558062" lon="29.9985275231"><ele>84.73</ele><time>2026-04-25T17:57:45Z</time></trkpt><trkpt lat="59.0694116335" lon="29.9981836136"><ele>84.73</ele><time>2026-04-25T17:58:00Z</time></trkpt><trkpt lat="59.0693472605" lon="29.9978765007"><ele>85.21</ele><time>2026-04-25T17:58:13Z</time></trkpt><trkpt lat="59.0693211928" lon="29.9976142310"><ele>85.21</ele><time>2026-04-25T17:58:28Z</time></trkpt><trkpt lat="59.0692781936" lon="29.9974225368"><ele>85.21</ele><time>2026-04-25T17:58:39Z</time></trkpt><trkpt lat="59.0692554787" lon="29.9972143304"><ele>85.21</ele><time>2026-04-25T17:58:52Z</time></trkpt><trkpt lat="59.0692320932" lon="29.9970329460"><ele>86.18</ele><time>2026-04-25T17:59:05Z</time></trkpt><trkpt lat="59.0692199394" lon="29.9967985880"><ele>86.18</ele><time>2026-04-25T17:59:17Z</time></trkpt><trkpt lat="59.0692001581" lon="29.9966027867"><ele>86.18</ele><time>2026-04-25T17:59:30Z</time></trkpt><trkpt lat="59.0691713244" lon="29.9964075722"><ele>86.18</ele><time>2026-04-25T17:59:43Z</time></trkpt><trkpt lat="59.0691612661" lon="29.9963616394"><ele>84.73</ele><time>2026-04-25T17:59:46Z</time></trkpt><trkpt lat="59.0691315103" lon="29.9961265270"><ele>84.73</ele><time>2026-04-25T18:00:00Z</time></trkpt><trkpt lat="59.0690805484" lon="29.9959827773"><ele>84.73</ele><time>2026-04-25T18:00:11Z</time></trkpt><trkpt lat="59.0690542292" lon="29.9959612358"><ele>84.73</ele><time>2026-04-25T18:00:22Z</time></trkpt><trkpt lat="59.0690638684" lon="29.9958540313"><ele>84.73</ele><time>2026-04-25T18:00:35Z</time></trkpt><trkpt lat="59.0690460149" lon="29.9957295600"><ele>84.73</ele><time>2026-04-25T18:00:48Z</time></trkpt><trkpt lat="59.0690540615" lon="29.9955216888"><ele>84.73</ele><time>2026-04-25T18:01:01Z</time></trkpt><trkpt lat="59.0690067038" lon="29.9952584133"><ele>84.73</ele><time>2026-04-25T18:01:15Z</time></trkpt><trkpt lat="59.0689941309" lon="29.9951588362"><ele>84.73</ele><time>2026-04-25T18:01:25Z</time></trkpt><trkpt lat="59.0689872578" lon="29.9950870872"><ele>84.73</ele><time>2026-04-25T18:01:37Z</time></trkpt><trkpt lat="59.0689863358" lon="29.9950252287"><ele>84.73</ele><time>2026-04-25T18:01:48Z</time></trkpt><trkpt lat="59.0689735953" lon="29.9949156772"><ele>84.73</ele><time>2026-04-25T18:01:58Z</time></trkpt><trkpt lat="59.0689666383" lon="29.9948296789"><ele>84.73</ele><time>2026-04-25T18:02:12Z</time></trkpt><trkpt lat="59.0689609386" lon="29.9947147630"><ele>84.73</ele><time>2026-04-25T18:02:22Z</time></trkpt><trkpt lat="59.0689519700" lon="29.9945726898"><ele>84.73</ele><time>2026-04-25T18:02:37Z</time></trkpt><trkpt lat="59.0689538978" lon="29.9944671616"><ele>84.73</ele><time>2026-04-25T18:03:08Z</time></trkpt><trkpt lat="59.0689318534" lon="29.9943909701"><ele>84.73</ele><time>2026-04-25T18:03:22Z</time></trkpt><trkpt lat="59.0689300094" lon="29.9943735357"><ele>86.18</ele><time>2026-04-25T18:03:29Z</time></trkpt><trkpt lat="59.0689265728" lon="29.9943595380"><ele>84.73</ele><time>2026-04-25T18:03:35Z</time></trkpt><trkpt lat="59.0689177718" lon="29.9942265172"><ele>85.69</ele><time>2026-04-25T18:03:50Z</time></trkpt><trkpt lat="59.0688969847" lon="29.9940458871"><ele>85.69</ele><time>2026-04-25T18:04:01Z</time></trkpt><trkpt lat="59.0688653011" lon="29.9938734714"><ele>85.69</ele><time>2026-04-25T18:04:14Z</time></trkpt><trkpt lat="59.0688531473" lon="29.9938223418"><ele>85.69</ele><time>2026-04-25T18:04:25Z</time></trkpt><trkpt lat="59.0688485373" lon="29.9938045722"><ele>85.69</ele><time>2026-04-25T18:04:52Z</time></trkpt><trkpt lat="59.0688502137" lon="29.9937986210"><ele>85.69</ele><time>2026-04-25T18:05:21Z</time></trkpt><trkpt lat="59.0688342042" lon="29.9937327392"><ele>86.18</ele><time>2026-04-25T18:05:43Z</time></trkpt><trkpt lat="59.0687993355" lon="29.9935452361"><ele>85.21</ele><time>2026-04-25T18:05:55Z</time></trkpt><trkpt lat="59.0687616169" lon="29.9934005644"><ele>85.21</ele><time>2026-04-25T18:06:06Z</time></trkpt><trkpt lat="59.0687319450" lon="29.9933024962"><ele>85.21</ele><time>2026-04-25T18:06:19Z</time></trkpt><trkpt lat="59.0686809830" lon="29.9931244645"><ele>85.21</ele><time>2026-04-25T18:06:30Z</time></trkpt><trkpt lat="59.0686861798" lon="29.9930198584"><ele>85.21</ele><time>2026-04-25T18:06:39Z</time></trkpt><trkpt lat="59.0686381515" lon="29.9928603508"><ele>85.21</ele><time>2026-04-25T18:06:51Z</time></trkpt><trkpt lat="59.0685783047" lon="29.9927083869"><ele>85.21</ele><time>2026-04-25T18:07:03Z</time></trkpt><trkpt lat="59.0685073100" lon="29.9925303552"><ele>85.21</ele><time>2026-04-25T18:07:15Z</time></trkpt><trkpt lat="59.0684496425" lon="29.9924464524"><ele>85.21</ele><time>2026-04-25T18:07:27Z</time></trkpt><trkpt lat="59.0684141032" lon="29.9923977535"><ele>85.21</ele><time>2026-04-25T18:07:44Z</time></trkpt><trkpt lat="59.0683911368" lon="29.9923835043"><ele>85.21</ele><time>2026-04-25T18:07:58Z</time></trkpt><trkpt lat="59.0683573578" lon="29.9922821671"><ele>85.21</ele><time>2026-04-25T18:08:13Z</time></trkpt><trkpt lat="59.0683383308" lon="29.9922405090"><ele>85.21</ele><time>2026-04-25T18:08:17Z</time></trkpt><trkpt lat="59.0682804119" lon="29.9922074005"><ele>84.73</ele><time>2026-04-25T18:08:30Z</time></trkpt><trkpt lat="59.0682474710" lon="29.9921026267"><ele>84.73</ele><time>2026-04-25T18:08:49Z</time></trkpt><trkpt lat="59.0681359079" lon="29.9919770658"><ele>84.73</ele><time>2026-04-25T18:09:01Z</time></trkpt><trkpt lat="59.0680760611" lon="29.9919386767"><ele>84.73</ele><time>2026-04-25T18:09:10Z</time></trkpt><trkpt lat="59.0679547749" lon="29.9917921610"><ele>84.25</ele><time>2026-04-25T18:09:24Z</time></trkpt><trkpt lat="59.0678808466" lon="29.9916915782"><ele>84.25</ele><time>2026-04-25T18:09:34Z</time></trkpt><trkpt lat="59.0677965246" lon="29.9916328210"><ele>84.25</ele><time>2026-04-25T18:09:46Z</time></trkpt><trkpt lat="59.0677214228" lon="29.9917047378"><ele>84.25</ele><time>2026-04-25T18:09:59Z</time></trkpt><trkpt lat="59.0676619112" lon="29.9917264469"><ele>84.25</ele><time>2026-04-25T18:10:11Z</time></trkpt><trkpt lat="59.0676184930" lon="29.9917012174"><ele>84.25</ele><time>2026-04-25T18:10:23Z</time></trkpt><trkpt lat="59.0675647650" lon="29.9917281233"><ele>83.29</ele><time>2026-04-25T18:10:34Z</time></trkpt><trkpt lat="59.0675268788" lon="29.9917592201"><ele>84.25</ele><time>2026-04-25T18:10:48Z</time></trkpt><trkpt lat="59.0674729832" lon="29.9917872995"><ele>84.25</ele><time>2026-04-25T18:11:08Z</time></trkpt><trkpt lat="59.0674302354" lon="29.9917955976"><ele>84.25</ele><time>2026-04-25T18:11:14Z</time></trkpt><trkpt lat="59.0673459135" lon="29.9918693583"><ele>84.25</ele><time>2026-04-25T18:11:28Z</time></trkpt><trkpt lat="59.0672410559" lon="29.9919146206"><ele>84.25</ele><time>2026-04-25T18:11:39Z</time></trkpt><trkpt lat="59.0672035050" lon="29.9919045623"><ele>83.29</ele><time>2026-04-25T18:11:53Z</time></trkpt><trkpt lat="59.0671095438" lon="29.9917555321"><ele>83.29</ele><time>2026-04-25T18:12:05Z</time></trkpt><trkpt lat="59.0669807978" lon="29.9916685279"><ele>83.29</ele><time>2026-04-25T18:12:19Z</time></trkpt><trkpt lat="59.0669612680" lon="29.9916657619"><ele>83.29</ele><time>2026-04-25T18:12:21Z</time></trkpt><trkpt lat="59.0669301711" lon="29.9916361738"><ele>83.29</ele><time>2026-04-25T18:12:24Z</time></trkpt><trkpt lat="59.0669003315" lon="29.9916135427"><ele>83.29</ele><time>2026-04-25T18:12:28Z</time></trkpt><trkpt lat="59.0668390598" lon="29.9914103653"><ele>83.29</ele><time>2026-04-25T18:12:40Z</time></trkpt><trkpt lat="59.0667454340" lon="29.9912864808"><ele>83.29</ele><time>2026-04-25T18:12:53Z</time></trkpt><trkpt lat="59.0666989144" lon="29.9912249576"><ele>83.29</ele><time>2026-04-25T18:13:05Z</time></trkpt><trkpt lat="59.0666935500" lon="29.9910718203"><ele>83.29</ele><time>2026-04-25T18:13:17Z</time></trkpt><trkpt lat="59.0666361339" lon="29.9908742588"><ele>83.29</ele><time>2026-04-25T18:13:30Z</time></trkpt><trkpt lat="59.0665868483" lon="29.9907937925"><ele>83.29</ele><time>2026-04-25T18:13:41Z</time></trkpt><trkpt lat="59.0664953180" lon="29.9906268250"><ele>83.29</ele><time>2026-04-25T18:13:54Z</time></trkpt><trkpt lat="59.0664187074" lon="29.9905083887"><ele>83.29</ele><time>2026-04-25T18:14:05Z</time></trkpt><trkpt lat="59.0663473774" lon="29.9904969055"><ele>83.29</ele><time>2026-04-25T18:14:16Z</time></trkpt><trkpt lat="59.0663051326" lon="29.9904124159"><ele>83.29</ele><time>2026-04-25T18:14:22Z</time></trkpt><trkpt lat="59.0662819147" lon="29.9902933091"><ele>82.33</ele><time>2026-04-25T18:14:30Z</time></trkpt><trkpt lat="59.0661630593" lon="29.9901670776"><ele>82.33</ele><time>2026-04-25T18:14:44Z</time></trkpt><trkpt lat="59.0660799947" lon="29.9900730327"><ele>83.77</ele><time>2026-04-25T18:14:58Z</time></trkpt><trkpt lat="59.0660597943" lon="29.9899317138"><ele>83.77</ele><time>2026-04-25T18:15:10Z</time></trkpt><trkpt lat="59.0660432819" lon="29.9898531754"><ele>83.77</ele><time>2026-04-25T18:15:20Z</time></trkpt><trkpt lat="59.0660053119" lon="29.9896852020"><ele>83.77</ele><time>2026-04-25T18:15:32Z</time></trkpt><trkpt lat="59.0660017915" lon="29.9895749800"><ele>83.77</ele><time>2026-04-25T18:15:43Z</time></trkpt><trkpt lat="59.0659375861" lon="29.9894443061"><ele>83.77</ele><time>2026-04-25T18:15:57Z</time></trkpt><trkpt lat="59.0659053158" lon="29.9893776700"><ele>83.77</ele><time>2026-04-25T18:16:12Z</time></trkpt><trkpt lat="59.0658881329" lon="29.9892654363"><ele>83.77</ele><time>2026-04-25T18:16:25Z</time></trkpt><trkpt lat="59.0658653341" lon="29.9891372770"><ele>83.77</ele><time>2026-04-25T18:16:36Z</time></trkpt><trkpt lat="59.0658837743" lon="29.9890298210"><ele>83.77</ele><time>2026-04-25T18:16:50Z</time></trkpt><trkpt lat="59.0659359097" lon="29.9888837244"><ele>83.77</ele><time>2026-04-25T18:17:02Z</time></trkpt><trkpt lat="59.0659549367" lon="29.9887406453"><ele>83.77</ele><time>2026-04-25T18:17:13Z</time></trkpt><trkpt lat="59.0659965109" lon="29.9886963051"><ele>83.77</ele><time>2026-04-25T18:17:27Z</time></trkpt><trkpt lat="59.0660396777" lon="29.9886254780"><ele>83.77</ele><time>2026-04-25T18:17:40Z</time></trkpt><trkpt lat="59.0660824254" lon="29.9885037728"><ele>83.77</ele><time>2026-04-25T18:17:51Z</time></trkpt><trkpt lat="59.0660901368" lon="29.9884663895"><ele>83.77</ele><time>2026-04-25T18:17:55Z</time></trkpt><trkpt lat="59.0660592914" lon="29.9883906171"><ele>83.77</ele><time>2026-04-25T18:18:08Z</time></trkpt><trkpt lat="59.0660235845" lon="29.9883228913"><ele>82.33</ele><time>2026-04-25T18:18:20Z</time></trkpt><trkpt lat="59.0659290366" lon="29.9882674031"><ele>82.33</ele><time>2026-04-25T18:18:31Z</time></trkpt><trkpt lat="59.0659234207" lon="29.9882469513"><ele>82.33</ele><time>2026-04-25T18:18:43Z</time></trkpt><trkpt lat="59.0659003705" lon="29.9881867692"><ele>82.33</ele><time>2026-04-25T18:18:56Z</time></trkpt><trkpt lat="59.0658390988" lon="29.9881063867"><ele>82.33</ele><time>2026-04-25T18:19:10Z</time></trkpt><trkpt lat="59.0657286253" lon="29.9881544989"><ele>82.33</ele><time>2026-04-25T18:19:23Z</time></trkpt><trkpt lat="59.0656787530" lon="29.9881397467"><ele>82.33</ele><time>2026-04-25T18:19:36Z</time></trkpt><trkpt lat="59.0656282939" lon="29.9881248269"><ele>82.33</ele><time>2026-04-25T18:19:47Z</time></trkpt><trkpt lat="59.0655754879" lon="29.9880745355"><ele>82.33</ele><time>2026-04-25T18:20:01Z</time></trkpt><trkpt lat="59.0655521862" lon="29.9880897067"><ele>82.33</ele><time>2026-04-25T18:20:14Z</time></trkpt><trkpt lat="59.0655308124" lon="29.9880885333"><ele>82.33</ele><time>2026-04-25T18:20:25Z</time></trkpt><trkpt lat="59.0654751565" lon="29.9881094880"><ele>82.33</ele><time>2026-04-25T18:20:37Z</time></trkpt><trkpt lat="59.0654675290" lon="29.9881140981"><ele>82.33</ele><time>2026-04-25T18:20:50Z</time></trkpt><trkpt lat="59.0654156450" lon="29.9881581031"><ele>82.33</ele><time>2026-04-25T18:21:00Z</time></trkpt><trkpt lat="59.0653789323" lon="29.9881684966"><ele>82.33</ele><time>2026-04-25T18:21:12Z</time></trkpt><trkpt lat="59.0653174929" lon="29.9880998489"><ele>82.33</ele><time>2026-04-25T18:21:26Z</time></trkpt><trkpt lat="59.0652578138" lon="29.9881327059"><ele>82.33</ele><time>2026-04-25T18:21:37Z</time></trkpt><trkpt lat="59.0652425587" lon="29.9881363101"><ele>82.33</ele><time>2026-04-25T18:21:47Z</time></trkpt><trkpt lat="59.0652185865" lon="29.9881406687"><ele>81.85</ele><time>2026-04-25T18:22:00Z</time></trkpt><trkpt lat="59.0651794430" lon="29.9881298561"><ele>81.85</ele><time>2026-04-25T18:22:11Z</time></trkpt><trkpt lat="59.0651626792" lon="29.9881120864"><ele>81.85</ele><time>2026-04-25T18:22:25Z</time></trkpt><trkpt lat="59.0651610028" lon="29.9880731944"><ele>81.85</ele><time>2026-04-25T18:22:37Z</time></trkpt><trkpt lat="59.0651776828" lon="29.9880405888"><ele>81.85</ele><time>2026-04-25T18:22:49Z</time></trkpt><trkpt lat="59.0651905909" lon="29.9879252538"><ele>81.85</ele><time>2026-04-25T18:23:02Z</time></trkpt><trkpt lat="59.0651962906" lon="29.9878518283"><ele>81.85</ele><time>2026-04-25T18:23:13Z</time></trkpt><trkpt lat="59.0651963744" lon="29.9877713621"><ele>81.85</ele><time>2026-04-25T18:23:24Z</time></trkpt><trkpt lat="59.0651672054" lon="29.9877131917"><ele>81.85</ele><time>2026-04-25T18:23:35Z</time></trkpt><trkpt lat="59.0651630983" lon="29.9876889680"><ele>81.85</ele><time>2026-04-25T18:23:46Z</time></trkpt><trkpt lat="59.0651115496" lon="29.9876455497"><ele>81.85</ele><time>2026-04-25T18:23:59Z</time></trkpt><trkpt lat="59.0650820453" lon="29.9876402691"><ele>81.85</ele><time>2026-04-25T18:24:11Z</time></trkpt><trkpt lat="59.0650077816" lon="29.9876773171"><ele>81.85</ele><time>2026-04-25T18:24:23Z</time></trkpt><trkpt lat="59.0649565682" lon="29.9876164645"><ele>81.85</ele><time>2026-04-25T18:24:35Z</time></trkpt><trkpt lat="59.0649324283" lon="29.9875310529"><ele>81.85</ele><time>2026-04-25T18:24:45Z</time></trkpt><trkpt lat="59.0649263095" lon="29.9874888081"><ele>81.85</ele><time>2026-04-25T18:24:56Z</time></trkpt><trkpt lat="59.0649472643" lon="29.9873904884"><ele>81.85</ele><time>2026-04-25T18:25:08Z</time></trkpt><trkpt lat="59.0649615973" lon="29.9873065855"><ele>81.85</ele><time>2026-04-25T18:25:21Z</time></trkpt><trkpt lat="59.0649526287" lon="29.9871992972"><ele>81.85</ele><time>2026-04-25T18:25:34Z</time></trkpt><trkpt lat="59.0648681391" lon="29.9870713893"><ele>81.85</ele><time>2026-04-25T18:25:44Z</time></trkpt><trkpt lat="59.0648079570" lon="29.9870129675"><ele>81.85</ele><time>2026-04-25T18:25:53Z</time></trkpt><trkpt lat="59.0647577494" lon="29.9869725667"><ele>81.85</ele><time>2026-04-25T18:26:03Z</time></trkpt><trkpt lat="59.0647343639" lon="29.9868772645"><ele>81.85</ele><time>2026-04-25T18:26:17Z</time></trkpt><trkpt lat="59.0646486171" lon="29.9867980555"><ele>81.85</ele><time>2026-04-25T18:26:31Z</time></trkpt><trkpt lat="59.0645849984" lon="29.9867506977"><ele>81.85</ele><time>2026-04-25T18:26:43Z</time></trkpt><trkpt lat="59.0645324439" lon="29.9867477641"><ele>81.85</ele><time>2026-04-25T18:26:56Z</time></trkpt><trkpt lat="59.0645214636" lon="29.9867406394"><ele>82.81</ele><time>2026-04-25T18:27:03Z</time></trkpt><trkpt lat="59.0645140875" lon="29.9867241271"><ele>82.81</ele><time>2026-04-25T18:27:11Z</time></trkpt><trkpt lat="59.0644683223" lon="29.9867006578"><ele>82.81</ele><time>2026-04-25T18:27:22Z</time></trkpt><trkpt lat="59.0644117445" lon="29.9866652023"><ele>82.81</ele><time>2026-04-25T18:27:36Z</time></trkpt><trkpt lat="59.0643870179" lon="29.9866595026"><ele>82.81</ele><time>2026-04-25T18:27:53Z</time></trkpt><trkpt lat="59.0643757861" lon="29.9866615981"><ele>82.81</ele><time>2026-04-25T18:28:04Z</time></trkpt><trkpt lat="59.0643778816" lon="29.9866663758"><ele>82.81</ele><time>2026-04-25T18:28:19Z</time></trkpt><trkpt lat="59.0643690806" lon="29.9866460077"><ele>82.81</ele><time>2026-04-25T18:28:34Z</time></trkpt><trkpt lat="59.0643662307" lon="29.9866430741"><ele>83.29</ele><time>2026-04-25T18:28:39Z</time></trkpt><trkpt lat="59.0643457789" lon="29.9865987338"><ele>83.29</ele><time>2026-04-25T18:28:51Z</time></trkpt><trkpt lat="59.0643069707" lon="29.9865766894"><ele>83.29</ele><time>2026-04-25T18:29:01Z</time></trkpt><trkpt lat="59.0642566793" lon="29.9864808004"><ele>83.29</ele><time>2026-04-25T18:29:15Z</time></trkpt><trkpt lat="59.0642561764" lon="29.9863692373"><ele>83.29</ele><time>2026-04-25T18:29:28Z</time></trkpt><trkpt lat="59.0642558411" lon="29.9862943869"><ele>83.29</ele><time>2026-04-25T18:29:42Z</time></trkpt><trkpt lat="59.0642387420" lon="29.9862306844"><ele>83.29</ele><time>2026-04-25T18:29:56Z</time></trkpt><trkpt lat="59.0642303601" lon="29.9862378929"><ele>83.29</ele><time>2026-04-25T18:30:08Z</time></trkpt><trkpt lat="59.0642429329" lon="29.9861492962"><ele>83.29</ele><time>2026-04-25T18:30:23Z</time></trkpt><trkpt lat="59.0642395802" lon="29.9860787205"><ele>83.29</ele><time>2026-04-25T18:30:35Z</time></trkpt><trkpt lat="59.0642306954" lon="29.9860814866"><ele>83.29</ele><time>2026-04-25T18:30:48Z</time></trkpt><trkpt lat="59.0642288513" lon="29.9860878568"><ele>83.29</ele><time>2026-04-25T18:30:51Z</time></trkpt><trkpt lat="59.0642102435" lon="29.9860586878"><ele>83.29</ele><time>2026-04-25T18:31:02Z</time></trkpt><trkpt lat="59.0641510673" lon="29.9860295188"><ele>83.29</ele><time>2026-04-25T18:31:16Z</time></trkpt><trkpt lat="59.0640893765" lon="29.9859241582"><ele>83.29</ele><time>2026-04-25T18:31:27Z</time></trkpt><trkpt lat="59.0640549269" lon="29.9858637247"><ele>83.29</ele><time>2026-04-25T18:31:40Z</time></trkpt><trkpt lat="59.0640231594" lon="29.9858939834"><ele>83.29</ele><time>2026-04-25T18:31:53Z</time></trkpt><trkpt lat="59.0639830939" lon="29.9859754555"><ele>83.29</ele><time>2026-04-25T18:32:02Z</time></trkpt><trkpt lat="59.0639385022" lon="29.9859861843"><ele>83.29</ele><time>2026-04-25T18:32:12Z</time></trkpt><trkpt lat="59.0638839360" lon="29.9859864358"><ele>83.29</ele><time>2026-04-25T18:32:24Z</time></trkpt><trkpt lat="59.0638582036" lon="29.9859964941"><ele>83.29</ele><time>2026-04-25T18:32:37Z</time></trkpt><trkpt lat="59.0638307948" lon="29.9859998468"><ele>83.29</ele><time>2026-04-25T18:32:53Z</time></trkpt><trkpt lat="59.0638170484" lon="29.9859932251"><ele>83.29</ele><time>2026-04-25T18:33:04Z</time></trkpt><trkpt lat="59.0637935791" lon="29.9859466217"><ele>83.29</ele><time>2026-04-25T18:33:15Z</time></trkpt><trkpt lat="59.0637753066" lon="29.9859027006"><ele>83.29</ele><time>2026-04-25T18:33:28Z</time></trkpt><trkpt lat="59.0637754742" lon="29.9858495593"><ele>83.29</ele><time>2026-04-25T18:33:33Z</time></trkpt><trkpt lat="59.0637290385" lon="29.9856981821"><ele>83.29</ele><time>2026-04-25T18:33:46Z</time></trkpt><trkpt lat="59.0637028869" lon="29.9856482260"><ele>83.29</ele><time>2026-04-25T18:34:04Z</time></trkpt><trkpt lat="59.0636862069" lon="29.9855480623"><ele>83.29</ele><time>2026-04-25T18:34:19Z</time></trkpt><trkpt lat="59.0636532661" lon="29.9854804203"><ele>83.29</ele><time>2026-04-25T18:34:31Z</time></trkpt><trkpt lat="59.0636032261" lon="29.9853604753"><ele>83.29</ele><time>2026-04-25T18:34:42Z</time></trkpt><trkpt lat="59.0635440499" lon="29.9853227567"><ele>83.29</ele><time>2026-04-25T18:34:54Z</time></trkpt><trkpt lat="59.0634904895" lon="29.9853365868"><ele>83.29</ele><time>2026-04-25T18:35:06Z</time></trkpt><trkpt lat="59.0634196624" lon="29.9852361716"><ele>83.29</ele><time>2026-04-25T18:35:19Z</time></trkpt><trkpt lat="59.0633662697" lon="29.9852340762"><ele>83.29</ele><time>2026-04-25T18:35:30Z</time></trkpt><trkpt lat="59.0633229353" lon="29.9852479063"><ele>83.29</ele><time>2026-04-25T18:35:41Z</time></trkpt><trkpt lat="59.0632483363" lon="29.9852334894"><ele>83.29</ele><time>2026-04-25T18:35:54Z</time></trkpt><trkpt lat="59.0631676186" lon="29.9851742294"><ele>83.29</ele><time>2026-04-25T18:36:07Z</time></trkpt><trkpt lat="59.0630656946" lon="29.9851538613"><ele>83.29</ele><time>2026-04-25T18:36:18Z</time></trkpt><trkpt lat="59.0629714821" lon="29.9851525202"><ele>83.29</ele><time>2026-04-25T18:36:33Z</time></trkpt><trkpt lat="59.0629214421" lon="29.9850345030"><ele>83.29</ele><time>2026-04-25T18:36:47Z</time></trkpt><trkpt lat="59.0628564823" lon="29.9850377720"><ele>81.85</ele><time>2026-04-25T18:36:56Z</time></trkpt><trkpt lat="59.0628056880" lon="29.9850434717"><ele>81.85</ele><time>2026-04-25T18:37:06Z</time></trkpt><trkpt lat="59.0627285745" lon="29.9851098564"><ele>81.85</ele><time>2026-04-25T18:37:20Z</time></trkpt><trkpt lat="59.0626822226" lon="29.9850812741"><ele>81.85</ele><time>2026-04-25T18:37:33Z</time></trkpt><trkpt lat="59.0626097191" lon="29.9850589782"><ele>81.85</ele><time>2026-04-25T18:37:45Z</time></trkpt><trkpt lat="59.0625360422" lon="29.9850823637"><ele>81.85</ele><time>2026-04-25T18:37:58Z</time></trkpt><trkpt lat="59.0624888521" lon="29.9850771669"><ele>81.85</ele><time>2026-04-25T18:38:13Z</time></trkpt><trkpt lat="59.0624196175" lon="29.9850725569"><ele>83.29</ele><time>2026-04-25T18:38:22Z</time></trkpt><trkpt lat="59.0623076353" lon="29.9850992952"><ele>81.85</ele><time>2026-04-25T18:38:34Z</time></trkpt><trkpt lat="59.0622309409" lon="29.9850627501"><ele>83.29</ele><time>2026-04-25T18:38:48Z</time></trkpt><trkpt lat="59.0621514805" lon="29.9849923421"><ele>83.29</ele><time>2026-04-25T18:39:01Z</time></trkpt><trkpt lat="59.0620785579" lon="29.9849037454"><ele>83.29</ele><time>2026-04-25T18:39:13Z</time></trkpt><trkpt lat="59.0620673262" lon="29.9848947767"><ele>83.29</ele><time>2026-04-25T18:39:14Z</time></trkpt><trkpt lat="59.0619946551" lon="29.9847853091"><ele>83.29</ele><time>2026-04-25T18:39:26Z</time></trkpt><trkpt lat="59.0619566012" lon="29.9847340956"><ele>83.29</ele><time>2026-04-25T18:39:34Z</time></trkpt><trkpt lat="59.0618710220" lon="29.9847108778"><ele>83.29</ele><time>2026-04-25T18:39:46Z</time></trkpt><trkpt lat="59.0617773961" lon="29.9847563915"><ele>83.29</ele><time>2026-04-25T18:39:58Z</time></trkpt><trkpt lat="59.0617336426" lon="29.9848568905"><ele>83.29</ele><time>2026-04-25T18:40:10Z</time></trkpt><trkpt lat="59.0616503265" lon="29.9849155638"><ele>83.29</ele><time>2026-04-25T18:40:22Z</time></trkpt><trkpt lat="59.0615862887" lon="29.9849546235"><ele>83.29</ele><time>2026-04-25T18:40:35Z</time></trkpt><trkpt lat="59.0614971891" lon="29.9850194994"><ele>83.29</ele><time>2026-04-25T18:40:51Z</time></trkpt><trkpt lat="59.0614832751" lon="29.9850938469"><ele>83.77</ele><time>2026-04-25T18:41:03Z</time></trkpt><trkpt lat="59.0614728816" lon="29.9851394445"><ele>83.77</ele><time>2026-04-25T18:41:18Z</time></trkpt><trkpt lat="59.0614443831" lon="29.9851682782"><ele>83.77</ele><time>2026-04-25T18:41:29Z</time></trkpt><trkpt lat="59.0614044014" lon="29.9851868860"><ele>83.77</ele><time>2026-04-25T18:41:44Z</time></trkpt><trkpt lat="59.0613686945" lon="29.9851497542"><ele>83.77</ele><time>2026-04-25T18:41:57Z</time></trkpt><trkpt lat="59.0613326523" lon="29.9850750715"><ele>82.33</ele><time>2026-04-25T18:42:09Z</time></trkpt><trkpt lat="59.0613028128" lon="29.9849970359"><ele>83.29</ele><time>2026-04-25T18:42:20Z</time></trkpt><trkpt lat="59.0612184070" lon="29.9849006440"><ele>83.29</ele><time>2026-04-25T18:42:32Z</time></trkpt><trkpt lat="59.0611448139" lon="29.9847729877"><ele>83.29</ele><time>2026-04-25T18:42:44Z</time></trkpt><trkpt lat="59.0610753279" lon="29.9846292380"><ele>83.29</ele><time>2026-04-25T18:42:55Z</time></trkpt><trkpt lat="59.0610490087" lon="29.9845999852"><ele>81.85</ele><time>2026-04-25T18:43:00Z</time></trkpt><trkpt lat="59.0610224381" lon="29.9845535494"><ele>83.29</ele><time>2026-04-25T18:43:15Z</time></trkpt><trkpt lat="59.0610067639" lon="29.9845311698"><ele>83.29</ele><time>2026-04-25T18:43:28Z</time></trkpt><trkpt lat="59.0609419718" lon="29.9844991509"><ele>83.77</ele><time>2026-04-25T18:43:41Z</time></trkpt><trkpt lat="59.0609361883" lon="29.9844999891"><ele>83.77</ele><time>2026-04-25T18:43:42Z</time></trkpt><trkpt lat="59.0609157365" lon="29.9844746757"><ele>82.33</ele><time>2026-04-25T18:43:45Z</time></trkpt><trkpt lat="59.0609048400" lon="29.9844629411"><ele>83.77</ele><time>2026-04-25T18:43:47Z</time></trkpt><trkpt lat="59.0608601645" lon="29.9844219536"><ele>83.77</ele><time>2026-04-25T18:43:58Z</time></trkpt><trkpt lat="59.0608211886" lon="29.9844033457"><ele>82.33</ele><time>2026-04-25T18:44:12Z</time></trkpt><trkpt lat="59.0607149899" lon="29.9843757693"><ele>82.33</ele><time>2026-04-25T18:44:28Z</time></trkpt><trkpt lat="59.0606251359" lon="29.9843873363"><ele>82.33</ele><time>2026-04-25T18:44:39Z</time></trkpt><trkpt lat="59.0605978947" lon="29.9843849894"><ele>81.85</ele><time>2026-04-25T18:44:51Z</time></trkpt><trkpt lat="59.0605486091" lon="29.9844043516"><ele>81.85</ele><time>2026-04-25T18:44:59Z</time></trkpt><trkpt lat="59.0605188534" lon="29.9844025075"><ele>82.81</ele><time>2026-04-25T18:45:17Z</time></trkpt><trkpt lat="59.0604859963" lon="29.9844385497"><ele>82.81</ele><time>2026-04-25T18:45:29Z</time></trkpt><trkpt lat="59.0604736749" lon="29.9844538048"><ele>82.81</ele><time>2026-04-25T18:45:42Z</time></trkpt><trkpt lat="59.0604305081" lon="29.9844775256"><ele>82.81</ele><time>2026-04-25T18:45:56Z</time></trkpt><trkpt lat="59.0603987407" lon="29.9844985642"><ele>82.81</ele><time>2026-04-25T18:46:05Z</time></trkpt><trkpt lat="59.0603510477" lon="29.9844888411"><ele>82.81</ele><time>2026-04-25T18:46:27Z</time></trkpt><trkpt lat="59.0603452642" lon="29.9844770227"><ele>82.81</ele><time>2026-04-25T18:46:37Z</time></trkpt><trkpt lat="59.0603484493" lon="29.9844776932"><ele>82.81</ele><time>2026-04-25T18:46:48Z</time></trkpt><trkpt lat="59.0603437554" lon="29.9844094645"><ele>82.81</ele><time>2026-04-25T18:46:59Z</time></trkpt><trkpt lat="59.0603233874" lon="29.9843735900"><ele>82.81</ele><time>2026-04-25T18:47:09Z</time></trkpt><trkpt lat="59.0603196993" lon="29.9842379708"><ele>82.81</ele><time>2026-04-25T18:47:20Z</time></trkpt><trkpt lat="59.0603164304" lon="29.9842096400"><ele>82.81</ele><time>2026-04-25T18:47:22Z</time></trkpt><trkpt lat="59.0602562483" lon="29.9840440974"><ele>82.81</ele><time>2026-04-25T18:47:34Z</time></trkpt><trkpt lat="59.0602010116" lon="29.9839836638"><ele>82.81</ele><time>2026-04-25T18:47:47Z</time></trkpt><trkpt lat="59.0601441823" lon="29.9839104898"><ele>82.81</ele><time>2026-04-25T18:47:59Z</time></trkpt><trkpt lat="59.0600871854" lon="29.9838886131"><ele>82.81</ele><time>2026-04-25T18:48:09Z</time></trkpt><trkpt lat="59.0599904582" lon="29.9837953225"><ele>81.85</ele><time>2026-04-25T18:48:25Z</time></trkpt><trkpt lat="59.0598756261" lon="29.9837763794"><ele>82.81</ele><time>2026-04-25T18:48:39Z</time></trkpt><trkpt lat="59.0597384144" lon="29.9838473741"><ele>82.81</ele><time>2026-04-25T18:48:53Z</time></trkpt><trkpt lat="59.0595863666" lon="29.9839425087"><ele>82.81</ele><time>2026-04-25T18:49:09Z</time></trkpt><trkpt lat="59.0594809223" lon="29.9839557521"><ele>82.81</ele><time>2026-04-25T18:49:23Z</time></trkpt><trkpt lat="59.0594100114" lon="29.9839099031"><ele>82.81</ele><time>2026-04-25T18:49:38Z</time></trkpt><trkpt lat="59.0593151283" lon="29.9838464521"><ele>82.81</ele><time>2026-04-25T18:49:51Z</time></trkpt><trkpt lat="59.0592133719" lon="29.9837181251"><ele>82.81</ele><time>2026-04-25T18:50:04Z</time></trkpt><trkpt lat="59.0591719653" lon="29.9837657344"><ele>82.81</ele><time>2026-04-25T18:50:14Z</time></trkpt><trkpt lat="59.0590914991" lon="29.9837703444"><ele>81.85</ele><time>2026-04-25T18:50:27Z</time></trkpt><trkpt lat="59.0590832848" lon="29.9837669078"><ele>81.85</ele><time>2026-04-25T18:50:28Z</time></trkpt><trkpt lat="59.0590454824" lon="29.9837699253"><ele>81.85</ele><time>2026-04-25T18:50:40Z</time></trkpt><trkpt lat="59.0589203406" lon="29.9837711826"><ele>81.85</ele><time>2026-04-25T18:50:53Z</time></trkpt><trkpt lat="59.0588614158" lon="29.9837674946"><ele>81.85</ele><time>2026-04-25T18:51:10Z</time></trkpt><trkpt lat="59.0587733220" lon="29.9838122539"><ele>81.85</ele><time>2026-04-25T18:51:23Z</time></trkpt><trkpt lat="59.0586765110" lon="29.9837876949"><ele>81.85</ele><time>2026-04-25T18:51:36Z</time></trkpt><trkpt lat="59.0584866609" lon="29.9837572686"><ele>81.85</ele><time>2026-04-25T18:51:49Z</time></trkpt><trkpt lat="59.0583585855" lon="29.9836878665"><ele>81.85</ele><time>2026-04-25T18:52:03Z</time></trkpt><trkpt lat="59.0582675580" lon="29.9835700169"><ele>81.85</ele><time>2026-04-25T18:52:16Z</time></trkpt><trkpt lat="59.0582487825" lon="29.9835477211"><ele>81.85</ele><time>2026-04-25T18:52:20Z</time></trkpt><trkpt lat="59.0581503790" lon="29.9834582023"><ele>81.85</ele><time>2026-04-25T18:52:33Z</time></trkpt><trkpt lat="59.0580703318" lon="29.9833268579"><ele>81.37</ele><time>2026-04-25T18:52:45Z</time></trkpt><trkpt lat="59.0579798073" lon="29.9833285343"><ele>81.37</ele><time>2026-04-25T18:52:56Z</time></trkpt><trkpt lat="59.0578596946" lon="29.9832758959"><ele>81.37</ele><time>2026-04-25T18:53:10Z</time></trkpt><trkpt lat="59.0578501392" lon="29.9832303822"><ele>81.37</ele><time>2026-04-25T18:53:13Z</time></trkpt><trkpt lat="59.0577907953" lon="29.9831401929"><ele>80.89</ele><time>2026-04-25T18:53:25Z</time></trkpt><trkpt lat="59.0577295236" lon="29.9831567891"><ele>80.89</ele><time>2026-04-25T18:53:36Z</time></trkpt><trkpt lat="59.0576521587" lon="29.9830851238"><ele>80.89</ele><time>2026-04-25T18:53:47Z</time></trkpt><trkpt lat="59.0576096624" lon="29.9830524344"><ele>80.89</ele><time>2026-04-25T18:54:01Z</time></trkpt><trkpt lat="59.0575200599" lon="29.9830461480"><ele>80.89</ele><time>2026-04-25T18:54:13Z</time></trkpt><trkpt lat="59.0574238356" lon="29.9829981197"><ele>80.89</ele><time>2026-04-25T18:54:26Z</time></trkpt><trkpt lat="59.0573639888" lon="29.9830188230"><ele>80.89</ele><time>2026-04-25T18:54:36Z</time></trkpt><trkpt lat="59.0573007055" lon="29.9829557911"><ele>80.41</ele><time>2026-04-25T18:54:50Z</time></trkpt><trkpt lat="59.0572415292" lon="29.9829039071"><ele>80.41</ele><time>2026-04-25T18:55:03Z</time></trkpt><trkpt lat="59.0571318101" lon="29.9828184955"><ele>80.41</ele><time>2026-04-25T18:55:18Z</time></trkpt><trkpt lat="59.0570312273" lon="29.9828904960"><ele>80.41</ele><time>2026-04-25T18:55:30Z</time></trkpt><trkpt lat="59.0569538623" lon="29.9828840420"><ele>80.41</ele><time>2026-04-25T18:55:43Z</time></trkpt><trkpt lat="59.0568890702" lon="29.9829184916"><ele>80.41</ele><time>2026-04-25T18:55:54Z</time></trkpt><trkpt lat="59.0568122920" lon="29.9829395302"><ele>80.41</ele><time>2026-04-25T18:56:05Z</time></trkpt><trkpt lat="59.0567667782" lon="29.9829370156"><ele>80.41</ele><time>2026-04-25T18:56:19Z</time></trkpt><trkpt lat="59.0567373578" lon="29.9828516040"><ele>80.41</ele><time>2026-04-25T18:56:32Z</time></trkpt><trkpt lat="59.0566664468" lon="29.9827903323"><ele>80.41</ele><time>2026-04-25T18:56:42Z</time></trkpt><trkpt lat="59.0565627627" lon="29.9827589840"><ele>80.41</ele><time>2026-04-25T18:56:53Z</time></trkpt><trkpt lat="59.0564589947" lon="29.9826225266"><ele>80.41</ele><time>2026-04-25T18:57:06Z</time></trkpt><trkpt lat="59.0563126467" lon="29.9825884122"><ele>80.41</ele><time>2026-04-25T18:57:20Z</time></trkpt><trkpt lat="59.0562771074" lon="29.9826016556"><ele>80.41</ele><time>2026-04-25T18:57:25Z</time></trkpt><trkpt lat="59.0562486090" lon="29.9826556351"><ele>80.41</ele><time>2026-04-25T18:57:39Z</time></trkpt><trkpt lat="59.0561939590" lon="29.9826579820"><ele>81.85</ele><time>2026-04-25T18:57:49Z</time></trkpt><trkpt lat="59.0561706573" lon="29.9825161602"><ele>81.85</ele><time>2026-04-25T18:57:57Z</time></trkpt><trkpt lat="59.0561464336" lon="29.9824452493"><ele>81.85</ele><time>2026-04-25T18:58:09Z</time></trkpt><trkpt lat="59.0561434161" lon="29.9824355263"><ele>81.85</ele><time>2026-04-25T18:58:24Z</time></trkpt><trkpt lat="59.0561401471" lon="29.9824331794"><ele>81.85</ele><time>2026-04-25T18:58:45Z</time></trkpt><trkpt lat="59.0561356209" lon="29.9824289884"><ele>81.85</ele><time>2026-04-25T18:59:04Z</time></trkpt><trkpt lat="59.0561393928" lon="29.9824420642"><ele>81.85</ele><time>2026-04-25T18:59:24Z</time></trkpt><trkpt lat="59.0561272390" lon="29.9824010767"><ele>81.85</ele><time>2026-04-25T18:59:36Z</time></trkpt><trkpt lat="59.0561191086" lon="29.9822666310"><ele>81.85</ele><time>2026-04-25T18:59:46Z</time></trkpt><trkpt lat="59.0561145823" lon="29.9822040182"><ele>81.85</ele><time>2026-04-25T18:59:49Z</time></trkpt><trkpt lat="59.0561003331" lon="29.9821487814"><ele>81.85</ele><time>2026-04-25T18:59:55Z</time></trkpt><trkpt lat="59.0561000817" lon="29.9820300937"><ele>81.85</ele><time>2026-04-25T19:00:00Z</time></trkpt><trkpt lat="59.0561048593" lon="29.9819385633"><ele>81.85</ele><time>2026-04-25T19:00:04Z</time></trkpt><trkpt lat="59.0560908616" lon="29.9818821531"><ele>81.85</ele><time>2026-04-25T19:00:07Z</time></trkpt><trkpt lat="59.0560832340" lon="29.9817459472"><ele>81.85</ele><time>2026-04-25T19:00:13Z</time></trkpt><trkpt lat="59.0560646262" lon="29.9816748686"><ele>81.85</ele><time>2026-04-25T19:00:25Z</time></trkpt><trkpt lat="59.0560595971" lon="29.9816680793"><ele>81.85</ele><time>2026-04-25T19:00:41Z</time></trkpt><trkpt lat="59.0560487006" lon="29.9816510640"><ele>80.41</ele><time>2026-04-25T19:00:49Z</time></trkpt><trkpt lat="59.0562440827" lon="29.9840581790"><ele>115.50</ele><time>2026-04-25T19:06:10Z</time></trkpt><trkpt lat="59.0562424064" lon="29.9841259886"><ele>112.13</ele><time>2026-04-25T19:06:26Z</time></trkpt><trkpt lat="59.0562491119" lon="29.9841306824"><ele>108.77</ele><time>2026-04-25T19:06:31Z</time></trkpt><trkpt lat="59.0562534705" lon="29.9841294251"><ele>105.40</ele><time>2026-04-25T19:06:35Z</time></trkpt><trkpt lat="59.0562613495" lon="29.9841286708"><ele>101.08</ele><time>2026-04-25T19:06:44Z</time></trkpt><trkpt lat="59.0562551469" lon="29.9841405731"><ele>97.23</ele><time>2026-04-25T19:06:53Z</time></trkpt><trkpt lat="59.0562362876" lon="29.9840998370"><ele>94.35</ele><time>2026-04-25T19:07:03Z</time></trkpt></trkseg></trk></gpx>